[[{"header":{"parameterUnit":"m.s-1","parameterCategory":1,"la1":30.6,"la2":28.766,"lo1":-90.7593,"lo2":-88.6598,"dy":0.0162,"dx":0.0183,"nx":116,"ny":114,"refTime":"2023-03-31T12:00:00:Z","depth":0,"parameterNumber":2,"parameterNumberName":"U-component_of_WINDS"},"data":[0.0,0.0,0.0,0.0,0.0,0.0,0.0,0.0,0.0,0.0,0.0,0.0,0.0,0.0,0.0,0.0,0.0,0.0,0.0,0.0,0.0,0.0,0.0,0.0,0.0,0.0,0.0,0.0,0.0,0.0,0.0,0.0,0.0,0.0,0.0,0.0,0.0,0.0,0.0,0.0,0.0,0.0,0.0,0.0,0.0,0.0,0.0,0.0,0.0,0.0,0.0,0.0,0.0,0.0,0.0,0.0,0.0,0.0,0.0,0.0,0.0,0.0,0.0,0.0,0.0,0.0,0.0,0.0,0.0,0.0,0.0,0.0,0.0,0.0,0.0,0.0,0.0,0.0,0.0,0.0,0.0,0.0,0.0,0.0,0.0,0.0,0.0,0.0,0.0,0.0,0.0,0.0,0.0,0.0,0.0,0.0,0.0,0.0,0.0,0.0,0.0,0.0,0.0,0.0,0.0,0.0,0.0,0.0,0.0,0.0,0.0,0.0,0.0,0.0,0.0,0.0,0.0,0.0,0.0,0.0,0.0,0.0,0.0,0.0,0.0,0.0,0.0,0.0,0.0,0.0,0.0,0.0,0.0,0.0,0.0,0.0,0.0,0.0,0.0,0.0,0.0,0.0,0.0,0.0,0.0,0.0,0.0,0.0,0.0,0.0,0.0,0.0,0.0,0.0,0.0,0.0,0.0,0.0,0.0,0.0,0.0,0.0,0.0,0.0,0.0,0.0,0.0,0.0,0.0,0.0,0.0,0.0,0.0,0.0,0.0,0.0,0.0,0.0,0.0,0.0,0.0,0.0,0.0,0.0,0.0,0.0,0.0,0.0,0.0,0.0,0.0,0.0,0.0,0.0,0.0,0.0,0.0,0.0,0.0,0.0,0.0,0.0,0.0,0.0,0.0,0.0,0.0,0.0,0.0,0.0,0.0,0.0,0.0,0.0,0.0,0.0,0.0,0.0,0.0,0.0,0.0,0.0,0.0,0.0,0.0,0.0,0.0,0.0,0.0,0.0,0.0,0.0,0.0,0.0,0.0,0.0,0.0,0.0,0.0,0.0,0.0,0.0,0.0,0.0,0.0,0.0,0.0,0.0,0.0,0.0,0.0,0.0,0.0,0.0,0.0,0.0,0.0,0.0,0.0,0.0,0.0,0.0,0.0,0.0,0.0,0.0,0.0,0.0,0.0,0.0,0.0,0.0,0.0,0.0,0.0,0.0,0.0,0.0,0.0,0.0,0.0,0.0,0.0,0.0,0.0,0.0,0.0,0.0,0.0,0.0,0.0,0.0,0.0,0.0,0.0,0.0,0.0,0.0,0.0,0.0,0.0,0.0,0.0,0.0,0.0,0.0,0.0,0.0,0.0,0.0,0.0,0.0,0.0,0.0,0.0,0.0,0.0,0.0,0.0,0.0,0.0,0.0,0.0,0.0,0.0,0.0,0.0,0.0,0.0,0.0,0.0,0.0,0.0,0.0,0.0,0.0,0.0,0.0,0.0,0.0,0.0,0.0,0.0,0.0,0.0,0.0,0.0,0.0,0.0,0.0,0.0,0.0,0.0,0.0,0.0,0.0,0.0,0.0,0.0,0.0,0.0,0.0,0.0,0.0,0.0,0.0,0.0,0.0,0.0,0.0,0.0,0.0,0.0,0.0,0.0,0.0,0.0,0.0,0.0,0.0,0.0,0.0,0.0,0.0,0.0,0.0,0.0,0.0,0.0,0.0,0.0,0.0,0.0,0.0,0.0,0.0,0.0,0.0,0.0,0.0,0.0,0.0,0.0,0.0,0.0,0.0,0.0,0.0,0.0,0.0,0.0,0.0,0.0,0.0,0.0,0.0,0.0,0.0,0.0,0.0,0.0,0.0,0.0,0.0,0.0,0.0,0.0,0.0,0.0,0.0,0.0,0.0,0.0,0.0,0.0,0.0,0.0,0.0,0.0,0.0,0.0,0.0,0.0,0.0,0.0,0.0,0.0,0.0,0.0,0.0,0.0,0.0,0.0,0.0,0.0,0.0,0.0,0.0,0.0,0.0,0.0,0.0,0.0,0.0,0.0,0.0,0.0,0.0,0.0,0.0,0.0,0.0,0.0,0.0,0.0,0.0,0.0,0.0,0.0,0.0,0.0,0.0,0.0,0.0,0.0,0.0,0.0,0.0,0.0,0.0,0.0,0.0,0.0,0.0,0.0,0.0,0.0,0.0,0.0,0.0,0.0,0.0,0.0,0.0,0.0,0.0,0.0,0.0,0.0,0.0,0.0,0.0,0.0,0.0,0.0,0.0,0.0,0.0,0.0,0.0,0.0,0.0,0.0,0.0,0.0,0.0,0.0,0.0,0.0,0.0,0.0,0.0,0.0,0.0,0.0,0.0,0.0,0.0,0.0,0.0,0.0,0.0,0.0,0.0,0.0,0.0,0.0,0.0,0.0,0.0,0.0,0.0,0.0,0.0,0.0,0.0,0.0,0.0,0.0,0.0,0.0,0.0,0.0,0.0,0.0,0.0,0.0,0.0,0.0,0.0,0.0,0.0,0.0,0.0,0.0,0.0,0.0,0.0,0.0,0.0,0.0,0.0,0.0,0.0,0.0,0.0,0.0,0.0,0.0,0.0,0.0,0.0,0.0,0.0,0.0,0.0,0.0,0.0,0.0,0.0,0.0,0.0,0.0,0.0,0.0,0.0,0.0,0.0,0.0,0.0,0.0,0.0,0.0,0.0,0.0,0.0,0.0,0.0,0.0,0.0,0.0,0.0,0.0,0.0,0.0,0.0,0.0,0.0,0.0,0.0,0.0,0.0,0.0,0.0,0.0,0.0,0.0,0.0,0.0,0.0,0.0,0.0,0.0,0.0,0.0,0.0,0.0,0.0,0.0,0.0,0.0,0.0,0.0,0.0,0.0,0.0,0.0,0.0,0.0,0.0,0.0,0.0,0.0,0.0,0.0,0.0,0.0,0.0,0.0,0.0,0.0,0.0,0.0,0.0,0.0,0.0,0.0,0.0,0.0,0.0,0.0,0.0,0.0,0.0,0.0,0.0,0.0,0.0,0.0,0.0,0.0,0.0,0.0,0.0,0.0,0.0,0.0,0.0,0.0,0.0,0.0,0.0,0.0,0.0,0.0,0.0,0.0,0.0,0.0,0.0,0.0,0.0,0.0,0.0,0.0,0.0,0.0,0.0,0.0,0.0,0.0,0.0,0.0,0.0,0.0,0.0,0.0,0.0,0.0,0.0,0.0,0.0,0.0,0.0,0.0,0.0,0.0,0.0,0.0,0.0,0.0,0.0,0.0,0.0,0.0,0.0,0.0,0.0,0.0,0.0,0.0,0.0,0.0,0.0,0.0,0.0,0.0,0.0,0.0,0.0,0.0,0.0,0.0,0.0,0.0,0.0,0.0,0.0,0.0,0.0,0.0,0.0,0.0,0.0,0.0,0.0,0.0,0.0,0.0,0.0,0.0,0.0,0.0,0.0,0.0,0.0,0.0,0.0,0.0,0.0,0.0,0.0,0.0,0.0,0.0,0.0,0.0,0.0,0.0,0.0,0.0,0.0,0.0,0.0,0.0,0.0,0.0,0.0,0.0,0.0,0.0,0.0,0.0,0.0,0.0,0.0,0.0,0.0,0.0,0.0,0.0,0.0,0.0,0.0,0.0,0.0,0.0,0.0,0.0,0.0,0.0,0.0,0.0,0.0,0.0,0.0,0.0,0.0,0.0,0.0,0.0,0.0,0.0,0.0,0.0,0.0,0.0,0.0,0.0,0.0,0.0,0.0,0.0,0.0,0.0,0.0,0.0,0.0,0.0,0.0,0.0,0.0,0.0,0.0,0.0,0.0,0.0,0.0,0.0,0.0,0.0,0.0,0.0,0.0,0.0,0.0,0.0,0.0,0.0,0.0,0.0,0.0,0.0,0.0,0.0,0.0,0.0,0.0,0.0,0.0,0.0,0.0,0.0,0.0,0.0,0.0,0.0,0.0,0.0,0.0,0.0,0.0,0.0,0.0,0.0,0.0,0.0,0.0,0.0,0.0,0.0,0.0,0.0,0.0,0.0,0.0,0.0,0.0,0.0,0.0,0.0,0.0,0.0,0.0,0.0,0.0,0.0,0.0,0.0,0.0,0.0,0.0,0.0,0.0,0.0,0.0,0.0,0.0,0.0,0.0,0.0,0.0,0.0,0.0,0.0,0.0,0.0,0.0,0.0,0.0,0.0,0.0,0.0,0.0,0.0,0.0,0.0,0.0,0.0,0.0,0.0,0.0,0.0,0.0,0.0,0.0,0.0,0.0,0.0,0.0,0.0,0.0,0.0,0.0,0.0,0.0,0.0,0.0,0.0,0.0,0.0,0.0,0.0,0.0,0.0,0.0,0.0,0.0,0.0,0.0,0.0,0.0,0.0,0.0,0.0,0.0,0.0,0.0,0.0,0.0,0.0,0.0,0.0,0.0,0.0,0.0,0.0,0.0,0.0,0.0,0.0,0.0,0.0,0.0,0.0,0.0,0.0,0.0,0.0,0.0,0.0,0.0,0.0,0.0,0.0,0.0,0.0,0.0,0.0,0.0,0.0,0.0,0.0,0.0,0.0,0.0,0.0,0.0,0.0,0.0,0.0,0.0,0.0,0.0,0.0,0.0,0.0,0.0,0.0,0.0,0.0,0.0,0.0,0.0,0.0,0.0,0.0,0.0,0.0,0.0,0.0,0.0,0.0,0.0,0.0,0.0,0.0,0.0,0.0,0.0,0.0,0.0,0.0,0.0,0.0,0.0,0.0,0.0,0.0,0.0,0.0,0.0,0.0,0.0,0.0,0.0,0.0,0.0,0.0,0.0,0.0,0.0,0.0,0.0,0.0,0.0,0.0,0.0,0.0,0.0,0.0,0.0,0.0,0.0,0.0,0.0,0.0,0.0,0.0,0.0,0.0,0.0,0.0,0.0,0.0,0.0,0.0,0.0,0.0,0.0,0.0,0.0,0.0,0.0,0.0,0.0,0.0,0.0,0.0,0.0,0.0,0.0,0.0,0.0,0.0,0.0,0.0,0.0,0.0,0.0,0.0,0.0,0.0,0.0,0.0,0.0,0.0,0.0,0.0,0.0,0.0,0.0,0.0,0.0,0.0,0.0,0.0,0.0,0.0,0.0,0.0,0.0,0.0,0.0,0.0,0.0,0.0,0.0,0.0,0.0,0.0,0.0,0.0,0.0,0.0,0.0,0.0,0.0,0.0,0.0,0.0,0.0,0.0,0.0,0.0,0.0,0.0,0.0,0.0,0.0,0.0,0.0,0.0,0.0,0.0,0.0,0.0,0.0,0.0,0.0,0.0,0.0,0.0,0.0,0.0,0.0,0.0,0.0,0.0,0.0,0.0,0.0,0.0,0.0,0.0,0.0,0.0,0.0,0.0,0.0,0.0,0.0,0.0,0.0,0.0,0.0,0.0,0.0,0.0,0.0,0.0,0.0,0.0,0.0,0.0,0.0,0.0,0.0,0.0,0.0,0.0,0.0,0.0,0.0,0.0,0.0,0.0,0.0,0.0,0.0,0.0,0.0,0.0,0.0,0.0,0.0,0.0,0.0,0.0,0.0,0.0,0.0,0.0,0.0,0.0,0.0,0.0,0.0,0.0,0.0,0.0,0.0,0.0,0.0,0.0,0.0,0.0,0.0,0.0,0.0,0.0,0.0,0.0,0.0,0.0,0.0,0.0,0.0,0.0,0.0,0.0,0.0,0.0,0.0,0.0,0.0,0.0,0.0,0.0,0.0,0.0,0.0,0.0,0.0,0.0,0.0,0.0,0.0,0.0,0.0,0.0,0.0,0.0,0.0,0.0,0.0,0.0,0.0,0.0,0.0,0.0,0.0,0.0,0.0,0.0,0.0,0.0,0.0,0.0,0.0,0.0,0.0,0.0,0.0,0.0,0.0,0.0,0.0,0.0,0.0,0.0,0.0,0.0,0.0,0.0,0.0,0.0,0.0,0.0,0.0,0.0,0.0,0.0,0.0,0.0,0.0,0.0,0.0,0.0,0.0,0.0,0.0,0.0,0.0,0.0,0.0,0.0,0.0,0.0,0.0,0.0,0.0,0.0,0.0,0.0,0.0,0.0,0.0,0.0,0.0,-3.9334,0.0,0.0,0.0,0.0,0.0,0.0,0.0,0.0,0.0,0.0,0.0,0.0,0.0,0.0,0.0,0.0,0.0,0.0,0.0,0.0,0.0,0.0,0.0,0.0,0.0,0.0,0.0,0.0,0.0,0.0,0.0,0.0,0.0,0.0,0.0,0.0,0.0,0.0,0.0,-3.0853,-3.1481,-3.2497,-3.2182,-3.1478,-3.0401,0.0,0.0,0.0,0.0,0.0,0.0,0.0,0.0,0.0,0.0,0.0,0.0,0.0,0.0,0.0,0.0,0.0,0.0,0.0,0.0,0.0,0.0,0.0,0.0,0.0,0.0,0.0,0.0,0.0,0.0,0.0,0.0,0.0,0.0,0.0,0.0,0.0,0.0,0.0,0.0,0.0,0.0,0.0,0.0,0.0,0.0,0.0,0.0,0.0,0.0,0.0,0.0,0.0,0.0,0.0,0.0,0.0,0.0,0.0,0.0,0.0,0.0,0.0,0.0,0.0,0.0,0.0,0.0,0.0,0.0,0.0,-3.9546,0.0,0.0,0.0,0.0,0.0,0.0,0.0,0.0,0.0,0.0,0.0,0.0,0.0,0.0,0.0,0.0,0.0,0.0,0.0,0.0,0.0,0.0,0.0,0.0,-2.5824,-2.4694,-2.4485,-2.4724,0.0,0.0,0.0,0.0,0.0,0.0,0.0,-2.9894,-3.0043,-2.9771,-3.142,-3.2407,-3.2856,-3.3095,-3.2883,-3.2176,-3.0017,0.0,0.0,0.0,0.0,0.0,0.0,0.0,0.0,0.0,0.0,0.0,0.0,0.0,0.0,0.0,0.0,0.0,0.0,0.0,0.0,0.0,0.0,0.0,0.0,0.0,0.0,0.0,0.0,0.0,0.0,0.0,0.0,0.0,0.0,0.0,0.0,0.0,0.0,0.0,0.0,0.0,0.0,0.0,0.0,0.0,0.0,0.0,0.0,0.0,0.0,0.0,0.0,0.0,0.0,0.0,0.0,0.0,0.0,0.0,0.0,0.0,0.0,0.0,-4.1914,-4.232,-4.2895,-4.3673,-4.3741,-4.3234,-4.2625,-4.1305,-3.9681,0.0,0.0,0.0,0.0,0.0,0.0,0.0,0.0,0.0,0.0,0.0,0.0,0.0,0.0,0.0,0.0,0.0,0.0,0.0,0.0,0.0,0.0,-2.5849,-2.4784,-2.4634,-2.4066,-2.4029,0.0,0.0,0.0,0.0,0.0,0.0,-2.8727,-2.8816,-2.9355,-3.0372,-3.3455,-3.4711,-3.4264,-3.5429,-3.5914,-3.5679,-3.2526,-3.1114,-3.1054,0.0,0.0,0.0,0.0,0.0,0.0,0.0,0.0,0.0,0.0,0.0,0.0,0.0,0.0,0.0,0.0,0.0,0.0,0.0,0.0,0.0,0.0,0.0,0.0,0.0,0.0,0.0,0.0,0.0,0.0,0.0,0.0,0.0,0.0,0.0,0.0,0.0,0.0,0.0,0.0,0.0,-3.2598,-3.3457,0.0,0.0,0.0,0.0,0.0,0.0,0.0,0.0,0.0,0.0,0.0,0.0,0.0,-3.9512,-4.1542,-4.2422,-4.3267,-4.4175,-4.479,-4.5162,-4.5297,-4.6007,-4.665,-4.7158,-4.706,0.0,-4.1914,-4.2794,0.0,0.0,0.0,0.0,0.0,0.0,0.0,0.0,0.0,0.0,0.0,0.0,0.0,0.0,0.0,0.0,0.0,0.0,0.0,0.0,0.0,-2.6109,-2.6123,-2.5764,-2.75,-2.7799,-2.5854,-2.738,0.0,0.0,0.0,-2.7884,-2.747,-2.8906,-3.0851,-3.3305,-3.516,-3.6477,-3.7255,-3.7853,-3.8123,-3.8093,-3.7015,-3.507,-3.2587,-3.2018,0.0,0.0,0.0,0.0,0.0,0.0,0.0,0.0,0.0,0.0,0.0,0.0,0.0,0.0,0.0,0.0,0.0,0.0,0.0,0.0,0.0,0.0,0.0,0.0,0.0,0.0,0.0,0.0,0.0,0.0,0.0,0.0,0.0,0.0,0.0,0.0,0.0,0.0,0.0,-3.3761,-3.5419,-3.5318,-3.6535,-3.684,0.0,0.0,0.0,0.0,0.0,0.0,0.0,0.0,0.0,-3.9715,-4.1305,-4.2388,-4.2929,-4.4519,-4.5703,-4.6447,-4.7192,-4.8003,-4.8815,-4.912,-4.9695,-5.0371,-5.0371,-4.9221,-4.7192,-4.5872,-4.4181,-4.2388,0.0,0.0,0.0,0.0,-4.1948,-4.2794,0.0,0.0,0.0,0.0,0.0,0.0,0.0,0.0,0.0,0.0,0.0,0.0,-2.5854,-2.733,-2.8214,-2.7889,-3.0552,-3.0731,-2.7081,-2.8517,0.0,0.0,-2.6393,-2.6686,-2.6333,-2.9235,-3.2228,-3.525,-3.6746,-3.8242,-3.9679,-4.0008,-4.0157,-4.0217,-4.1025,-3.902,-3.4981,-3.4472,-3.3306,-3.1692,0.0,0.0,0.0,0.0,0.0,0.0,0.0,0.0,0.0,0.0,0.0,0.0,0.0,0.0,0.0,0.0,0.0,0.0,0.0,0.0,0.0,0.0,0.0,0.0,0.0,0.0,0.0,0.0,0.0,0.0,0.0,0.0,0.0,0.0,0.0,0.0,0.0,-3.6062,-3.7415,-3.6863,-3.8125,-3.8497,0.0,0.0,0.0,0.0,0.0,0.0,-3.9309,-4.1238,-4.2523,-4.2895,-4.4722,-4.5534,-4.5128,-4.6989,-4.8206,-4.8751,-4.9492,-5.0439,-5.1488,-5.1691,-5.2097,-5.2604,-5.2604,-5.2198,-5.1285,-4.8714,-4.6549,-4.4795,-4.4418,-4.4045,-4.3775,-4.4147,-4.4756,-4.5602,0.0,0.0,0.0,0.0,0.0,0.0,0.0,0.0,0.0,0.0,0.0,-2.7236,-2.907,-2.991,-3.0612,-3.1212,-3.1451,-3.0404,-2.7735,-2.7076,-2.6422,-2.5621,-2.5053,-2.5023,-2.5644,-2.9448,-3.2467,-3.4563,-3.8332,-4.0247,-4.0367,-4.1662,-4.2261,-4.2321,-4.3539,-4.2252,-3.899,-3.7135,-3.5941,-3.4956,-3.1784,0.0,0.0,0.0,0.0,0.0,0.0,0.0,0.0,0.0,0.0,0.0,0.0,0.0,0.0,0.0,0.0,0.0,0.0,0.0,0.0,0.0,0.0,0.0,0.0,0.0,0.0,0.0,0.0,0.0,0.0,0.0,0.0,0.0,0.0,0.0,0.0,0.0,0.0,-3.6795,-3.9918,0.0,0.0,0.0,0.0,-3.8836,-4.0832,-4.2388,-4.3071,-4.4621,-4.6143,-4.75,-4.8376,-4.9086,-4.9763,-5.0574,-5.1014,-5.1016,-5.1792,-5.2164,-5.2266,-5.3044,-5.3416,-5.345,-5.345,-5.2976,-5.2131,-5.0574,-4.9458,-4.8578,-4.7192,-4.7022,-4.7564,-4.6853,-4.709,-4.7736,0.0,0.0,0.0,0.0,0.0,0.0,0.0,0.0,-2.292,-2.3608,-2.5386,-2.718,-2.8763,-3.1804,-3.3993,-3.4651,-3.6267,-3.5938,-3.2886,-3.124,-2.9744,-2.8218,-2.586,-2.6099,-2.9328,-3.2467,-3.5459,-3.8302,-4.0546,-4.1893,-4.2273,-4.2761,-4.321,-4.3658,-4.4556,-4.4287,-4.306,-4.1123,-3.8422,-3.5402,-3.4211,-3.2184,0.0,0.0,0.0,0.0,0.0,0.0,0.0,0.0,0.0,0.0,0.0,0.0,0.0,0.0,0.0,0.0,0.0,0.0,0.0,0.0,0.0,0.0,0.0,0.0,0.0,0.0,0.0,0.0,0.0,0.0,0.0,0.0,0.0,0.0,0.0,0.0,0.0,-4.1001,-4.3098,0.0,-4.2354,-4.2219,-4.2354,-4.2584,-4.4215,-4.5737,-4.6955,-4.797,-4.8984,-4.9968,-5.0744,-5.1014,-5.0811,-5.2063,-5.2435,-5.1928,-5.2706,-5.3078,-5.3078,-5.3382,-5.3518,-5.3518,-5.3518,-5.3348,-5.3044,-5.2503,-5.1251,-4.9593,-4.8612,-4.8376,-4.8646,-4.8849,-4.939,-5.0069,0.0,0.0,0.0,0.0,0.0,0.0,0.0,0.0,-2.1844,-2.3161,-2.5644,-2.8098,-3.0342,-3.4322,-3.7105,-3.7764,-3.92,-3.8392,-3.4412,-3.2497,-3.0432,-2.8008,-2.6637,-2.8013,-3.2437,-3.4921,-3.7764,-4.1055,-4.2162,-4.315,-4.3947,-4.3738,-4.4018,-4.4676,-4.5334,-4.5514,-4.5214,-4.3938,-4.1205,-3.7674,-3.6118,-3.3933,-3.133,0.0,0.0,0.0,0.0,0.0,0.0,0.0,0.0,0.0,0.0,0.0,0.0,0.0,0.0,0.0,0.0,0.0,0.0,0.0,0.0,0.0,0.0,0.0,0.0,0.0,0.0,0.0,0.0,0.0,0.0,0.0,0.0,0.0,0.0,0.0,-4.3234,-4.3741,-4.5602,-4.6413,-4.5461,-4.5094,-4.5263,-4.6007,-4.7428,-4.8815,-5.0067,-5.0811,-5.1488,-5.1961,-5.2469,-5.2469,-5.1995,-5.301,-5.3247,-5.2706,-5.3247,-5.3518,-5.3518,-5.3518,-5.3518,-5.3518,-5.3518,-5.3518,-5.3518,-5.3518,-5.2604,-5.1183,-5.071,-5.0541,-5.0574,-5.1082,-5.1555,-5.2063,0.0,0.0,0.0,0.0,0.0,0.0,0.0,-2.0916,-2.1585,-2.4216,-2.6961,-3.0133,-3.4084,-3.7464,-3.9709,-4.0337,-3.9768,-3.7131,-3.1929,-3.0313,-2.8098,-2.4844,-2.735,-3.0612,-3.4474,-3.6507,-3.911,-4.241,-4.3,-4.3947,-4.5214,-4.4616,-4.4676,-4.5334,-4.6022,-4.5963,-4.5364,-4.5334,-4.4227,-4.2141,-3.7524,-3.5639,-3.51,0.0,0.0,0.0,0.0,0.0,0.0,0.0,0.0,0.0,0.0,0.0,0.0,0.0,0.0,0.0,0.0,0.0,0.0,0.0,0.0,0.0,0.0,0.0,0.0,0.0,0.0,0.0,0.0,0.0,0.0,0.0,0.0,0.0,-4.0164,-4.2828,-4.475,-4.4818,-4.7327,-4.8545,-4.709,-4.7631,-4.8311,-4.9052,-5.0473,-5.1589,-5.23,-5.3078,-5.3518,-5.3518,-5.3518,-5.3518,-5.3518,-5.3518,-5.3518,-5.3518,-5.3518,-5.3518,-5.3518,-5.3518,-5.3518,-5.3518,-5.3518,-5.3518,-5.3518,-5.3518,-5.3518,-5.3518,-5.3518,-5.3518,-5.3518,-5.3518,-5.3518,-5.3518,0.0,0.0,0.0,0.0,0.0,0.0,0.0,-1.9629,-2.0378,-2.349,-2.7051,-3.067,-3.4114,-3.7853,-4.0217,-4.0397,-3.8901,-3.6746,-3.3844,-3.0642,-2.8248,-2.6836,-3.115,-3.4352,-3.5941,-3.8811,-4.1003,-4.241,-4.3,-4.3469,-4.3858,-4.4167,-4.4676,-4.5334,-4.6022,-4.6471,-4.6711,-4.6232,-4.5723,-4.4915,-4.1235,-3.8332,-3.6088,0.0,0.0,0.0,0.0,0.0,0.0,0.0,0.0,0.0,0.0,0.0,0.0,0.0,0.0,0.0,0.0,0.0,0.0,0.0,0.0,0.0,0.0,0.0,0.0,0.0,0.0,0.0,0.0,0.0,0.0,0.0,0.0,-4.2658,-4.3978,-4.5805,-4.7597,-4.9187,-5.0574,-5.1217,-5.0811,-5.098,-5.1183,-5.1386,-5.23,-5.2976,-5.3179,-5.3382,-5.3518,-5.3518,-5.3518,-5.3518,-5.3518,-5.3518,-5.3518,-5.3518,-5.3518,-5.3518,-5.3518,-5.3518,-5.3518,-5.3518,-5.3518,-5.3518,-5.3518,-5.3518,-5.3518,-5.3518,-5.3518,-5.3518,-5.3518,-5.3518,-5.3518,-5.3518,0.0,0.0,0.0,0.0,0.0,0.0,0.0,-1.8942,-1.9989,-2.355,-2.7021,-3.0642,-3.4502,-3.7704,-3.9439,-3.917,-3.6836,-3.4412,-3.2168,-2.9086,-2.8278,-3.04,-3.3694,-3.6447,-3.8482,-4.0703,-4.241,-4.3638,-4.3688,-4.4127,-4.5005,-4.5095,-4.5514,-4.6142,-4.6561,-4.695,-4.7249,-4.6548,-4.6279,-4.61,-4.3928,-4.1422,-3.8846,-3.7704,-3.6148,-3.4502,-3.3963,-3.4083,-3.4174,-3.1958,0.0,0.0,0.0,0.0,0.0,0.0,0.0,0.0,0.0,0.0,0.0,0.0,0.0,0.0,0.0,0.0,0.0,0.0,0.0,0.0,0.0,0.0,0.0,0.0,-4.3335,-4.5229,-4.7665,-4.8477,-4.9526,-5.1454,-5.2334,-5.2807,-5.2807,-5.2807,-5.2807,-5.2807,-5.3247,-5.3518,-5.3518,-5.3518,-5.3653,-5.3957,-5.3653,-5.3653,-5.3957,-5.3653,-5.3518,-5.3518,-5.3518,-5.3518,-5.3518,-5.3518,-5.3518,0.0,-5.3518,-5.3518,-5.3518,-5.3518,-5.3518,0.0,0.0,0.0,0.0,0.0,-5.3518,-5.3518,0.0,0.0,0.0,0.0,0.0,0.0,0.0,-1.8796,-2.0212,-2.4267,-2.704,-3.034,-3.4898,-3.6993,-3.7823,-3.7255,-3.4053,-3.1061,-2.8637,-2.723,-2.8936,-3.4503,-3.5639,-3.7853,-4.1414,-4.2261,-4.3489,-4.5185,-4.4676,-4.5334,-4.707,-4.6561,-4.6621,-4.7189,-4.7279,-4.7309,-4.7279,-4.6681,-4.6399,-4.6381,-4.5783,-4.4347,-4.2351,-3.9948,-3.8601,-3.7823,-3.6686,-3.5968,-3.5462,-3.4472,0.0,0.0,0.0,0.0,0.0,0.0,0.0,0.0,0.0,0.0,0.0,0.0,0.0,0.0,0.0,0.0,0.0,0.0,0.0,0.0,0.0,0.0,0.0,0.0,-4.5602,-4.7394,-5.0813,-5.0845,-5.0947,-5.2266,-5.3078,-5.3518,-5.3518,-5.3518,-5.3518,-5.3518,-5.3518,-5.3518,-5.3518,0.0,0.0,0.0,0.0,-5.3822,-5.4465,-5.3822,-5.3518,-5.3518,-5.3518,-5.3518,-5.3518,-5.3518,-5.3518,-5.3518,-5.3518,-5.3518,-5.3518,-5.3518,-5.3518,-5.3518,-5.3518,-5.3518,-5.3518,-5.3518,-5.3518,-5.3518,0.0,0.0,0.0,0.0,0.0,0.0,0.0,-1.9375,-2.0941,-2.5608,-2.7601,-3.0169,-3.4235,-3.5513,-3.5998,-3.5878,-3.1869,-2.8906,-2.7854,-3.0402,-3.3215,-3.5968,-3.8751,-4.0883,-4.2171,-4.3329,-4.4137,-4.4496,-4.4915,-4.5304,-4.5693,-4.6112,-4.6339,-4.6531,-4.707,-4.7309,-4.7309,-4.716,-4.713,-4.71,-4.698,-4.5723,-4.3868,-4.3359,-4.2432,-4.1422,-4.1153,-4.1624,-4.1983,-3.92,-3.926,-3.9925,-3.6567,-3.3696,0.0,0.0,0.0,0.0,0.0,0.0,0.0,0.0,0.0,0.0,0.0,0.0,0.0,0.0,0.0,0.0,0.0,0.0,0.0,-4.6041,-4.797,-4.9898,-5.1826,-5.2536,-5.2942,-5.3247,-5.3416,-5.3518,-5.3518,-5.3518,-5.3518,-5.3518,-5.3518,-5.3518,-5.3518,-5.3518,0.0,-5.3721,-5.3585,-5.3585,-5.3721,-5.3585,-5.3518,-5.3518,0.0,0.0,-5.3518,-5.3518,-5.3518,-5.3518,-5.3518,-5.3518,-5.3518,-5.3518,-5.3518,-5.3518,-5.3518,-5.3518,-5.3518,-5.3518,-5.3518,-5.3518,0.0,0.0,0.0,0.0,0.0,0.0,0.0,-1.9012,-2.002,-2.3448,-2.5478,-2.762,-3.0251,-3.1438,-3.1779,-3.1091,-2.8936,-2.759,-2.7585,-3.13,-3.4981,-3.8302,-4.0374,-4.1833,-4.2821,-4.3808,-4.4466,-4.4796,-4.5484,-4.5992,-4.6322,-4.6651,-4.68,-4.683,-4.716,-4.7309,-4.7309,-4.7309,-4.7309,-4.7309,-4.7309,-4.6711,-4.5783,-4.5454,-4.4706,-4.3818,-4.3449,-4.3539,-4.3509,-4.1564,-4.1324,-4.1572,-3.9595,-3.7105,-3.4831,0.0,0.0,0.0,0.0,0.0,0.0,0.0,0.0,0.0,0.0,0.0,0.0,0.0,0.0,-4.1893,0.0,0.0,-4.6718,-4.8206,-4.9999,-5.1589,-5.2739,-5.3247,-5.3518,-5.3518,-5.3518,-5.3518,-5.3518,-5.3518,-5.3518,-5.3518,-5.3518,-5.3653,-5.4025,-5.3687,-5.3856,-5.46,-5.389,-5.3687,-5.4059,-5.3687,-5.3518,-5.3518,-5.3518,-5.3518,-5.3518,-5.3518,-5.3518,-5.3518,-5.389,-5.4059,-5.4093,-5.4465,-5.4397,-5.4059,-5.4059,-5.3822,-5.3518,-5.3518,-5.3518,-5.3518,0.0,0.0,0.0,0.0,0.0,0.0,0.0,-1.8976,-1.9577,-2.1548,-2.3396,-2.5085,-2.6428,-2.745,-2.732,-2.5585,-2.6722,-2.7619,-2.7794,-3.2078,-3.6417,-4.0427,-4.1354,-4.2252,-4.326,-4.4067,-4.4766,-4.5304,-4.6112,-4.68,-4.7309,-4.7309,-4.7309,-4.7309,-4.7309,-4.7309,-4.7309,-4.7309,-4.7309,-4.7309,-4.7309,-4.7309,-4.7249,-4.6711,-4.6172,-4.5574,-4.4796,-4.3838,-4.2901,-4.283,-4.2171,-4.1444,-4.1833,-4.0487,-3.8422,-3.6596,-3.6459,0.0,0.0,0.0,0.0,0.0,0.0,0.0,0.0,0.0,-3.9944,-4.0677,-4.1773,-4.3174,-4.511,-4.7259,-4.9221,-5.0541,-5.1995,-5.3145,-5.3653,-5.3721,-5.3653,-5.3518,-5.3518,-5.3518,-5.3518,-5.3518,-5.3551,-5.3687,-5.3585,-5.3822,-5.4566,-5.389,-5.4126,-5.5446,-5.4329,-5.4059,-5.4803,-5.4228,-5.3923,-5.3923,-5.3788,-5.3721,-5.3721,-5.3721,-5.3721,-5.3754,-5.4499,-5.4803,-5.4871,-5.5446,-5.5277,-5.46,-5.46,-5.416,-5.3518,-5.3518,-5.3518,-5.3518,0.0,0.0,0.0,0.0,0.0,0.0,0.0,0.0,-2.1874,-2.369,-2.4194,-2.4893,-2.6417,-2.6191,-2.4694,-2.1615,-2.7235,-3.0255,-2.8607,-3.4921,-3.9499,-4.1205,-4.2462,-4.314,-4.329,-4.4556,-4.5214,-4.5304,-4.6561,-4.7249,-4.7309,-4.7309,-4.7309,-4.7309,-4.7309,-4.7309,-4.7309,-4.7309,-4.7309,-4.7309,-4.7309,-4.7309,-4.7309,-4.7219,-4.716,-4.692,-4.5633,-4.3629,-4.1863,-4.3539,-4.288,-4.1683,-4.3419,-4.2222,-3.9888,-3.8482,0.0,-3.4587,-3.3846,-3.4684,-3.5953,-3.6581,-3.7681,-3.9668,0.0,0.0,-4.4471,-4.7292,-4.8017,-4.8216,-4.8446,-5.0338,-5.2097,-5.2976,-5.4363,-5.5141,-5.4566,-5.4465,-5.4228,-5.3585,-5.3518,-5.3518,-5.3518,-5.3518,-5.3788,-5.4431,-5.3856,-5.3822,-5.4566,-5.389,-5.389,-5.4702,-5.4566,-5.4837,-5.5581,-5.5513,-5.548,-5.548,-5.4803,-5.4465,-5.4465,-5.4465,-5.4465,-5.4499,-5.5277,-5.5581,-5.5546,-5.5683,-5.5277,-5.46,-5.46,-5.416,-5.3518,-5.3518,-5.3518,-5.3518,0.0,0.0,0.0,0.0,0.0,0.0,0.0,0.0,0.0,-2.1351,-2.2104,-2.2647,-2.2916,-2.2474,-2.1605,-2.0228,-2.5704,-2.9205,-2.9175,-3.5609,-4.0008,-4.1324,-4.2641,-4.329,-4.329,-4.4616,-4.5304,-4.5304,-4.6651,-4.7309,-4.7309,-4.7309,-4.7309,-4.7309,-4.7309,-4.7309,-4.7309,-4.7309,-4.7309,-4.7309,-4.7309,-4.7309,-4.7219,-4.6441,-4.5903,-4.5334,-4.3629,-4.2073,0.0,-4.0846,-4.0576,-4.0576,-4.2551,-4.1859,-4.0001,-3.8317,-3.6989,0.0,-3.5344,-3.589,-3.6898,0.0,-3.9724,-4.1757,-4.4056,-4.5037,-4.6028,-4.7896,-4.8957,-4.9957,-5.1356,-5.2739,-5.389,0.0,-5.531,-5.5446,-5.4702,-5.46,-5.416,-5.2942,-5.3213,-5.3518,-5.3518,-5.3518,-5.3822,-5.4532,-5.3923,-5.4025,-5.5175,-5.4532,-5.4465,-5.5209,-5.5243,-5.5412,-5.5681,-5.5681,-5.5681,-5.5681,-5.5412,-5.5243,-5.5243,-5.5243,-5.548,-5.5886,-5.6224,-5.6359,-5.6393,-5.6799,-5.6292,-5.5243,-5.5243,-5.4803,-5.4093,-5.3653,-5.3518,-5.3518,0.0,0.0,0.0,0.0,0.0,0.0,0.0,0.0,0.0,0.0,-2.051,-2.0879,-2.0347,-1.9945,-1.9708,-1.9708,-2.3721,-2.7136,-2.9202,-3.4622,-3.8781,-4.1025,-4.2372,-4.315,-4.329,-4.4616,-4.5304,-4.5304,-4.6651,-4.7309,-4.7309,-4.7309,-4.7309,-4.7309,-4.7309,-4.7309,-4.7309,-4.7309,-4.7309,-4.7309,-4.7309,-4.7189,-4.689,-4.5544,-4.4287,-4.3,-4.1205,-3.9559,-3.8157,-3.7733,-3.7406,-3.7681,-4.0395,-4.0572,-3.9437,-3.7836,-3.6785,-3.62,-3.6347,-3.6743,0.0,-3.9221,-4.1616,-4.3807,-4.4881,-4.6454,-4.7983,-4.9128,-5.0192,-5.1428,-5.318,-5.4262,-5.5074,-5.5615,-5.6055,-5.5987,-5.504,-5.4735,-5.4025,-5.2469,-5.2638,-5.2942,-5.3145,-5.3382,-5.3822,-5.4532,-5.4093,-5.4363,-5.5614,-5.5006,-5.504,-5.5987,-5.5818,-5.5919,-5.6325,-5.6325,-5.6325,-5.6325,-5.6122,-5.6021,-5.6021,-5.6021,-5.6427,-5.7103,-5.7103,-5.7103,-5.7137,-5.7679,-5.7137,-5.5987,-5.5784,-5.5243,-5.4499,-5.3788,-5.3518,-5.3518,0.0,0.0,0.0,0.0,0.0,0.0,0.0,0.0,0.0,0.0,0.0,0.0,0.0,-1.9945,-1.9708,-1.9708,-2.1625,-2.45,-2.8368,-3.1809,-3.5699,-4.0217,-4.1722,-4.2671,-4.329,-4.4616,-4.5304,-4.5304,-4.6651,-4.7309,-4.7309,-4.7309,-4.7309,-4.7309,-4.7309,-4.7309,-4.7309,-4.7309,-4.7309,-4.7309,-4.7309,-4.692,-4.616,-4.4855,-4.2761,-4.0337,-3.896,-3.5998,-3.3006,-3.4881,-3.3765,-3.2423,-3.6991,-3.8401,0.0,-3.7487,-3.539,0.0,0.0,0.0,-3.6957,-3.9616,-4.2592,-4.544,-4.7759,-4.9541,-5.1249,-5.2977,-5.3349,-5.3416,-5.3484,-5.4702,-5.5683,-5.5681,-5.69,-5.734,-5.5886,-5.504,-5.4025,-5.2469,-5.1691,-5.1555,0.0,-5.3044,-5.3822,-5.4532,-5.4566,-5.4905,-5.5683,-5.5006,-5.5277,-5.6731,-5.6089,-5.6393,-5.7814,-5.7814,-5.7814,-5.7814,-5.7103,-5.6765,-5.6765,-5.6765,-5.7171,-5.7848,-5.7848,-5.7848,-5.7848,-5.7881,-5.7442,-5.6697,-5.5987,-5.5243,-5.4499,-5.3788,-5.3518,-5.3518,0.0,0.0,0.0,0.0,0.0,0.0,0.0,0.0,0.0,0.0,0.0,0.0,0.0,0.0,0.0,0.0,-2.2347,-2.4195,-2.5219,-3.0924,-3.4729,-3.5791,-3.9707,-4.1711,-4.1384,-4.309,-4.3947,-4.3947,-4.5334,-4.6202,-4.6651,-4.6651,-4.689,-4.7309,-4.7309,-4.7309,-4.7309,-4.7309,-4.7309,-4.7219,-4.6322,-4.4796,-4.2791,-4.0576,-3.8093,-3.5549,0.0,-3.1958,-3.1206,-3.1413,0.0,0.0,-3.462,0.0,0.0,-3.4154,0.0,0.0,0.0,0.0,-4.087,-4.3376,-4.6304,-4.8929,-5.0384,-5.1713,-5.2639,-5.2673,-5.115,-4.9765,-4.9765,-4.9796,-5.0439,-5.2401,-5.4397,-5.5716,-5.5716,-5.5919,-5.4938,-5.1928,-5.2706,0.0,0.0,0.0,0.0,-5.4499,-5.46,-5.4905,-5.5683,-5.5919,-5.6292,-5.6799,-5.7036,-5.7408,-5.7881,-5.7881,-5.7881,-5.7881,-5.7645,-5.7509,-5.7509,-5.7509,-5.7645,-5.7881,-5.7881,-5.7881,-5.7881,-5.7881,-5.7476,-5.6799,-5.6528,-5.5683,-5.4566,-5.4329,-5.3923,-5.3518,0.0,0.0,0.0,0.0,0.0,0.0,0.0,0.0,0.0,0.0,0.0,0.0,0.0,0.0,0.0,0.0,0.0,-2.2845,-2.3541,-2.8082,-3.1162,-3.2077,-3.5883,-3.7858,-3.7584,-3.929,-4.0068,-3.9828,-4.1833,-4.294,-4.311,-4.4107,-4.4915,-4.5544,-4.5544,-4.5813,-4.6232,-4.5992,-4.5484,-4.4766,-4.3898,-4.1833,-3.908,-3.7105,-3.4711,0.0,-2.9741,-2.8974,-2.9047,-2.9049,0.0,0.0,0.0,0.0,0.0,0.0,0.0,0.0,0.0,-4.1797,-4.4507,-4.6944,-4.9451,-5.1442,-5.1809,-5.2497,-5.2706,-5.1386,-4.9424,-4.7665,-4.6887,-4.6312,-4.6989,-4.9932,-5.1657,-5.3213,-5.5074,-5.5243,-5.4397,-5.23,-5.3078,-5.3213,0.0,0.0,0.0,-5.4126,-5.4702,-5.5209,-5.5683,-5.6393,-5.6934,-5.7171,-5.7408,-5.7611,-5.7881,-5.7881,-5.7881,-5.7881,-5.7881,-5.7881,-5.7881,-5.7881,-5.7881,-5.7881,-5.7881,-5.7746,-5.7509,-5.778,-5.7476,-5.6765,-5.6528,-5.5818,-5.4938,-5.4397,-5.3923,-5.3518,0.0,0.0,0.0,0.0,0.0,0.0,0.0,0.0,0.0,0.0,0.0,0.0,0.0,0.0,0.0,0.0,0.0,0.0,-2.3233,-2.3623,-2.5392,-2.9082,-3.07,-3.1778,-3.2347,-3.3694,-3.4114,-3.3455,-3.6596,-3.7858,-3.7349,-3.9961,-4.149,-4.2158,-4.2226,-4.2908,-4.3978,-4.3379,-4.203,-4.0284,-4.0194,-3.8247,-3.522,-3.4533,-3.2617,-3.0043,-2.8184,-2.7133,-2.6825,0.0,0.0,0.0,0.0,0.0,0.0,0.0,0.0,-3.7709,-4.2878,-4.5709,-4.7744,-5.0063,-5.1852,-5.2847,-5.2089,-5.1997,-5.1488,-4.9323,-4.8071,-4.6684,0.0,0.0,-4.5263,-4.824,-4.8984,-5.0439,-5.4126,-5.345,-5.2841,0.0,0.0,0.0,0.0,0.0,0.0,-5.3619,0.0,-5.575,-5.5749,-5.6461,-5.7171,-5.7881,-5.7205,-5.7171,-5.7881,-5.7881,-5.7881,-5.7881,-5.7881,-5.7881,-5.7881,-5.7881,-5.7881,-5.7881,-5.7881,-5.7476,-5.6867,-5.7577,-5.7442,-5.6697,-5.6021,-5.5716,-5.548,-5.4093,-5.3551,-5.3518,0.0,0.0,0.0,0.0,0.0,0.0,0.0,0.0,0.0,0.0,0.0,0.0,0.0,0.0,0.0,0.0,0.0,0.0,-2.0753,-2.401,-2.5527,-2.4492,-2.9103,-3.1247,-3.037,-3.2078,-3.2946,-3.2766,-3.4083,-3.5113,-3.5857,-3.7109,-3.8225,-3.9203,-3.9765,-4.0202,-4.0479,-4.0324,-3.9683,-3.8723,-3.7811,-3.5455,-3.2378,-3.127,-2.9475,-2.744,-2.6452,-2.7295,0.0,0.0,0.0,0.0,0.0,-3.6482,-3.7213,0.0,0.0,-4.2911,-4.7055,-4.9646,-5.1327,-5.216,-5.3053,-5.3453,-5.2435,-5.0549,-4.8714,-4.7597,-4.3234,-3.9469,0.0,0.0,0.0,-4.435,-4.8578,0.0,-5.5074,-5.6021,0.0,-5.5277,0.0,-5.5446,-5.4905,-5.504,0.0,0.0,-5.5513,-5.5953,-5.6494,-5.7205,-5.7712,-5.7881,-5.7712,-5.7712,-5.7881,-5.7881,-5.7881,-5.7881,-5.7881,-5.7881,-5.7881,-5.7881,-5.7881,-5.7881,-5.7881,-5.7476,-5.6867,-5.7577,-5.7137,-5.6021,-5.6393,-5.5852,-5.4837,-5.4465,-5.3957,-5.3585,0.0,0.0,0.0,0.0,0.0,0.0,0.0,0.0,0.0,0.0,0.0,0.0,0.0,0.0,0.0,0.0,0.0,0.0,0.0,-2.3091,-2.3866,-2.2334,-2.5773,-2.7381,-2.6596,-2.7889,-2.8607,-2.8607,-2.9864,-3.0809,-3.1506,-3.3374,-3.4682,-3.5628,-3.6609,-3.7389,-3.7895,-3.734,-3.6256,0.0,0.0,-3.1824,-2.888,-2.8757,-2.7854,-2.6542,-2.6183,-2.7705,0.0,0.0,0.0,-3.6339,-3.9379,-4.0486,-4.1304,-4.4494,0.0,-4.7241,-5.0858,-5.3251,-5.4705,-5.4675,-5.4728,-5.3966,-5.1054,-4.9089,-4.6955,-4.3606,-3.9884,0.0,-3.64,0.0,0.0,0.0,0.0,0.0,-5.4702,-5.6224,-5.6765,0.0,-5.6833,0.0,-5.5783,-5.6021,-5.619,0.0,-5.619,-5.6359,-5.6799,-5.7476,-5.7881,-5.7881,-5.7881,-5.7881,-5.7881,-5.822,-5.822,-5.7881,-5.822,-5.822,-5.7881,-5.7881,-5.7881,-5.7881,0.0,-5.7476,-5.6867,-5.7577,-5.7205,-5.619,-5.6292,-5.5818,-5.504,-5.4702,-5.4329,-5.4093,0.0,0.0,0.0,0.0,0.0,0.0,0.0,0.0,0.0,0.0,0.0,0.0,0.0,0.0,0.0,0.0,0.0,0.0,0.0,0.0,-2.1874,-2.1695,-2.2433,-2.2793,-2.2703,-2.3281,-2.364,-2.3729,-2.5375,-2.6321,-2.6627,-2.9449,-3.1155,-3.192,-3.3214,-3.4409,-3.5439,-3.4422,-3.2578,-3.0334,-3.0377,-2.8553,-2.6004,0.0,-2.7255,-2.6752,-2.6931,0.0,0.0,0.0,-3.8935,-4.0007,-4.3255,-4.4806,-4.5935,-4.8453,-4.9823,-5.1241,-5.4518,-5.6661,-5.7725,-5.6988,-5.6258,-5.4295,-4.8954,-4.7365,-4.5235,-3.9039,0.0,-3.6705,-3.5633,-3.6096,-3.8386,-4.3735,0.0,-4.8781,-5.3991,-5.548,-5.6292,-5.7002,-5.7645,-5.7543,-5.6292,-5.663,-5.7002,-5.707,-5.7103,-5.707,-5.6934,-5.7543,-5.7881,-5.7881,-5.7983,-5.8051,-5.8051,-5.8795,-5.8829,-5.8186,-5.8761,-5.866,-5.8017,-5.7915,-5.7881,-5.7881,0.0,0.0,-5.6867,-5.7577,-5.7408,-5.6596,-5.6089,-5.5818,-5.5649,-5.4972,-5.4735,-5.4837,0.0,0.0,0.0,0.0,0.0,0.0,0.0,0.0,0.0,0.0,-2.444,-2.4391,0.0,0.0,0.0,0.0,0.0,0.0,0.0,0.0,0.0,-2.1754,-2.2802,-2.3212,-2.2703,-2.3281,-2.3879,-2.4425,0.0,-2.4903,-2.645,-2.7071,-2.795,-2.9076,-3.0389,-3.1122,-3.135,-3.1648,-3.0937,-2.9607,-2.9586,-2.8642,-2.7285,-2.7495,0.0,0.0,0.0,0.0,0.0,-3.8692,-4.152,-4.3119,-4.7558,-4.9319,-5.0522,-5.4207,-5.5322,-5.5885,-5.8456,-5.9866,-5.9987,-5.7439,-5.6258,-5.4194,-4.8308,-4.4587,0.0,0.0,-3.4506,-3.2848,-3.4404,-3.5318,-3.7753,-4.3667,0.0,0.0,0.0,0.0,-5.778,0.0,0.0,0.0,0.0,0.0,0.0,0.0,0.0,-5.8355,-5.7746,-5.7814,-5.7881,-5.7881,-5.849,-5.8829,-5.8829,-5.9539,-5.9844,-5.9708,-5.9235,-5.893,-5.8795,-5.8186,-5.7881,-5.7881,-5.7881,0.0,-5.6867,-5.7577,-5.7103,-5.5953,-5.6427,-5.6258,-5.5647,-5.5581,-5.5513,-5.5615,0.0,0.0,0.0,0.0,0.0,0.0,0.0,-2.4052,-2.4932,-2.6015,-2.6573,-2.6809,-2.6742,-2.6742,-2.648,0.0,0.0,0.0,0.0,0.0,0.0,0.0,0.0,0.0,0.0,0.0,0.0,0.0,0.0,0.0,0.0,0.0,0.0,0.0,0.0,0.0,-3.0777,-3.0757,-3.0183,-2.9329,-2.9021,-2.8389,0.0,0.0,0.0,0.0,0.0,0.0,0.0,-3.6722,-3.9776,-4.3056,-4.9274,-5.1731,-5.2499,-5.3761,-5.587,-5.7921,-5.8436,-6.0197,-6.1231,-5.8592,-5.6528,-5.3247,-4.6075,0.0,0.0,0.0,-3.2767,-3.2226,-3.366,-3.4844,0.0,0.0,0.0,0.0,0.0,0.0,0.0,0.0,0.0,0.0,0.0,0.0,0.0,0.0,0.0,-5.8457,-5.8457,-5.8457,-5.8457,-5.8457,-5.9201,-5.9573,-5.9573,-6.0351,-6.052,-6.0114,-6.0182,-5.9776,-5.8998,-5.8626,-5.8254,-5.7881,-5.7881,0.0,-5.7408,-5.7746,-5.7476,-5.6833,-5.6799,-5.6596,-5.6292,-5.6292,-5.6292,-5.6393,0.0,0.0,0.0,0.0,0.0,0.0,0.0,-2.4628,-2.5744,-2.6793,-2.7977,-2.8619,-2.8331,-2.8162,-2.7703,0.0,0.0,0.0,0.0,0.0,0.0,0.0,0.0,0.0,0.0,0.0,0.0,0.0,0.0,0.0,0.0,0.0,0.0,0.0,0.0,0.0,0.0,-3.0456,-2.9938,0.0,0.0,0.0,0.0,0.0,0.0,0.0,0.0,0.0,0.0,0.0,-3.7362,-4.1436,-4.8063,-5.1048,-5.1999,-5.1717,-5.4907,-5.8508,-5.8368,-6.0437,-6.2042,-5.9607,-5.6799,-5.2435,-4.4181,-4.1474,0.0,0.0,-3.1684,-3.2361,-3.322,-3.4078,-3.5622,0.0,-4.1339,0.0,0.0,0.0,0.0,0.0,0.0,0.0,0.0,0.0,0.0,0.0,0.0,0.0,-5.8998,-5.9032,-5.9099,-5.9235,-5.9979,-6.0351,-6.0351,-6.1129,-6.1231,-6.0588,-6.0892,-6.0419,-5.9235,-5.893,-5.8457,-5.7881,-5.7881,0.0,0.0,-5.7881,-5.7881,-5.7814,-5.7273,-5.7036,-5.7036,-5.7036,-5.7036,-5.7103,0.0,0.0,0.0,0.0,0.0,0.0,0.0,-2.4508,-2.5354,-2.7418,-2.7824,-2.8432,-2.9751,-2.9296,-2.8673,0.0,0.0,0.0,0.0,0.0,0.0,0.0,0.0,0.0,0.0,0.0,0.0,0.0,0.0,0.0,0.0,0.0,0.0,0.0,0.0,0.0,0.0,0.0,0.0,0.0,0.0,0.0,0.0,0.0,0.0,0.0,0.0,0.0,0.0,0.0,0.0,-3.8937,-4.2193,-4.5128,-4.7936,-5.048,0.0,0.0,-6.1013,-6.264,-6.2719,-5.9742,-5.6799,-5.2435,-4.4181,0.0,0.0,-3.2307,-3.1258,-3.1732,-3.3152,-3.2408,-3.322,-3.8193,0.0,-4.1001,0.0,0.0,0.0,0.0,0.0,0.0,0.0,0.0,0.0,0.0,0.0,0.0,-5.9032,-5.9032,-5.9336,-5.9979,-6.0757,-6.1197,-6.1197,-6.1907,-6.2245,-6.2144,-6.0825,-6.0148,-5.9945,-5.8592,-5.7949,-5.7881,-5.7881,0.0,0.0,-5.7881,-5.7881,-5.7881,-5.7814,-5.778,-5.778,-5.778,-5.778,-5.7814,0.0,0.0,0.0,0.0,0.0,0.0,-2.4271,-2.488,-2.5981,-2.8213,-2.8924,-2.9582,-3.0649,-3.0108,-2.9446,-2.8913,0.0,0.0,0.0,0.0,0.0,0.0,0.0,0.0,0.0,0.0,0.0,0.0,0.0,0.0,0.0,0.0,0.0,0.0,0.0,0.0,0.0,0.0,0.0,0.0,0.0,0.0,0.0,0.0,0.0,0.0,0.0,0.0,0.0,0.0,0.0,0.0,-3.4633,-3.6705,0.0,0.0,-5.0101,-5.5243,-5.7171,-6.0554,-6.2888,-6.0317,-5.6427,-5.1285,-4.3978,0.0,-3.6457,-3.2104,-3.119,-3.1393,-3.1968,-3.1596,-3.1867,-3.3964,-3.5182,0.0,0.0,0.0,0.0,0.0,0.0,0.0,0.0,0.0,0.0,0.0,0.0,0.0,-6.0385,-6.0385,-6.052,-6.0825,-6.1569,-6.1941,-6.1941,-6.2245,-6.2381,-6.2381,-6.1332,-6.0554,-6.008,-5.9032,-5.8321,-5.7881,-5.7881,0.0,0.0,-5.7881,-5.7881,-5.7881,-5.7881,-5.7881,-5.7881,-5.7881,-5.7881,-5.7881,0.0,0.0,0.0,0.0,0.0,-2.2801,-2.4271,-2.4948,-2.6015,-2.8062,-2.8958,-2.9702,-3.0446,-3.0074,-2.9806,-2.9842,-2.9496,0.0,0.0,0.0,0.0,0.0,0.0,0.0,0.0,0.0,0.0,0.0,0.0,0.0,0.0,0.0,0.0,0.0,0.0,0.0,0.0,0.0,0.0,0.0,0.0,0.0,0.0,0.0,0.0,0.0,0.0,0.0,0.0,0.0,0.0,0.0,0.0,-3.1355,-3.3761,0.0,-4.5162,-5.1014,-5.3315,-5.7509,-6.0926,-5.9742,-5.5344,-4.9729,0.0,0.0,-3.5204,-3.1867,-3.119,-3.119,-3.119,-3.119,-3.119,-3.119,-3.2679,-3.525,-3.9242,0.0,0.0,0.0,0.0,0.0,0.0,0.0,0.0,0.0,0.0,0.0,0.0,-6.1163,-6.14,-6.1603,-6.1907,-6.2178,-6.2381,-6.2178,-6.2076,-6.2076,-6.1298,-6.052,-5.9742,-5.9032,-5.8389,-5.7881,0.0,0.0,0.0,-5.7881,-5.7881,-5.7881,-5.7881,-5.7881,-5.7881,-5.7881,-5.7881,-5.7915,0.0,0.0,0.0,0.0,0.0,0.0,-2.4271,-2.4508,-2.5049,-2.6522,-2.7368,-2.8128,-2.8942,-2.901,-2.9619,-3.1055,-2.9976,0.0,0.0,0.0,0.0,0.0,0.0,0.0,0.0,0.0,-2.8174,-2.7585,-2.8787,-2.8764,0.0,0.0,0.0,0.0,0.0,0.0,0.0,0.0,0.0,0.0,0.0,0.0,0.0,0.0,0.0,0.0,0.0,0.0,0.0,0.0,0.0,0.0,0.0,-3.0736,-3.1799,-3.4788,-3.9386,-4.4823,-5.0809,-5.4059,-5.6156,-5.7543,-5.345,-4.7868,0.0,0.0,-3.3897,-3.1664,-3.119,-3.119,-3.119,-3.119,-3.119,-3.119,-3.1853,0.0,-3.8362,0.0,0.0,0.0,0.0,0.0,0.0,0.0,0.0,0.0,0.0,0.0,0.0,-6.0858,-6.1637,-6.2347,-6.167,-6.167,-6.2381,-6.167,-6.1332,-6.1298,-6.0486,-5.9742,-5.8998,-5.8254,-5.7881,0.0,0.0,0.0,0.0,-5.7881,-5.7881,-5.7881,-5.7881,-5.7881,-5.7881,-5.7881,-5.7881,-5.7983,0.0,0.0,0.0,0.0,0.0,0.0,0.0,-2.4068,-2.4628,-2.7114,-2.7232,-2.7537,-2.8874,-2.8518,-2.8586,-2.9619,-2.9753,0.0,0.0,0.0,0.0,0.0,0.0,0.0,0.0,0.0,-2.8175,-2.7476,-2.8248,-2.8225,-2.75,-2.8692,0.0,0.0,0.0,0.0,0.0,0.0,0.0,0.0,0.0,0.0,0.0,0.0,0.0,0.0,0.0,0.0,0.0,0.0,0.0,0.0,0.0,0.0,0.0,-3.0409,-3.4869,0.0,-4.4418,-4.7158,-4.8984,-4.9458,-4.6583,-4.276,-3.9334,0.0,-3.3254,-3.1562,-3.119,-3.119,-3.119,-3.119,-3.136,-3.1887,-3.2577,0.0,0.0,0.0,0.0,0.0,0.0,0.0,0.0,0.0,0.0,0.0,0.0,0.0,0.0,-6.1163,-6.1637,-6.2381,-6.1163,-6.0858,-6.1637,-6.0858,-6.0486,-6.0486,-5.9708,-5.9235,-5.8998,-5.822,0.0,0.0,0.0,0.0,0.0,-5.7881,-5.7881,-5.7881,-5.7881,-5.7881,-5.7881,-5.7881,-5.7881,-5.8017,0.0,0.0,0.0,0.0,0.0,0.0,0.0,-2.3695,-2.4255,-2.664,-2.6573,-2.686,-2.8383,-2.7841,-2.7807,-2.8908,-2.9397,0.0,0.0,0.0,0.0,0.0,0.0,0.0,-2.7564,-2.838,-2.8381,-2.7434,-2.8285,-2.8114,-2.704,-2.8251,-2.8744,-2.8686,0.0,0.0,0.0,0.0,0.0,0.0,0.0,0.0,-2.7585,0.0,0.0,0.0,0.0,0.0,0.0,0.0,0.0,0.0,0.0,0.0,0.0,0.0,-3.1453,0.0,0.0,-4.1847,-4.3775,-4.4621,-4.2388,0.0,0.0,-3.4607,-3.2307,-3.1393,-3.119,-3.119,-3.119,-3.119,-3.1326,-3.1819,-3.251,0.0,0.0,0.0,0.0,0.0,0.0,0.0,0.0,0.0,0.0,0.0,0.0,0.0,0.0,-6.0452,-6.0757,-6.1501,-6.0317,-6.008,-6.0858,-6.008,-5.9674,-5.9674,-5.9235,-5.8863,-5.8592,-5.8084,0.0,0.0,0.0,0.0,0.0,-5.7881,-5.7881,-5.7881,-5.7881,-5.7881,-5.7915,-5.822,-5.8321,-5.8457,0.0,0.0,0.0,0.0,0.0,0.0,0.0,-2.3346,-2.3872,-2.5357,-2.5576,-2.6133,-2.7501,-2.7046,-2.7232,-2.8651,0.0,0.0,0.0,0.0,0.0,0.0,0.0,0.0,-2.7596,-2.8731,-2.8745,-2.7524,-2.8712,-2.8313,-2.6554,-2.7705,-2.8045,-2.7642,-2.8066,-2.7694,-2.6662,-2.6662,-2.6662,-2.6746,-2.7345,-2.7585,0.0,0.0,0.0,0.0,0.0,0.0,0.0,0.0,0.0,0.0,0.0,0.0,0.0,0.0,0.0,0.0,0.0,-3.7855,-3.991,0.0,0.0,0.0,0.0,-3.3715,0.0,-3.119,-3.119,-3.1224,-3.1258,-3.1224,-3.1224,-3.1326,0.0,0.0,0.0,0.0,0.0,0.0,0.0,0.0,0.0,0.0,0.0,0.0,0.0,0.0,0.0,-5.9032,-5.9336,-6.0013,-5.9302,-5.9302,-6.0013,-5.9302,-5.893,-5.893,-5.893,-5.8558,-5.7881,-5.7881,0.0,0.0,0.0,0.0,0.0,-5.7881,-5.7881,-5.7881,-5.7881,-5.7881,-5.7983,-5.8693,-5.8964,-5.9235,0.0,0.0,0.0,0.0,0.0,0.0,0.0,0.0,0.0,0.0,-2.5429,-2.5815,-2.6359,-2.629,-2.6323,0.0,0.0,0.0,0.0,0.0,0.0,0.0,0.0,0.0,-2.8263,-2.8464,-2.8362,-2.7944,-2.8724,-2.8605,-2.7737,-2.8477,-2.9084,-2.9589,-2.8683,-2.7944,-2.7375,-2.7375,-2.7375,-2.7375,-2.7525,-2.7585,0.0,0.0,0.0,0.0,-2.7585,-2.7585,0.0,0.0,0.0,0.0,0.0,0.0,0.0,0.0,-2.8135,-2.9829,-3.1402,0.0,-3.2713,-3.3795,-3.3423,-3.2713,0.0,-3.1833,-3.119,-3.119,-3.119,0.0,0.0,-3.1562,-3.1562,0.0,0.0,0.0,0.0,0.0,0.0,0.0,0.0,0.0,0.0,0.0,0.0,0.0,0.0,0.0,0.0,-5.9032,-5.9099,-5.9268,-5.8524,-5.8524,-5.9268,-5.8524,-5.8152,-5.8152,-5.8152,-5.8051,-5.7881,-5.7881,0.0,0.0,0.0,0.0,-5.7881,-5.7881,-5.7881,-5.7881,-5.7881,-5.7881,-5.7915,-5.8084,-5.8524,-5.9133,0.0,0.0,0.0,0.0,0.0,0.0,0.0,0.0,0.0,0.0,0.0,-2.5117,-2.557,-2.5617,0.0,0.0,0.0,0.0,0.0,0.0,0.0,0.0,0.0,-2.9203,-2.8904,-2.9111,-2.8881,-2.8154,-2.8477,-2.811,-2.7147,-2.7478,-2.8206,-2.926,-2.8636,-2.8233,-2.7978,-2.771,-2.7585,-2.7585,-2.7585,0.0,0.0,0.0,0.0,0.0,-2.7585,-2.7585,0.0,-2.7195,-2.6602,-2.5944,0.0,0.0,0.0,0.0,-2.7402,-2.8986,-2.9717,-3.0253,-3.0717,-3.1089,-3.119,-3.119,-3.119,-3.119,-3.119,-3.119,-3.119,0.0,0.0,0.0,0.0,0.0,0.0,0.0,0.0,0.0,0.0,0.0,0.0,0.0,0.0,0.0,0.0,0.0,0.0,0.0,0.0,-5.849,-5.849,-5.849,-5.8084,-5.8084,-5.849,-5.8084,-5.7881,-5.7881,-5.7881,-5.7881,-5.7881,-5.7881,-5.7881,0.0,0.0,0.0,-5.7881,-5.7881,-5.7881,-5.7881,-5.7881,-5.7881,-5.7915,-5.8287,-5.8863,-5.9607,0.0,0.0,0.0,0.0,0.0,0.0,0.0,0.0,0.0,0.0,0.0,0.0,0.0,0.0,0.0,0.0,0.0,0.0,0.0,0.0,0.0,0.0,-3.0021,-2.9967,-2.9246,-2.9815,-2.9547,-2.8329,-2.8428,-2.7845,-2.6634,-2.6501,-2.7057,-2.8102,-2.836,-2.8489,-2.8463,-2.786,-2.7585,-2.7585,-2.7585,0.0,0.0,0.0,0.0,0.0,0.0,0.0,0.0,-2.7495,-2.7076,-2.6482,-2.5824,0.0,0.0,0.0,0.0,0.0,-2.9066,-3.0389,-3.1461,-3.1258,-3.119,-3.119,-3.119,-3.119,-3.119,0.0,0.0,0.0,0.0,-3.2327,0.0,0.0,0.0,0.0,0.0,0.0,0.0,0.0,0.0,0.0,0.0,0.0,0.0,0.0,0.0,0.0,0.0,-5.7814,-5.7881,-5.7881,-5.778,-5.778,-5.7881,-5.7881,-5.7881,-5.7881,-5.7881,-5.7881,-5.7881,-5.7881,-5.7881,0.0,0.0,0.0,-5.7881,-5.7881,-5.7881,-5.7881,-5.7881,-5.7881,-5.7983,-5.8592,-5.9302,-6.0047,0.0,0.0,0.0,0.0,0.0,0.0,0.0,0.0,0.0,0.0,0.0,0.0,0.0,0.0,0.0,0.0,0.0,0.0,0.0,0.0,0.0,-3.0117,-3.0267,-2.9706,-2.8488,-2.9065,-2.9211,-2.8866,-2.9488,-2.969,-2.9454,-2.8832,-2.839,-2.8089,-2.8265,-2.8415,-2.8463,-2.786,-2.7585,-2.7585,-2.7585,0.0,0.0,0.0,0.0,0.0,0.0,0.0,0.0,-2.6956,-2.6716,-2.6482,-2.5824,0.0,0.0,0.0,0.0,0.0,-2.8434,-3.0792,-3.2747,-3.1495,-3.119,-3.119,-3.119,-3.119,-3.119,0.0,0.0,0.0,0.0,-3.4607,-3.5723,0.0,0.0,0.0,0.0,0.0,0.0,0.0,0.0,0.0,0.0,0.0,0.0,0.0,0.0,0.0,0.0,0.0,-5.7881,-5.7881,-5.7273,-5.7273,-5.7881,-5.7881,-5.7881,-5.7881,-5.7881,-5.7881,-5.7881,-5.7881,-5.7881,0.0,0.0,-5.7881,-5.7881,-5.7881,-5.7881,-5.7881,-5.7881,-5.7881,-5.7915,-5.8017,-5.8524,-5.937,0.0,0.0,0.0,0.0,0.0,0.0,0.0,0.0,0.0,0.0,0.0,0.0,0.0,0.0,0.0,0.0,0.0,0.0,0.0,0.0,-2.8918,-2.9221,-2.9819,-2.9768,-2.8818,-2.9748,-2.9643,-2.8349,-2.9127,-2.9296,-2.8872,-2.9364,-2.9233,-2.8619,-2.9145,-2.9394,-2.9406,-2.8487,-2.8107,-2.8082,0.0,0.0,0.0,0.0,0.0,0.0,0.0,0.0,0.0,0.0,-2.6836,-2.6956,-2.5944,0.0,0.0,0.0,0.0,0.0,-2.8161,-3.0303,-3.2341,-3.2848,-3.2679,-3.2273,-3.1887,-3.1495,-3.1292,-3.1718,0.0,0.0,0.0,0.0,0.0,0.0,0.0,0.0,0.0,0.0,0.0,0.0,0.0,0.0,0.0,0.0,0.0,0.0,0.0,0.0,0.0,0.0,-5.7137,-5.6731,-5.6393,-5.6393,-5.6697,-5.6697,-5.7103,-5.7881,-5.7881,-5.7881,-5.7881,-5.7881,-5.7881,-5.7881,0.0,-5.7881,-5.7881,-5.7881,-5.7881,-5.7881,-5.7881,-5.7881,-5.7949,-5.8355,-5.8727,-5.9167,0.0,0.0,0.0,0.0,0.0,0.0,0.0,0.0,0.0,0.0,0.0,0.0,0.0,0.0,0.0,0.0,0.0,0.0,0.0,0.0,-2.8315,-2.8094,-2.9123,-2.9456,-2.8959,-3.0241,-3.0006,-2.806,-2.8856,-2.8755,-2.7824,-2.9379,-2.9702,-2.9025,-2.9729,-3.0145,-3.0213,-2.8996,-2.8487,-2.8439,0.0,0.0,0.0,0.0,0.0,0.0,0.0,0.0,0.0,0.0,0.0,0.0,0.0,0.0,0.0,-2.5053,-2.5691,-2.6671,-2.805,-2.9786,-3.161,-3.3321,-3.3446,-3.3333,-3.3977,-3.3419,-3.3097,-3.4382,0.0,0.0,0.0,0.0,0.0,0.0,0.0,0.0,0.0,0.0,0.0,0.0,0.0,0.0,0.0,0.0,0.0,0.0,0.0,0.0,0.0,0.0,-5.6292,-5.575,-5.5547,-5.5547,-5.5681,-5.5547,-5.6089,-5.7374,-5.7543,-5.7645,-5.7645,-5.7814,-5.7881,-5.7881,-5.7881,-5.7881,-5.7881,-5.7881,-5.7881,-5.7881,-5.7881,-5.7881,-5.7949,-5.8524,-5.8761,-5.8863,0.0,0.0,0.0,0.0,0.0,0.0,0.0,0.0,0.0,0.0,0.0,0.0,0.0,0.0,0.0,0.0,0.0,0.0,0.0,0.0,-2.8206,-2.7474,-2.8136,-2.841,-2.8194,-2.9504,-2.977,-2.8908,-2.9668,-2.9244,-2.7824,-2.9379,-2.9702,-2.9025,-2.9198,-2.965,-3.0213,-2.8996,-2.8487,-2.8439,-2.7835,0.0,0.0,0.0,0.0,0.0,0.0,0.0,0.0,0.0,0.0,0.0,0.0,0.0,-2.6452,-2.6452,-2.6324,-2.6554,-2.8077,-2.9816,-3.1254,-3.1461,-3.1945,-3.3644,-3.8443,-3.8371,-3.8129,-4.0972,-4.1001,0.0,0.0,0.0,0.0,0.0,0.0,0.0,0.0,0.0,0.0,0.0,0.0,0.0,0.0,0.0,0.0,0.0,0.0,0.0,0.0,0.0,0.0,-5.5681,-5.504,-5.5006,-5.5681,-5.5006,-5.5074,-5.5886,-5.6562,-5.6867,-5.69,-5.7577,-5.7881,-5.7881,-5.7881,-5.7881,-5.7881,-5.7881,-5.7881,-5.7881,-5.7881,-5.7881,-5.7881,-5.7949,-5.7983,-5.8084,0.0,0.0,0.0,0.0,0.0,0.0,0.0,0.0,0.0,0.0,0.0,0.0,0.0,0.0,0.0,0.0,0.0,0.0,0.0,-2.752,-2.8123,-2.7316,-2.7883,-2.8122,-2.7922,-2.8567,-2.8714,-2.8247,-2.8534,-2.8128,-2.7165,-2.9142,-2.9702,-2.9044,-3.0017,-3.0355,-3.0162,-2.9794,-2.9349,-2.8876,-2.8372,-2.8149,0.0,0.0,0.0,0.0,0.0,0.0,0.0,0.0,-2.7255,-2.7435,-2.6602,-2.6452,-2.6422,-2.5615,-2.6413,-2.7689,-2.8269,-3.1123,-3.4069,-3.4611,-3.4887,-3.5704,-3.8183,-3.9009,-3.9789,-4.1861,-4.2455,0.0,0.0,0.0,0.0,0.0,0.0,0.0,0.0,0.0,0.0,0.0,0.0,0.0,0.0,0.0,0.0,0.0,0.0,0.0,0.0,0.0,0.0,-5.4363,-5.4059,-5.4059,-5.4329,-5.4059,-5.4059,-5.4363,-5.6021,-5.6799,-5.6833,-5.7543,-5.7881,-5.7881,-5.7881,-5.7645,-5.7205,-5.7205,-5.7205,-5.7273,-5.7712,-5.7881,-5.7881,-5.7881,-5.7881,-5.7915,0.0,0.0,0.0,0.0,0.0,0.0,0.0,0.0,0.0,0.0,0.0,0.0,0.0,0.0,0.0,0.0,0.0,0.0,-2.5292,-2.7103,-2.7845,-2.6998,-2.7581,-2.7905,-2.7946,-2.7883,-2.7725,-2.7452,-2.7689,-2.7418,-2.6759,-2.9025,-2.9837,-2.9382,-3.0161,-3.048,-3.0441,-3.0074,-2.965,-2.9173,-2.8894,-2.8677,0.0,0.0,0.0,0.0,0.0,0.0,0.0,0.0,-2.6752,-2.6836,-2.5884,-2.6063,-2.6471,-2.575,-2.6514,-2.7785,-2.8467,-3.1194,-3.4146,-3.5419,-3.6755,-3.8228,-3.9986,-4.0583,-4.1681,-4.4829,-4.55,-4.5635,-4.5974,0.0,0.0,0.0,0.0,0.0,0.0,0.0,0.0,0.0,0.0,0.0,0.0,0.0,0.0,0.0,0.0,0.0,0.0,0.0,0.0,0.0,-5.3518,-5.3518,-5.3518,-5.3518,-5.3518,-5.3518,-5.5277,-5.6122,-5.6122,-5.7103,-5.7543,-5.7543,-5.7543,-5.7273,-5.6799,-5.6562,-5.6596,-5.6867,-5.7611,-5.7881,-5.7881,-5.7881,-5.7881,-5.7881,0.0,0.0,0.0,0.0,0.0,0.0,0.0,0.0,0.0,0.0,0.0,0.0,0.0,0.0,0.0,0.0,0.0,0.0,-2.4664,-2.6482,-2.7279,-2.6541,-2.7153,-2.7717,-2.8174,-2.7481,-2.6975,-2.6691,-2.7418,-2.7418,-2.6759,-2.9025,-3.0108,-3.0074,-2.9348,-2.9822,-3.1103,-2.9762,-2.9189,-2.9214,-2.9361,-2.9042,-2.8511,0.0,0.0,0.0,0.0,0.0,0.0,0.0,-2.6153,-2.5615,-2.5585,-2.6063,-2.6717,-2.7319,-2.6816,-2.6506,-2.8665,-2.9702,-3.0697,-3.2916,-3.6817,-4.111,-4.4857,-4.3972,-4.4245,-5.0919,-5.1116,-4.9424,-4.7225,0.0,0.0,0.0,0.0,0.0,0.0,0.0,0.0,0.0,0.0,0.0,0.0,0.0,0.0,0.0,0.0,0.0,0.0,0.0,0.0,0.0,-5.3518,-5.3518,-5.3518,-5.3518,-5.3518,-5.3518,-5.4228,-5.4566,-5.4634,-5.6122,-5.6799,-5.6799,-5.6799,-5.6799,-5.6731,-5.6021,-5.6122,-5.6867,-5.7577,-5.7881,-5.7881,-5.7881,-5.7881,-5.7881,0.0,0.0,0.0,0.0,0.0,0.0,0.0,0.0,0.0,0.0,0.0,0.0,0.0,0.0,0.0,0.0,0.0,0.0,-2.6004,-2.7016,-2.7467,-2.7141,-2.7718,-2.7901,-2.7492,-2.714,-2.6869,-2.6691,-2.7418,-2.7418,-2.6759,-2.9025,-2.9837,-2.933,-2.9634,-2.9736,-2.9668,-2.9768,-2.9542,-2.9068,-2.9202,-2.9221,-2.9034,0.0,0.0,0.0,0.0,0.0,0.0,0.0,0.0,0.0,-2.5053,-2.5621,-2.6504,-2.6722,-2.821,-3.0031,-3.121,-3.4275,0.0,-3.7932,0.0,0.0,0.0,-4.5963,-4.6481,0.0,-5.0811,-5.0507,-4.9323,0.0,0.0,0.0,0.0,0.0,0.0,0.0,0.0,0.0,0.0,0.0,0.0,0.0,0.0,0.0,0.0,0.0,0.0,0.0,0.0,0.0,-5.3518,-5.3518,-5.3518,-5.3518,-5.3518,-5.3518,-5.3721,-5.4093,-5.4634,-5.5581,-5.6055,-5.6055,-5.6055,-5.575,-5.5243,-5.5006,-5.5378,-5.6122,-5.6833,-5.7442,-5.7881,-5.7881,-5.7881,-5.7881,0.0,0.0,0.0,0.0,0.0,0.0,0.0,0.0,0.0,0.0,-2.3281,-2.3212,0.0,0.0,0.0,0.0,0.0,0.0,0.0,-2.7225,-2.7557,-2.7419,-2.7798,-2.7848,-2.7595,-2.7199,-2.7186,-2.7622,-2.8044,-2.8044,-2.7656,-2.933,-3.0006,-2.989,-3.0345,-3.0277,-2.9924,-3.0649,-3.0378,-2.948,-2.9847,-2.9716,-2.9232,0.0,0.0,0.0,0.0,0.0,0.0,0.0,0.0,0.0,-2.4306,-2.5211,-2.6448,-2.6397,-2.878,-3.1483,-3.1865,-3.5765,0.0,-4.0392,-4.2868,-4.5607,-4.7293,0.0,0.0,0.0,0.0,-5.1522,0.0,0.0,0.0,0.0,0.0,0.0,0.0,0.0,0.0,0.0,0.0,0.0,0.0,0.0,0.0,0.0,0.0,0.0,0.0,0.0,0.0,0.0,-5.3518,-5.3518,-5.3518,-5.3518,-5.3518,-5.3518,-5.3518,-5.3721,-5.4194,-5.4938,-5.5277,-5.5277,-5.5277,-5.4837,-5.4194,-5.4465,-5.4871,-5.5378,-5.6393,-5.707,-5.7476,-5.778,-5.7881,-5.7881,0.0,0.0,0.0,0.0,0.0,0.0,0.0,0.0,0.0,0.0,-2.361,-2.361,0.0,0.0,0.0,0.0,0.0,0.0,0.0,0.0,-2.7557,-2.7419,-2.7349,-2.7589,-2.8115,-2.7523,-2.7817,-2.9022,-2.9093,-2.9077,-2.901,-2.9905,-3.0615,-3.119,-3.119,-3.119,-3.1224,-3.1853,-3.1326,-3.0156,-3.0886,-3.0436,-2.9288,-2.9288,0.0,0.0,0.0,0.0,0.0,0.0,0.0,0.0,-2.3759,-2.4981,-2.6424,-2.6488,-2.8774,-3.1371,-3.1625,-3.5318,-3.9512,-4.1271,-4.506,0.0,-4.9255,-5.098,-5.2334,-5.2063,0.0,0.0,0.0,0.0,0.0,0.0,0.0,0.0,0.0,0.0,0.0,0.0,0.0,0.0,0.0,0.0,0.0,0.0,0.0,0.0,0.0,0.0,0.0,0.0,-5.3518,-5.3518,-5.3518,-5.3518,-5.3518,0.0,-5.3518,-5.3518,-5.3518,-5.4194,-5.4499,-5.4499,-5.4499,-5.4126,-5.3551,-5.4228,-5.4532,-5.4735,-5.6089,-5.6697,-5.6867,-5.7543,-5.7814,-5.7881,0.0,0.0,0.0,0.0,0.0,0.0,0.0,0.0,0.0,0.0,0.0,0.0,0.0,0.0,0.0,0.0,0.0,0.0,0.0,0.0,-2.736,-2.682,-2.6277,-2.65,-2.753,-2.795,-2.849,-2.9231,-2.9667,-2.9567,-2.9044,-3.0939,-3.1616,-3.119,-3.119,-3.119,-3.1157,-3.0751,-3.0412,-3.0156,-3.0886,-3.0737,-3.0046,-3.0046,-2.9524,0.0,0.0,0.0,0.0,0.0,0.0,0.0,-2.5016,-2.5371,-2.5954,-2.7487,-2.9197,-3.1335,-3.47,-3.7675,0.0,0.0,-4.8511,-5.1555,-5.2367,-5.2909,-5.257,0.0,0.0,0.0,0.0,0.0,0.0,0.0,0.0,0.0,0.0,0.0,0.0,0.0,0.0,0.0,0.0,0.0,0.0,0.0,0.0,0.0,0.0,0.0,0.0,-5.3518,-5.3518,-5.3518,-5.3518,-5.3518,-5.3518,0.0,-5.3518,-5.3518,-5.3518,-5.3653,-5.3754,-5.3754,-5.3754,-5.3653,-5.3518,-5.3687,-5.4093,-5.4634,-5.4938,-5.5784,-5.6833,-5.6968,-5.7408,-5.7881,0.0,0.0,0.0,0.0,0.0,0.0,0.0,0.0,0.0,0.0,0.0,0.0,0.0,0.0,0.0,0.0,0.0,0.0,0.0,0.0,-2.7165,-2.6153,-2.5166,-2.5368,-2.6946,-2.7572,-2.8702,-3.0306,-3.0885,-3.1123,-3.1123,-3.1921,-3.2462,-3.278,-3.3152,-3.2713,-3.1765,-3.2442,-3.2138,-3.1157,-3.119,-3.1234,-3.1224,-3.089,-3.0141,-2.921,-2.8212,0.0,0.0,0.0,0.0,0.0,0.0,0.0,-2.6483,-2.7147,-2.8786,-3.1103,-3.4295,0.0,0.0,-4.7056,0.0,-5.1894,-5.23,-5.2401,-5.1961,0.0,0.0,0.0,0.0,0.0,0.0,0.0,0.0,0.0,0.0,0.0,0.0,0.0,0.0,0.0,0.0,0.0,0.0,0.0,0.0,0.0,0.0,-5.2604,-5.2401,-5.2401,-5.2401,-5.2401,-5.2401,-5.2739,-5.2942,-5.2942,-5.3315,-5.3518,-5.3518,-5.3518,-5.3518,-5.3518,-5.3518,-5.3518,-5.3518,-5.3518,-5.3721,-5.4093,-5.4465,-5.5277,-5.6325,-5.6664,-5.7273,-5.7881,0.0,0.0,0.0,0.0,0.0,0.0,0.0,0.0,0.0,0.0,0.0,0.0,0.0,0.0,0.0,0.0,0.0,0.0,0.0,0.0,0.0,-2.5824,-2.4597,-2.4714,-2.6324,-2.7158,-2.8725,-3.1079,-3.2018,-3.3051,-3.4167,-3.3288,-3.3525,-3.4709,-3.5329,-3.4573,-3.3004,-3.4709,-3.4438,-3.2835,-3.2341,-3.2462,-3.2801,-3.2171,-3.1221,-3.0153,-2.9806,0.0,0.0,0.0,0.0,0.0,0.0,0.0,-2.7451,-2.6884,-2.8294,-3.0506,-3.2791,0.0,-4.2895,-4.8342,-5.0371,0.0,-5.1183,-5.1185,0.0,0.0,0.0,0.0,0.0,0.0,0.0,0.0,0.0,0.0,0.0,0.0,0.0,0.0,0.0,0.0,0.0,0.0,0.0,0.0,0.0,0.0,-5.2097,-5.1555,-5.1185,-5.1185,-5.1185,-5.1185,-5.1185,-5.1826,-5.2131,-5.2131,-5.2773,-5.3179,-5.3281,-5.3281,-5.3382,-5.3518,-5.3518,-5.3518,-5.3518,-5.3518,-5.3518,-5.3551,-5.416,-5.4871,-5.5615,-5.6359,-5.707,-5.7712,0.0,0.0,0.0,0.0,0.0,0.0,0.0,0.0,0.0,0.0,-2.4485,-2.4485,0.0,0.0,0.0,0.0,0.0,0.0,0.0,0.0,0.0,-2.6452,-2.5734,-2.5428,-2.5701,-2.7394,-2.8737,-2.9726,-3.2117,-3.4641,-3.728,-3.5836,-3.5261,-3.5464,-3.5566,-3.543,-3.5126,-3.4776,-3.4844,-3.5194,-3.5791,-3.569,-3.516,-3.5059,-3.4496,-3.3578,-3.1843,-3.1089,0.0,0.0,-2.915,0.0,0.0,0.0,0.0,-2.8702,-2.8642,-2.9224,-3.2521,0.0,-4.3916,0.0,-4.9221,-5.0405,0.0,0.0,0.0,0.0,0.0,0.0,0.0,0.0,0.0,0.0,0.0,0.0,0.0,0.0,0.0,0.0,0.0,0.0,0.0,0.0,0.0,0.0,0.0,0.0,-5.132,-5.1219,-5.1185,-5.1185,-5.1185,-5.1185,-5.1185,-5.1319,-5.1352,-5.1352,-5.1488,-5.186,-5.2469,-5.2469,-5.2841,-5.3518,-5.3518,-5.3518,-5.3518,-5.3518,-5.3518,-5.3518,-5.3619,-5.4093,-5.4837,-5.5581,-5.6325,-5.7036,0.0,0.0,0.0,0.0,0.0,0.0,0.0,0.0,0.0,0.0,0.0,-2.4754,0.0,0.0,0.0,0.0,0.0,0.0,0.0,0.0,0.0,-2.6063,-2.5764,-2.5615,-2.5615,-2.7465,-2.9198,-3.0674,-3.255,-3.518,-3.8497,-3.8261,-3.8125,-3.8091,-3.7686,-3.7043,-3.6265,-3.6366,-3.6366,-3.6265,-3.6163,-3.5926,-3.5633,-3.6096,-3.552,-3.4484,-3.4488,-3.4205,0.0,0.0,0.0,-3.2085,-3.0495,0.0,0.0,0.0,-2.8735,-2.8959,-3.2454,-3.7381,-4.2049,0.0,-4.6515,-4.8342,-4.8646,0.0,0.0,0.0,0.0,0.0,0.0,0.0,0.0,0.0,0.0,0.0,0.0,0.0,0.0,0.0,0.0,0.0,0.0,0.0,0.0,0.0,0.0,-5.0168,-5.0574,-5.0202,-4.9965,-4.9965,-4.9965,-4.9965,-4.9965,-5.0371,-5.0811,-5.1185,-5.1185,-5.1386,-5.1691,-5.1691,-5.2367,-5.3518,-5.3518,-5.3518,-5.3518,-5.3518,-5.3518,-5.3518,-5.3518,-5.3957,-5.4668,-5.5446,-5.619,-5.69,0.0,0.0,0.0,0.0,0.0,0.0,0.0,0.0,0.0,0.0,0.0,0.0,0.0,0.0,0.0,0.0,0.0,0.0,0.0,0.0,0.0,-2.5884,-2.5854,-2.5854,-2.5854,-2.7592,-2.943,-3.1325,-3.2579,-3.5124,-3.8734,-3.9276,-3.9943,-4.062,-3.9884,-3.8734,-3.7405,-3.7956,-3.7956,-3.754,-3.6569,-3.6276,-3.6468,-3.6502,-3.5893,-3.5238,-3.6389,0.0,0.0,0.0,0.0,0.0,0.0,0.0,0.0,0.0,0.0,0.0,0.0,0.0,-3.9377,-4.1271,-4.3572,-4.5568,0.0,0.0,0.0,0.0,0.0,0.0,0.0,0.0,0.0,0.0,0.0,0.0,0.0,0.0,0.0,0.0,0.0,0.0,0.0,0.0,0.0,0.0,0.0,-4.9255,-4.9796,-4.9289,-4.9018,-4.9018,-4.9018,-4.9018,-4.9018,-4.956,-5.0101,-5.0642,-5.0642,-5.0744,-5.0913,-5.0913,-5.1758,-5.3213,-5.3213,-5.3315,-5.3518,-5.3518,-5.3518,-5.3518,-5.3518,-5.3822,-5.4397,-5.5141,-5.5784,-5.6359,0.0,0.0,0.0,0.0,0.0,0.0,0.0,0.0,0.0,0.0,0.0,0.0,-2.6452,-2.7165,-2.7285,-2.6656,0.0,0.0,0.0,0.0,0.0,-2.6572,-2.6542,0.0,-2.6542,-2.7806,-2.9187,-3.0564,-3.1838,-3.4336,-3.7956,-3.799,-3.9512,-4.2151,-4.1407,-4.0257,-3.887,-3.8937,-3.9334,-3.9808,-3.8362,-3.8193,-3.8599,-3.6468,-3.6096,-3.6694,0.0,0.0,0.0,0.0,0.0,0.0,0.0,0.0,0.0,0.0,0.0,0.0,0.0,-3.4585,0.0,-3.9503,-4.0865,0.0,0.0,0.0,0.0,0.0,0.0,0.0,0.0,0.0,0.0,0.0,0.0,0.0,0.0,0.0,0.0,0.0,0.0,0.0,0.0,0.0,0.0,0.0,0.0,-4.9018,-4.9052,-4.9018,-4.9018,-4.9018,-4.9018,-4.9018,-4.9018,-4.9052,-4.9086,-4.912,-4.912,-4.9492,-5.0135,-5.0135,-5.0947,-5.2367,-5.2367,-5.2807,-5.3518,-5.3518,-5.3518,-5.3518,-5.3518,-5.3518,-5.3653,-5.4397,-5.4668,-5.4803,0.0,0.0,0.0,0.0,0.0,0.0,0.0,0.0,0.0,0.0,0.0,0.0,0.0,-2.7465,-2.7495,-2.7255,-2.7465,0.0,0.0,0.0,0.0,-2.6004,-2.6363,-2.6602,-2.6602,-2.7478,-2.8989,-3.1197,-3.1619,-3.391,-3.7922,-3.7922,-3.8734,-4.0189,-4.0899,-4.0899,-4.0392,-3.991,-3.9876,-4.0011,-3.9005,-3.8193,-3.7574,-3.7212,0.0,0.0,0.0,0.0,0.0,0.0,0.0,0.0,0.0,0.0,0.0,0.0,0.0,0.0,0.0,0.0,0.0,-3.5757,-3.7449,0.0,0.0,0.0,0.0,0.0,0.0,0.0,0.0,0.0,0.0,0.0,0.0,0.0,0.0,0.0,0.0,0.0,0.0,0.0,0.0,0.0,0.0,0.0,0.0,0.0,-4.8984,-4.9018,-4.9018,-4.9018,-4.9018,-4.9018,-4.9018,-4.9018,-4.9018,-4.9018,-4.9018,-4.9154,-4.939,-4.939,-4.9932,-5.0879,-5.0879,-5.1894,-5.3518,-5.3518,-5.3518,-5.3518,-5.3518,-5.3518,-5.3585,-5.4329,-5.46,-5.4702,0.0,0.0,0.0,0.0,0.0,0.0,0.0,0.0,0.0,-2.5854,0.0,0.0,0.0,0.0,-2.7165,-2.6956,-2.6926,-2.6746,-2.6273,-2.6662,-2.6422,-2.5292,-2.5704,-2.5944,-2.5944,-2.6572,-2.8216,-3.0899,-3.0829,-3.2976,-3.7121,-3.6874,-3.755,-3.9039,-4.002,-4.046,-4.0426,-3.9943,-3.9876,-4.0011,-3.8759,-3.8125,-3.7956,0.0,0.0,0.0,0.0,0.0,0.0,0.0,0.0,0.0,0.0,0.0,0.0,0.0,0.0,0.0,-3.429,0.0,0.0,0.0,0.0,0.0,0.0,0.0,0.0,0.0,0.0,0.0,0.0,0.0,0.0,0.0,0.0,0.0,0.0,0.0,0.0,0.0,0.0,0.0,0.0,0.0,0.0,0.0,0.0,0.0,-4.824,-4.8274,-4.8274,-4.8274,-4.8748,-4.8883,-4.8646,-4.8883,-4.9018,-4.9018,-4.9018,-4.9018,-4.9018,-4.9018,-4.939,-5.0101,-5.0101,-5.1217,-5.3112,-5.3112,-5.3281,-5.3518,-5.3518,-5.3518,-5.3551,-5.4059,-5.4228,-5.4329,0.0,0.0,0.0,0.0,0.0,0.0,0.0,0.0,-2.5854,-2.6512,0.0,0.0,0.0,0.0,0.0,-2.5674,-2.5615,-2.5615,-2.5561,-2.5585,-2.5292,-2.4634,0.0,0.0,-2.4634,-2.5285,-2.6888,-2.9486,-2.9451,-3.1536,-3.5532,-3.4844,-3.6062,-3.8903,-3.8937,-3.8971,-3.8971,-3.9005,-3.9469,-3.991,0.0,-3.8227,-4.013,0.0,0.0,0.0,-4.2868,-4.2963,0.0,-4.2422,0.0,0.0,0.0,0.0,0.0,0.0,0.0,0.0,0.0,0.0,0.0,0.0,0.0,0.0,0.0,0.0,0.0,0.0,0.0,0.0,0.0,0.0,0.0,0.0,0.0,0.0,0.0,0.0,0.0,0.0,0.0,0.0,0.0,0.0,0.0,0.0,0.0,-4.6786,-4.6786,-4.6786,-4.6786,-4.6786,-4.8173,-4.8612,-4.7872,-4.8612,-4.8984,-4.8984,-4.8984,-4.9018,-4.9018,-4.9018,-4.939,-5.0067,-5.0067,-5.0879,-5.2232,-5.2266,-5.2773,-5.3484,-5.3484,-5.3518,-5.3518,-5.3518,-5.3518,-5.3619,0.0,0.0,0.0,0.0,0.0,0.0,-2.6428,-2.6399,-2.6393,0.0,0.0,0.0,-2.6866,-2.6692,-2.6333,-2.5674,-2.6033,-2.5914,-2.4933,-2.5322,-2.5292,-2.4634,-2.4605,-2.4844,-2.5292,-2.5925,-2.7342,-2.9486,-3.0402,-3.2221,-3.481,-3.4607,-3.5216,-3.6603,-3.7719,-3.8193,-3.8261,-3.9343,-3.991,-4.0079,-4.002,-4.0358,0.0,0.0,0.0,0.0,0.0,-4.4012,-4.4739,0.0,-4.3796,-4.2625,0.0,0.0,0.0,0.0,0.0,0.0,-3.8091,0.0,0.0,0.0,0.0,0.0,0.0,0.0,0.0,0.0,0.0,0.0,0.0,0.0,0.0,0.0,0.0,0.0,0.0,0.0,0.0,0.0,0.0,0.0,0.0,0.0,0.0,0.0,-4.6007,-4.6244,-4.6752,-4.6786,-4.6786,-4.6786,-4.7192,-4.7293,-4.709,-4.7834,-4.8176,-4.821,-4.8748,-4.9018,-4.9018,-4.9018,-4.912,-4.9289,-4.9289,-4.983,-5.0777,-5.186,-5.2435,-5.2706,-5.3281,-5.3518,-5.3518,-5.3518,-5.3518,-5.3551,0.0,0.0,0.0,0.0,0.0,-2.6243,-2.6926,-2.7016,-2.6926,0.0,0.0,0.0,-2.5824,-2.6243,-2.6093,-2.4866,-2.5136,-2.5016,-2.4216,-2.4567,-2.4597,-2.4186,-2.4186,-2.4388,-2.4777,-2.5379,-2.6683,-2.8713,-2.9674,-3.1517,-3.4108,-3.4059,-3.4776,-3.6163,-3.7381,-3.8058,-3.843,-3.9605,0.0,0.0,-4.0832,0.0,0.0,-4.3301,-4.4079,0.0,0.0,0.0,-4.6997,-4.6277,-4.5522,0.0,0.0,0.0,0.0,0.0,0.0,0.0,0.0,0.0,0.0,0.0,0.0,0.0,0.0,-3.4404,0.0,0.0,0.0,0.0,0.0,0.0,0.0,0.0,0.0,0.0,0.0,0.0,0.0,0.0,0.0,0.0,0.0,0.0,0.0,-4.4654,-4.4756,-4.506,-4.5838,-4.6177,-4.621,-4.5901,-4.6481,-4.665,-4.6346,-4.709,-4.7597,-4.7906,-4.8342,-4.8714,-4.9018,-4.9018,-4.9018,-4.9018,-4.9018,-4.9424,-5.0168,-5.1352,-5.2029,-5.2367,-5.3179,-5.3518,-5.3518,-5.3518,-5.3518,-5.3551,0.0,0.0,0.0,-2.6183,-2.6542,-2.6896,-2.7405,-2.7495,-2.7315,0.0,-2.6765,-2.6363,-2.5167,-2.6092,-2.6008,-2.3999,-2.3969,-2.3909,-2.361,-2.3819,-2.3879,-2.3729,-2.3789,-2.3819,-2.3819,-2.4522,-2.5788,-2.7572,-2.8369,-3.0315,-3.3367,-3.3537,-3.4742,-3.6728,-3.7618,0.0,-3.9039,0.0,0.0,-4.2185,-4.1068,-4.232,0.0,0.0,-4.6955,-4.7192,-4.8443,-4.8951,-4.8748,-4.7192,-4.6718,0.0,0.0,0.0,0.0,0.0,-4.2422,0.0,0.0,0.0,0.0,0.0,0.0,0.0,-3.3085,-3.3897,-3.516,0.0,0.0,0.0,0.0,0.0,0.0,0.0,0.0,0.0,0.0,0.0,0.0,0.0,0.0,0.0,0.0,-4.2117,-4.2455,-4.3132,-4.3308,-4.3707,-4.4445,-4.5162,-4.5263,-4.4615,-4.5872,-4.6244,-4.5602,-4.6312,-4.7056,-4.78,-4.7838,-4.8308,-4.9018,-4.9018,-4.9018,-4.9018,-4.9018,-4.9424,-5.0135,-5.0913,-5.1657,-5.2367,-5.3179,-5.3518,-5.3518,-5.3518,-5.3518,-5.3585,0.0,0.0,0.0,-2.5143,-2.6333,-2.7255,-2.6866,-2.6806,-2.6956,-2.7345,-2.7893,-2.813,-2.7852,-2.8068,-2.7401,-2.5392,-2.6207,-2.5908,-2.3729,-2.5106,-2.5525,-2.4455,-2.4903,-2.5226,-2.5226,-2.6359,-2.7141,-2.7526,-2.9738,-3.1155,-3.1891,-3.4108,-3.5397,-3.5904,-3.7889,-3.887,-3.9039,0.0,0.0,-4.2388,-4.3362,0.0,-4.6447,-4.7361,-4.8071,-4.8545,-4.824,-4.8511,-4.868,0.0,-4.6312,-4.6447,0.0,0.0,0.0,0.0,0.0,0.0,0.0,0.0,0.0,0.0,0.0,0.0,-3.8454,-3.6468,-3.5148,0.0,0.0,0.0,0.0,0.0,0.0,0.0,0.0,0.0,0.0,0.0,0.0,0.0,0.0,0.0,0.0,-4.1068,-4.1474,-4.1644,-4.2726,-4.3443,-4.3639,-4.4384,-4.475,-4.4615,-4.4886,-4.4987,-4.4818,-4.5534,-4.6278,-4.7022,-4.7631,-4.8308,-4.9018,-4.9018,-4.9018,-4.9018,-4.9018,-4.9424,-5.0135,-5.0913,-5.1657,-5.2367,-5.3179,-5.3518,-5.3518,-5.3518,-5.3518,-5.3518,0.0,0.0,-2.6004,-2.5674,-2.6692,-2.7495,-2.7165,-2.7106,-2.7345,-2.8034,-2.9251,-2.9848,-2.9183,-2.9373,-2.9013,-2.7703,-2.7883,-2.7473,-2.6191,-2.7055,-2.7139,-2.6147,-2.6093,-2.6093,-2.6093,-2.6728,-2.7045,-2.7045,-2.9316,-3.0988,-3.2076,-3.4097,-3.5656,-3.6783,-3.8328,-3.9005,0.0,0.0,-4.2076,-4.3498,-4.3842,0.0,-4.5654,-4.6789,-4.7423,-4.7755,-4.7755,-4.8274,-4.8781,-4.7293,-4.7056,0.0,0.0,-4.5128,-4.5128,0.0,-4.4316,-4.3362,0.0,0.0,0.0,-4.1474,0.0,0.0,0.0,-3.6998,-3.5757,0.0,0.0,0.0,0.0,0.0,0.0,0.0,0.0,0.0,0.0,0.0,0.0,0.0,0.0,0.0,0.0,-4.0451,-4.0798,-4.117,-4.2564,-4.3375,-4.3375,-4.4147,-4.4615,-4.4615,-4.4615,-4.4615,-4.4615,-4.4987,-4.55,-4.6244,-4.6989,-4.7733,-4.8477,-4.8849,-4.9018,-4.9018,-4.939,-4.9965,-5.071,-5.1454,-5.2198,-5.2942,-5.3348,-5.3518,-5.3518,-5.3518,-5.3518,-5.3518,0.0,0.0,-2.6063,-2.6363,-2.6956,-2.7375,-2.7225,-2.7225,-2.7685,-2.9021,-3.0727,-3.1773,-3.1648,-3.1454,-3.1352,-3.1472,-3.0026,-2.9265,0.0,-2.92,-2.8724,-2.8185,-2.7645,-2.7245,-2.6977,-2.7095,-2.7076,-2.6806,-2.8568,-3.0456,-3.2514,-3.4014,-3.5846,-3.7922,-3.8667,-3.9242,-3.9749,0.0,0.0,-4.435,0.0,-4.4457,-4.5156,-4.6478,-4.6909,-4.6876,-4.7603,-4.8286,-4.8714,-4.8075,0.0,-4.7454,-4.6287,-4.5689,0.0,0.0,0.0,0.0,0.0,0.0,0.0,0.0,0.0,-4.0933,0.0,0.0,0.0,0.0,0.0,0.0,0.0,0.0,0.0,0.0,0.0,0.0,0.0,0.0,0.0,0.0,0.0,0.0,0.0,-3.9842,-4.035,-4.0933,-4.2219,-4.3064,-4.32,-4.3944,-4.4378,-4.4378,-4.4513,-4.4547,-4.435,-4.4513,-4.5055,-4.594,-4.638,-4.7124,-4.8139,-4.8578,-4.8883,-4.9052,-4.9763,-5.0507,-5.1285,-5.1995,-5.2773,-5.3518,-5.3518,-5.3518,-5.3518,-5.3518,-5.3585,-5.3721,-2.5472,-2.6482,0.0,-2.5914,-2.6273,-2.6512,-2.5914,-2.5824,-2.7167,-3.0839,-3.2054,-3.4212,-3.8546,-3.6166,-3.5308,-3.8038,0.0,0.0,-3.3371,0.0,-3.0273,-3.0256,-3.0129,-2.9501,-2.833,-2.8919,-2.8693,-2.7495,-2.8824,-3.0256,-3.1766,-3.4357,-3.6419,-3.7922,-3.8667,0.0,0.0,0.0,-4.2185,0.0,-4.5635,-4.6862,0.0,-4.8391,-4.8324,-4.7852,-4.856,-4.8486,-4.8007,0.0,-4.7347,-4.6676,0.0,-4.5674,0.0,0.0,0.0,0.0,0.0,0.0,0.0,0.0,-4.3139,0.0,0.0,0.0,-3.8497,0.0,0.0,0.0,0.0,0.0,0.0,0.0,0.0,0.0,0.0,0.0,0.0,0.0,0.0,0.0,0.0,0.0,-4.0146,-4.0214,-4.1001,-4.1745,-4.2388,-4.3132,-4.3511,-4.3511,-4.4215,-4.4248,-4.3511,-4.4215,-4.5326,-4.665,-4.6109,-4.6921,-4.8849,-4.8277,-4.8376,-4.9052,-4.9763,-5.0507,-5.1285,-5.1995,-5.2773,-5.3518,-5.3518,-5.3518,-5.3518,-5.3518,-5.3923,-5.4465,-2.5674,-2.6363,0.0,0.0,-2.6722,0.0,0.0,-2.8068,-2.9637,-3.1432,-3.3232,-3.5759,0.0,0.0,0.0,0.0,0.0,-3.6125,0.0,0.0,0.0,-3.4043,-3.3364,-3.2323,-3.0846,-3.0448,-2.9581,-2.8158,-2.8664,-3.0049,-3.2278,-3.4235,-3.6084,-3.7877,-3.9009,0.0,-4.1136,0.0,-4.3451,0.0,0.0,0.0,0.0,-4.734,-4.7176,-4.7078,-4.8507,-4.8815,-4.8545,0.0,-4.7995,0.0,0.0,0.0,0.0,0.0,0.0,0.0,0.0,0.0,0.0,0.0,0.0,0.0,0.0,0.0,-4.046,0.0,0.0,0.0,0.0,0.0,0.0,0.0,0.0,0.0,0.0,0.0,0.0,0.0,0.0,0.0,0.0,0.0,0.0,0.0,0.0,-4.1068,-4.2219,-4.2997,-4.3612,-4.4079,-4.4445,-4.4445,-4.4079,-4.4418,-4.5156,-4.6143,-4.6278,-4.7056,-4.8376,-4.8477,-4.8951,-4.9661,-5.0405,-5.115,-5.1894,-5.2672,-5.3213,-5.3518,-5.3518,-5.3518,-5.3518,-5.3518,-5.3957,-5.46,-2.6243,0.0,0.0,0.0,0.0,0.0,0.0,0.0,0.0,0.0,0.0,0.0,-4.0638,-3.9654,0.0,0.0,-4.1693,-4.0062,0.0,0.0,-3.7364,0.0,0.0,0.0,0.0,-3.2276,-3.105,-2.9161,-2.9279,-3.0514,-3.2734,-3.429,-3.6014,-3.792,0.0,-4.0201,-4.0822,0.0,0.0,-4.5009,-4.7305,-4.7561,-4.6631,-4.6651,-4.6637,-4.6799,-4.8418,-4.8829,-4.8673,-4.9159,-4.8627,0.0,-4.8754,0.0,0.0,0.0,0.0,0.0,-4.5872,0.0,0.0,0.0,0.0,0.0,0.0,0.0,0.0,0.0,0.0,0.0,0.0,0.0,0.0,0.0,0.0,0.0,0.0,0.0,0.0,0.0,0.0,0.0,0.0,0.0,0.0,0.0,-3.9571,-4.0426,-4.1914,-4.2692,-4.347,-4.4248,-4.4513,-4.4513,-4.4248,-4.4513,-4.506,-4.6007,-4.6346,-4.709,-4.821,-4.8545,-4.9221,-5.0135,-5.0879,-5.1623,-5.2367,-5.3179,-5.3518,-5.3518,-5.3518,-5.3518,-5.3518,-5.3518,-5.4093,-5.4905,-2.7525,-2.7555,0.0,0.0,0.0,0.0,0.0,0.0,0.0,0.0,0.0,0.0,0.0,0.0,0.0,0.0,0.0,-4.2916,-4.4617,0.0,-3.7496,0.0,0.0,-3.6247,0.0,0.0,-3.3785,-3.0545,-3.1171,-3.1911,-3.2734,-3.4786,-3.6545,-3.8084,-3.9471,-4.0849,-4.2257,-4.3905,-4.493,-4.5686,-4.8032,-4.7868,-4.6325,0.0,-4.7719,-4.7704,-4.8639,0.0,0.0,-4.9544,-4.8954,0.0,0.0,0.0,0.0,0.0,0.0,0.0,0.0,0.0,0.0,-4.6549,0.0,0.0,0.0,0.0,-4.3139,0.0,0.0,0.0,0.0,0.0,0.0,0.0,0.0,0.0,0.0,0.0,0.0,0.0,0.0,0.0,0.0,0.0,0.0,-3.6965,-3.8251,-3.9681,-4.117,-4.1914,-4.2658,-4.3436,-4.4181,-4.4215,-4.3443,-4.4215,-4.5326,-4.6752,-4.6075,-4.6887,-4.8951,-4.8274,-4.8748,-5.0135,-5.0879,-5.1623,-5.2367,-5.3179,-5.3518,-5.3518,-5.3518,-5.3518,-5.3518,-5.3518,-5.4431,-5.5647,0.0,0.0,0.0,0.0,0.0,0.0,0.0,-3.0217,0.0,0.0,0.0,0.0,0.0,-4.8263,-4.8977,0.0,0.0,-4.7555,-4.7201,-4.4445,0.0,0.0,0.0,-3.922,0.0,0.0,0.0,0.0,0.0,-3.2027,-3.2683,-3.4345,-3.5884,-3.7297,0.0,-4.0492,0.0,0.0,0.0,0.0,0.0,-4.76,-4.6701,0.0,0.0,-4.6799,-4.7737,-4.8257,0.0,-4.9196,-4.9001,-4.8576,-4.8892,-4.8262,-4.7438,-4.7507,-4.7192,0.0,0.0,0.0,-4.7225,-4.7496,0.0,0.0,0.0,0.0,0.0,0.0,0.0,0.0,0.0,0.0,0.0,0.0,0.0,0.0,0.0,0.0,0.0,0.0,0.0,0.0,0.0,0.0,0.0,-3.7415,-3.7516,-3.8599,0.0,-4.1441,-4.2388,-4.4147,-4.4479,-4.4479,-4.4181,-4.4959,-4.5805,-4.6786,-4.7056,-4.78,-4.9018,-4.9255,-4.9898,-5.0879,-5.1623,-5.2367,-5.3112,-5.3382,-5.3518,-5.3518,-5.3518,-5.3518,-5.3518,-5.3518,-5.4431,-5.5817,-2.8573,0.0,0.0,0.0,0.0,0.0,0.0,0.0,0.0,0.0,-4.2153,0.0,-5.0302,0.0,-5.1598,0.0,-5.1908,-5.0183,-4.8071,-4.6884,0.0,-4.3069,-4.2808,0.0,0.0,0.0,0.0,0.0,0.0,-3.3071,-3.2975,-3.4716,-3.5967,-3.6907,0.0,-4.0718,-4.0766,0.0,-4.4179,0.0,0.0,-4.7181,0.0,0.0,-4.6584,-4.6475,0.0,-4.8257,-4.8545,-4.8892,-4.9018,-4.9018,-4.9018,-4.868,-4.8308,-4.8308,-4.7723,-4.7267,-4.8081,-4.7861,0.0,-4.8149,-4.7902,0.0,-4.665,0.0,0.0,0.0,0.0,0.0,0.0,0.0,0.0,0.0,0.0,0.0,0.0,0.0,0.0,0.0,0.0,0.0,0.0,0.0,-3.5385,-3.6603,-3.6738,-3.798,0.0,0.0,-4.2252,-4.4547,-4.4615,-4.4615,-4.4615,-4.5331,-4.6075,-4.6819,-4.7564,-4.8308,-4.9018,-4.9763,-5.0507,-5.1251,-5.1995,-5.2773,-5.3518,-5.3518,-5.3518,-5.3518,-5.3518,-5.3518,-5.3518,-5.3518,-5.4431,-5.5919,0.0,0.0,0.0,0.0,-2.9352,0.0,0.0,0.0,-3.9124,0.0,-4.4732,-4.8413,-5.0137,-5.2318,-5.3603,-5.3331,-5.2725,0.0,-4.7758,-4.7623,0.0,0.0,-4.3899,-4.3304,-4.0632,0.0,0.0,0.0,0.0,0.0,-3.3707,-3.5764,-3.6759,-3.6967,-4.0606,0.0,-4.0109,-4.3751,-4.4935,-4.4535,-4.6219,-4.6712,-4.642,-4.5793,-4.599,-4.6779,-4.8339,-4.8418,-4.7803,-4.8671,-4.9018,-4.9018,-4.9018,-4.9018,-4.9018,-4.9018,-4.8353,-4.7836,-4.8671,-4.7756,-4.6944,-4.8534,0.0,0.0,0.0,0.0,-4.6786,0.0,0.0,0.0,0.0,0.0,0.0,0.0,0.0,0.0,0.0,0.0,0.0,0.0,0.0,0.0,0.0,-3.5216,-3.5295,-3.4607,-3.5915,-3.7709,0.0,0.0,-4.2185,-4.4479,-4.4581,-4.4615,-4.4649,-4.5399,-4.6109,-4.6853,-4.7597,-4.8342,-4.9086,-4.983,-5.0574,-5.1319,-5.2063,-5.2807,-5.3518,-5.3518,-5.3518,-5.3518,-5.3518,-5.3518,-5.3551,-5.3619,-5.4532,-5.5987,-2.8542,-2.8434,-2.8338,0.0,-3.0043,-3.1195,0.0,0.0,0.0,0.0,-4.74,-5.1247,-5.4586,-5.5707,-5.5761,-5.478,-5.497,0.0,0.0,0.0,0.0,-4.6903,-4.6172,-4.4859,-4.2725,-4.2868,0.0,-3.7893,0.0,0.0,-3.435,-3.5506,-3.632,-3.6934,0.0,0.0,-4.0066,-4.2178,-4.356,-4.4572,-4.7331,-4.768,0.0,0.0,-4.7835,-4.7572,-4.7862,-4.8257,-4.8671,-4.8923,-4.9018,-4.9018,-4.9018,-4.9018,-4.9018,-4.9018,-4.8829,-4.8545,-4.8096,-4.7638,-4.7441,-4.7868,-4.727,-4.683,0.0,0.0,0.0,0.0,0.0,0.0,0.0,0.0,0.0,0.0,0.0,0.0,0.0,0.0,0.0,0.0,0.0,0.0,0.0,-3.5498,-3.5532,-3.5329,-3.5667,-3.6907,0.0,0.0,0.0,-4.3639,-4.4282,-4.4857,-4.5399,-4.6143,-4.6887,-4.7631,-4.8376,-4.912,-4.983,-5.0574,-5.1319,-5.2063,-5.2841,-5.3315,-5.3518,-5.3518,-5.3518,-5.3518,-5.3518,-5.3822,-5.4363,-5.4938,-5.5716,-5.6731,-2.8993,0.0,0.0,-2.9026,0.0,0.0,-3.4045,0.0,0.0,-4.6323,-4.9997,0.0,-5.4422,-5.5577,-5.5748,-5.4431,-5.4401,0.0,-5.1468,0.0,0.0,-4.7938,-4.716,-4.5812,-4.3913,-4.3428,0.0,-3.8629,0.0,0.0,-3.4641,-3.6072,-3.694,0.0,0.0,-4.1708,0.0,-4.2545,-4.3542,-4.4366,-4.6539,0.0,0.0,-4.7665,-4.8376,-4.8793,-4.8232,-4.846,-4.9052,-4.9357,-4.9255,-4.9052,-4.939,-4.9255,-4.9018,-4.9018,-4.8736,-4.8353,-4.8257,-4.7605,-4.7104,-4.7473,-4.7276,-4.7143,-4.7656,-4.7763,-4.7767,0.0,0.0,0.0,0.0,0.0,0.0,0.0,0.0,0.0,0.0,0.0,0.0,0.0,0.0,0.0,0.0,-3.56,-3.56,-3.56,-3.56,0.0,0.0,0.0,0.0,-4.3842,-4.4688,-4.5128,-4.5196,-4.6583,-4.7327,-4.7428,-4.8511,-4.939,-5.0135,-5.0879,-5.1623,-5.2334,-5.3145,-5.3518,-5.3518,-5.3518,-5.3518,-5.3551,-5.3856,-5.4431,-5.5175,-5.5919,-5.6461,-5.7002,-2.9633,0.0,0.0,0.0,0.0,0.0,0.0,-4.251,0.0,-4.8732,0.0,-5.3499,-5.2149,-5.3745,-5.4431,-5.3174,0.0,-5.1798,-5.0524,-5.0435,-4.9598,-4.7758,-4.7608,-4.6591,-4.4496,-4.3419,0.0,0.0,0.0,0.0,-3.5207,-3.7,0.0,0.0,0.0,0.0,0.0,-4.3731,-4.4107,0.0,-4.5277,-4.6125,-4.6651,-4.7044,-4.836,-4.9915,-4.8926,-4.8763,-4.9169,-4.974,-4.9504,-4.9066,-4.9731,-4.9526,-4.9018,-4.9018,-4.8321,-4.777,-4.8576,-4.744,-4.6244,-4.7172,-4.7306,-4.7273,-4.7373,-4.8161,-4.8829,-4.8829,-4.7649,-4.6667,0.0,0.0,0.0,0.0,0.0,0.0,0.0,0.0,0.0,0.0,0.0,0.0,0.0,0.0,0.0,0.0,0.0,0.0,0.0,0.0,0.0,-4.4209,-4.5196,0.0,-4.5055,0.0,-4.7834,-4.7394,-4.868,-4.9661,-5.0405,-5.1048,-5.1758,-5.2503,-5.3213,-5.3518,-5.3518,-5.3518,-5.3551,-5.3721,-5.4566,-5.5277,-5.5953,-5.6664,-5.6934,-5.7171,0.0,0.0,0.0,0.0,0.0,-3.8155,-4.2607,-4.5268,-4.7273,-4.8751,-5.1231,-5.2823,-5.2675,-5.3199,-5.3204,-5.2426,-5.2755,0.0,0.0,0.0,0.0,-4.9747,-4.9224,-4.7728,-4.5185,-4.5074,-4.378,0.0,0.0,0.0,-3.8221,0.0,0.0,0.0,0.0,0.0,-4.3016,-4.3918,0.0,-4.3074,-4.6705,-4.7725,-4.7332,-4.8688,-4.9423,-4.9651,-4.8566,-4.8787,-4.9489,-4.8993,-4.8762,-4.873,-4.9104,-4.912,-4.9018,-4.9018,-4.8321,-4.7638,-4.7803,-4.6486,-4.5264,-4.6208,-4.5885,-4.5488,-4.6279,-4.7172,-4.7836,-4.7836,-4.6709,-4.5963,-4.6697,0.0,0.0,0.0,0.0,0.0,0.0,0.0,0.0,0.0,0.0,0.0,0.0,0.0,0.0,0.0,0.0,0.0,0.0,0.0,0.0,0.0,-4.4654,0.0,0.0,0.0,-4.9357,-5.0439,-5.071,-5.1217,-5.1928,-5.2063,-5.2536,-5.3315,-5.345,-5.3518,-5.3518,-5.3518,-5.3856,-5.4532,-5.5886,-5.6494,-5.6697,-5.7442,-5.7712,-5.7915,0.0,0.0,0.0,0.0,0.0,0.0,0.0,-4.7824,0.0,-4.9581,-5.0628,-5.1243,-5.0999,-5.1977,-5.2396,-5.1738,-5.1678,-5.1528,-5.1199,-5.0541,-4.9883,-4.9254,-4.8596,0.0,-4.5334,-4.5062,-4.3867,-4.1695,0.0,0.0,0.0,0.0,0.0,0.0,0.0,-4.3488,0.0,0.0,0.0,-4.3345,-4.6059,-4.6866,-4.6665,-4.8252,-4.9131,-4.9345,-4.827,-4.8484,-4.9239,-4.905,-4.845,-4.8042,-4.9028,-4.8859,-4.8353,-4.8861,-4.8321,-4.7704,-4.8193,-4.6968,-4.5634,-4.6067,-4.5885,-4.5525,-4.5488,-4.659,-4.744,-4.697,-4.6814,-4.677,-4.6794,-4.5263,0.0,0.0,0.0,0.0,0.0,0.0,0.0,0.0,0.0,0.0,0.0,0.0,0.0,0.0,0.0,0.0,0.0,0.0,0.0,0.0,0.0,0.0,0.0,0.0,0.0,-4.9494,-5.0644,-5.1589,-5.23,-5.23,-5.2739,-5.3518,-5.3518,-5.3518,-5.3551,-5.3923,-5.4262,-5.4735,-5.6224,-5.6799,-5.6934,-5.8051,-5.8457,-5.8626,0.0,-3.394,0.0,0.0,-4.0128,0.0,-4.6207,-4.9171,-5.0927,-5.0633,-5.0495,-5.0212,-4.9553,-5.072,-5.1379,-5.084,-5.0331,-4.9986,-4.9986,-4.9075,-4.8446,-4.8297,-4.7788,-4.683,-4.5334,-4.4796,-4.3741,0.0,0.0,0.0,0.0,0.0,0.0,0.0,0.0,0.0,0.0,0.0,-4.3846,-4.3973,-4.5526,-4.6168,-4.6307,-4.7732,-4.8637,-4.9068,-4.7995,-4.7999,-4.8502,-4.8788,-4.8168,-4.7521,-4.8754,-4.8418,-4.767,-4.8452,-4.8031,-4.7605,-4.8873,-4.7737,-4.6276,-4.6647,-4.6477,-4.5925,-4.5005,-4.6276,-4.734,-4.6384,-4.7111,-4.7571,-4.6477,-4.5616,0.0,0.0,0.0,0.0,0.0,0.0,0.0,0.0,0.0,0.0,0.0,0.0,0.0,0.0,0.0,0.0,0.0,0.0,0.0,0.0,0.0,-4.7124,-4.6413,0.0,-5.0338,0.0,-5.0879,-5.1995,-5.257,-5.257,-5.2909,-5.3518,-5.3518,-5.3585,-5.3788,-5.4532,-5.4938,-5.5175,-5.6528,-5.7137,-5.7408,-5.8592,-5.9099,-5.9336,0.0,0.0,0.0,0.0,0.0,0.0,0.0,-4.7966,-4.9628,-5.176,-5.1498,-5.0823,-5.0166,-4.9793,-4.9569,-4.9509,-4.9449,-4.9389,-4.9389,-4.9269,-4.897,-4.8327,-4.8237,-4.7279,-4.5334,-4.5244,-4.4648,0.0,0.0,0.0,0.0,0.0,0.0,0.0,0.0,0.0,0.0,-4.431,-4.438,-4.4429,-4.6708,-4.7632,-4.7694,-4.8457,-4.8777,-4.8676,-4.7716,-4.7349,-4.7452,-4.7478,-4.7546,-4.7652,-4.7484,-4.7333,-4.7287,-4.7637,-4.707,-4.6892,-4.935,-4.8133,-4.658,-4.8091,-4.732,-4.5925,-4.5005,-4.6276,-4.734,-4.6384,-4.7111,-4.7252,-4.5017,-4.5701,-4.6177,0.0,0.0,0.0,0.0,0.0,0.0,0.0,0.0,0.0,0.0,0.0,0.0,0.0,0.0,0.0,0.0,0.0,0.0,-4.3477,0.0,-4.6819,-4.868,-4.9695,0.0,-5.2976,-5.3179,-5.3315,-5.3382,-5.3382,-5.345,-5.3518,-5.3518,-5.389,-5.4532,-5.531,-5.5987,-5.6664,-5.7476,-5.822,-5.8829,-5.8964,-5.9438,-6.0114,0.0,0.0,0.0,0.0,0.0,0.0,0.0,-4.8534,-4.934,-5.0363,-5.0212,-4.9942,-4.9673,-4.9404,-4.9299,-4.9299,-4.894,-4.8686,-4.8686,-4.8297,-4.7967,-4.7698,-4.7698,-4.713,-4.5933,-4.5514,-4.4951,0.0,0.0,0.0,0.0,0.0,0.0,0.0,0.0,-4.3839,-4.3741,-4.4242,-4.4338,-4.4477,-4.618,-4.6932,-4.6951,-4.7661,-4.7904,-4.7849,-4.7452,-4.7309,-4.7309,-4.7309,-4.7087,-4.6935,-4.7364,-4.7244,-4.7076,-4.7952,-4.7877,-4.7852,-4.962,-4.926,-4.8413,-4.8658,-4.8225,-4.7176,-4.5247,-4.6276,-4.7172,-4.567,-4.5835,-4.6061,-4.5567,-4.5763,-4.5898,0.0,0.0,0.0,0.0,0.0,0.0,0.0,0.0,0.0,0.0,0.0,0.0,0.0,0.0,0.0,0.0,0.0,0.0,-4.5432,0.0,-4.8105,-4.8984,-5.0608,-5.1657,-5.2131,-5.3078,-5.3518,-5.3518,-5.3518,-5.3518,-5.3518,-5.3518,-5.3923,-5.4668,-5.5412,-5.6156,-5.6867,-5.7611,-5.8355,-5.9066,-5.9505,-6.0148,-6.0926,-4.2551,0.0,-4.3031,0.0,-4.5755,-4.6244,-4.8132,-4.8754,-4.897,-4.876,-4.8686,-4.882,-4.9,-4.885,-4.8686,-4.8686,-4.8267,-4.7997,-4.7997,-4.7549,-4.7309,-4.7309,-4.7309,0.0,-4.6279,-4.5633,-4.5031,-4.4488,-4.3528,0.0,0.0,0.0,0.0,0.0,-4.3853,-4.3655,-4.3631,-4.4298,-4.4616,-4.4706,-4.6082,-4.6578,-4.6681,-4.713,-4.7309,-4.7309,-4.7309,-4.7309,-4.7309,-4.7309,-4.701,-4.6689,-4.7169,-4.6946,-4.6801,-4.7877,-4.8246,-4.8554,-4.966,-4.9859,-4.9646,-4.9038,-4.8784,-4.8119,-4.6003,-4.6821,-4.7572,-4.5957,-4.5961,-4.6284,-4.6272,-4.6356,-4.6472,-4.6572,0.0,0.0,0.0,0.0,0.0,0.0,0.0,-4.4722,-4.3132,0.0,0.0,0.0,0.0,0.0,0.0,0.0,0.0,0.0,0.0,0.0,0.0,-5.098,-5.1961,-5.1894,-5.2976,-5.3518,-5.3518,-5.3721,-5.3822,-5.3822,-5.3822,-5.4228,-5.4972,-5.5513,-5.6258,-5.7205,-5.7949,-5.866,-5.9438,-6.0182,-6.096,-6.1738,-4.5831,-4.6458,-4.7049,-4.8399,-4.8646,-4.843,-4.779,-4.8055,-4.8057,-4.7429,-4.7339,-4.7578,-4.8237,-4.7728,-4.7339,-4.7339,-4.7309,-4.7309,-4.7309,-4.7309,-4.7309,0.0,0.0,-4.701,-4.6279,-4.5633,-4.4975,-4.4287,0.0,0.0,-4.3722,0.0,-4.4275,-4.475,-4.4062,-4.3525,-4.3419,-4.4736,-4.5274,-4.5394,-4.6741,-4.7309,-4.7309,-4.7309,-4.7309,-4.7309,-4.7309,-4.7309,-4.7309,-4.7309,-4.7309,-4.7189,-4.6531,-4.6322,-4.6441,-4.705,-4.7705,-4.8505,-4.9468,-4.9678,-4.9632,-4.9373,-4.8943,-4.8353,-4.7405,-4.8133,-4.8702,-4.777,-4.8289,-4.8469,-4.6812,-4.782,-4.848,-4.7022,0.0,0.0,0.0,0.0,0.0,0.0,-4.4615,-4.4615,-4.4581,0.0,0.0,0.0,0.0,0.0,0.0,0.0,0.0,-4.4649,-4.6041,0.0,-4.8984,-5.0473,-5.1995,-5.3484,-5.3484,-5.3518,-5.3518,-5.4262,-5.4566,-5.4566,-5.4566,-5.5006,-5.5716,-5.5681,-5.6562,-5.7949,-5.8693,-5.9438,-6.0182,-6.0994,-6.1738,-6.2482,-4.6681,-4.7056,-4.7208,-4.7661,-4.7722,-4.7661,-4.7462,-4.7525,-4.7549,-4.7339,-4.7309,-4.7399,-4.7608,-4.7429,-4.7309,0.0,-4.7309,-4.7309,0.0,-4.7309,-4.71,-4.6651,-4.6621,-4.6322,-4.5633,-4.4975,-4.4526,-4.4317,0.0,0.0,0.0,-4.4051,-4.4043,-4.3771,-4.3521,-4.3636,-4.4047,-4.4915,-4.5574,-4.6082,-4.695,-4.7309,-4.7309,-4.7309,-4.7309,-4.7309,-4.7309,-4.7309,-4.7309,-4.7309,-4.7309,-4.7279,-4.707,-4.698,-4.7196,-4.8313,-4.8649,-4.8906,-5.0141,-5.0334,-5.0037,-4.9443,-4.9175,-4.8872,-4.8098,-4.7887,-4.7623,-4.6793,-4.6867,-4.67,-4.5564,-4.6806,-4.7732,-4.6736,-4.7771,0.0,0.0,0.0,0.0,0.0,-4.6244,-4.665,0.0,-4.6312,0.0,0.0,0.0,0.0,0.0,0.0,0.0,0.0,-4.956,0.0,-5.1251,-5.1725,-5.2469,-5.3518,-5.4025,-5.4499,-5.5006,-5.4735,-5.4871,-5.5344,-5.4803,-5.531,-5.6461,-5.6461,-5.7036,-5.7949,-5.8727,-5.9471,-6.0216,-6.0994,-6.2076,-6.3193,-4.713,-4.7309,-4.7309,-4.7309,-4.7309,-4.7309,-4.7309,-4.7309,-4.7309,-4.7309,-4.7309,-4.7309,-4.7309,-4.7309,0.0,-4.7309,-4.7309,-4.7309,-4.7309,-4.707,-4.6741,-4.6352,-4.6082,-4.5753,-4.5304,0.0,0.0,-4.4317,-4.3797,-4.3556,-4.3586,-4.3816,-4.3828,-4.3678,-4.3678,-4.4077,-4.4736,-4.5394,-4.5933,-4.6339,-4.704,-4.7309,-4.7309,-4.7309,-4.7309,-4.7309,-4.7309,-4.7309,-4.7309,-4.7309,-4.7309,-4.7309,-4.7309,-4.7309,-4.7473,-4.8442,-4.8764,-4.8898,-4.9501,-4.9738,-4.96,-4.8764,-4.892,-4.9299,-4.9385,-4.8877,-4.805,-4.6831,-4.6682,-4.6419,-4.5488,-4.659,-4.7539,-4.7466,-4.8306,-4.8578,-4.7394,0.0,0.0,0.0,0.0,0.0,0.0,-4.8477,0.0,0.0,0.0,0.0,0.0,0.0,0.0,-5.0371,-5.0881,0.0,-5.1894,-5.2469,-5.301,-5.3518,-5.3957,-5.4735,-5.5647,-5.5243,-5.5412,-5.6089,-5.5615,-5.5953,-5.6799,-5.6799,-5.7239,-5.7983,-5.9032,-5.9708,-6.0216,-6.1298,-6.2482,-6.3565,-4.7309,-4.7309,0.0,0.0,-4.7309,0.0,-4.7309,-4.7309,-4.7309,-4.7309,-4.7309,-4.7309,-4.7309,-4.7309,-4.7309,-4.7309,0.0,0.0,0.0,-4.6681,-4.6249,-4.6219,-4.5603,-4.5214,-4.5155,-4.4556,-4.4257,-4.4257,-4.3589,-4.3319,-4.3349,-4.3349,-4.3708,-4.4377,-4.4377,-4.4736,-4.5394,-4.6052,-4.6309,-4.6399,-4.707,-4.7309,-4.7309,-4.7309,-4.7309,-4.7309,-4.7309,-4.7309,-4.7309,-4.7309,-4.7309,-4.7309,-4.7309,-4.7309,-4.7375,-4.7661,-4.8192,-4.8563,-4.7914,-4.8223,-4.847,-4.7538,-4.8335,-4.966,-5.0928,-5.0647,-4.9623,-4.7755,-4.7521,-4.7372,-4.6343,-4.6968,-4.7966,-4.8767,-4.8954,-4.8748,-4.8007,0.0,0.0,0.0,0.0,0.0,0.0,-5.0304,-5.027,0.0,0.0,0.0,0.0,0.0,-4.9999,-4.9323,-5.0642,-5.1386,-5.1386,-5.2773,-5.3518,-5.3585,-5.3619,-5.4397,-5.5784,-5.5784,-5.619,-5.6867,-5.6833,-5.6833,-5.6867,-5.6867,-5.7273,-5.8051,-5.9505,-6.0114,-6.0283,-6.1806,-6.2888,-6.37,0.0,0.0,-4.7309,-4.7309,-4.7309,-4.7309,-4.7309,-4.7309,-4.7309,-4.7309,-4.7309,-4.7309,-4.7309,-4.7309,-4.7309,-4.7309,-4.7309,-4.7309,-4.7309,-4.6681,-4.6082,-4.5574,-4.4885,-4.4317,-4.3768,-4.3618,-4.3529,-4.3529,-4.3379,-4.3559,-4.4077,-4.4077,-4.4436,-4.5065,-4.5065,-4.5454,-4.6082,-4.6219,-4.6621,-4.71,-4.7249,-4.7309,-4.7309,-4.7309,-4.7309,-4.7309,-4.7309,-4.7309,-4.7309,-4.7309,-4.7309,-4.7309,-4.7309,-4.7309,-4.7465,-4.8286,-4.8129,-4.7746,-4.8409,-4.8087,-4.7624,-4.7352,-4.8748,-5.0252,-5.077,-5.0786,-5.0212,-4.8449,-4.8269,-4.792,-4.6133,-4.7395,-4.8513,-4.7998,-4.8545,-4.8748,-4.8007,-4.8545,0.0,0.0,-4.9898,-5.098,-5.1725,-5.2334,-5.2198,0.0,0.0,0.0,0.0,-5.2164,-5.2604,-5.2435,-5.2773,-5.2976,-5.2976,-5.3315,-5.3788,-5.4329,-5.4905,-5.5683,-5.6562,-5.6562,-5.6934,-5.7611,-5.7036,-5.7103,-5.7645,-5.7645,-5.7712,-5.8051,-5.9505,-6.0114,-6.0283,-6.1806,-6.3226,-6.4377,-4.692,-4.71,-4.7309,-4.7309,-4.7309,-4.7309,-4.7309,-4.7309,-4.7309,-4.7309,-4.7309,-4.7309,-4.7309,-4.7309,-4.7309,-4.7309,-4.7309,-4.7189,-4.686,-4.6232,-4.5544,-4.4885,-4.4227,-4.3648,-4.329,-4.329,-4.329,-4.329,-4.329,-4.3469,-4.3828,-4.4167,-4.4676,-4.5304,-4.5633,-4.6142,-4.677,-4.677,-4.698,-4.7309,-4.7309,-4.7309,-4.7309,-4.7309,-4.7309,-4.7309,-4.7309,-4.7309,-4.7309,-4.7309,-4.7309,-4.7309,-4.7309,-4.7309,-4.7409,-4.7946,-4.7722,-4.7409,-4.7946,-4.7722,-4.7409,-4.7861,-4.9206,-5.0568,-5.1143,-5.1416,-5.1017,-4.9162,-4.9017,-4.874,-4.7193,-4.8274,-4.9223,-4.8791,-4.8906,-4.8748,-4.8007,-4.8545,0.0,-4.9458,-5.0811,-5.1995,-5.2773,-5.3247,-5.3145,-5.2334,0.0,0.0,-5.23,-5.2706,-5.3112,-5.3484,-5.3518,-5.3518,-5.3518,-5.3822,-5.4363,-5.5108,-5.5513,-5.6089,-5.6799,-5.6799,-5.7205,-5.7881,-5.7476,-5.7509,-5.7915,-5.8254,-5.8389,-5.8558,-6.0047,-6.0655,-6.0825,-6.2347,-6.3632,-6.4647,-4.6292,-4.677,-4.7279,-4.7189,-4.7249,-4.7309,-4.7309,-4.7309,-4.7309,-4.7309,-4.7309,-4.7309,-4.7309,-4.7309,-4.7279,-4.716,-4.716,-4.692,-4.6309,-4.5574,-4.4915,-4.4347,-4.3648,-4.329,-4.329,-4.329,-4.329,-4.329,-4.3379,-4.3439,-4.3469,-4.4257,-4.4915,-4.5484,-4.6172,-4.677,-4.7309,-4.7309,-4.7309,-4.7309,-4.7309,-4.7309,-4.7309,-4.7309,-4.7309,-4.7309,-4.7309,-4.7309,-4.7309,-4.7309,-4.7309,-4.7309,-4.7309,-4.7309,-4.7309,-4.7309,-4.7309,-4.7309,-4.7309,-4.7309,-4.7581,-4.8759,-4.9734,-5.0665,-5.1667,-5.2059,-5.1694,-4.9732,-4.9661,-4.9599,-4.8445,-4.9183,-4.9959,-4.9747,-4.9398,-4.8849,-4.7868,0.0,-4.9526,-5.0033,-5.1522,-5.2739,-5.345,-5.3518,-5.3518,-5.3518,-5.2875,-5.2773,0.0,-5.2976,-5.2976,-5.3653,-5.3687,-5.3721,-5.3856,-5.4465,-5.5074,-5.5681,-5.5818,-5.619,-5.6799,-5.6934,-5.7306,-5.7881,-5.8017,-5.8051,-5.8118,-5.8863,-5.9167,-5.9336,-6.0757,-6.1298,-6.1501,-6.299,-6.3971,-6.4715,-4.5603,-4.6441,-4.713,-4.6561,-4.692,-4.7309,-4.7309,-4.7309,-4.7309,-4.7309,-4.7309,-4.7309,-4.7309,-4.7309,-4.707,-4.6531,-4.6471,-4.6399,-4.6279,-4.5155,-4.4436,-4.4317,-4.3648,-4.329,-4.329,-4.329,-4.329,-4.329,-4.3898,-4.4127,-4.4197,-4.5382,-4.6082,-4.6202,-4.686,-4.7219,-4.7309,-4.7309,-4.7309,-4.7309,-4.7309,-4.7309,-4.7309,-4.7309,-4.7309,-4.7309,-4.7309,-4.7309,-4.7309,-4.7309,-4.7309,-4.7309,-4.7309,-4.7309,-4.7309,-4.7309,-4.7309,-4.7309,-4.7309,-4.7309,-4.7764,-4.9655,-5.0281,-5.0665,-5.1667,-5.193,-5.1398,-4.9307,-4.9818,-5.0102,-4.8224,-4.9577,-5.0322,-4.8331,-4.9083,-4.9221,-4.7259,0.0,-5.0676,-5.0135,-5.1995,-5.3382,-5.3484,-5.3518,-5.3518,-5.3518,-5.3382,-5.3382,-5.3484,-5.3957,-5.4296,-5.4431,-5.4431,-5.4735,-5.5378,-5.548,-5.5615,-5.5716,-5.6325,-5.6697,-5.6833,-5.7442,-5.778,-5.7915,-5.8558,-5.8829,-5.8896,-5.9641,-5.9945,-6.0013,-6.0926,-6.1298,-6.1501,-6.299,-6.3971,-6.4715,-4.4885,-4.5843,-4.6681,-4.6339,-4.6561,-4.677,-4.677,-4.677,-4.677,-4.677,-4.71,-4.7309,-4.7309,-4.7309,-4.704,-4.6339,-4.5992,-4.5633,-4.5274,-4.4646,-4.4167,-4.3768,-4.3469,-4.329,-4.329,-4.329,-4.329,-4.329,-4.3589,-4.3738,-4.3768,-4.5155,-4.5783,-4.5813,-4.686,-4.7309,-4.7309,-4.7309,-4.7309,-4.7309,-4.7309,-4.7309,-4.7309,-4.7309,-4.7309,-4.7309,-4.7309,-4.7309,-4.7309,-4.7309,-4.7309,-4.7309,-4.7309,-4.7309,-4.7309,-4.7309,-4.7309,-4.7309,-4.7309,-4.7309,-4.7538,-4.8501,-4.9166,-4.9655,-5.0094,-5.0703,-5.0665,-4.9094,-5.0185,-5.0961,-4.9494,-5.0952,-5.1931,-5.0358,-5.0452,0.0,0.0,-5.0101,-5.1082,-5.0744,-5.2367,-5.3518,-5.3518,-5.3518,-5.3518,-5.3518,-5.3518,-5.3687,-5.4059,-5.4397,-5.4769,-5.5175,-5.5209,-5.5547,-5.6292,-5.6292,-5.6494,-5.69,-5.7239,-5.7374,-5.7408,-5.7746,-5.8118,-5.849,-5.8423,-5.8863,-5.9641,-5.9945,-6.0351,-6.0825,-6.1603,-6.2144,-6.2618,-6.37,-6.4546,-6.529,-4.4227,-4.5263,-4.6219,-4.607,-4.6352,-4.6518,-4.6518,-4.6518,-4.6518,-4.6518,-4.698,-4.7309,-4.7309,-4.7309,-4.698,-4.6142,-4.5603,-4.4945,-4.4137,-4.4227,-4.4077,-4.3529,-4.3529,-4.3439,-4.329,-4.329,-4.329,-4.329,-4.3439,-4.3529,-4.3559,-4.4915,-4.5544,-4.5574,-4.677,-4.7309,-4.7309,-4.7309,-4.7309,-4.7309,-4.7309,-4.7309,-4.7309,-4.7309,-4.7309,-4.7309,-4.7309,-4.7309,-4.7309,-4.7309,-4.7309,-4.7309,-4.7309,-4.7309,-4.7309,-4.7309,-4.7309,-4.7309,-4.7309,-4.7309,-4.7352,-4.7624,-4.821,-4.88,-4.88,-4.9456,-4.9734,-4.8677,-4.9899,-5.0968,-5.0165,-5.1521,-5.2465,-5.1496,0.0,0.0,0.0,-5.075,-5.1555,-5.1725,-5.2942,-5.3822,-5.3991,-5.4025,-5.4025,-5.4025,-5.4025,-5.4262,-5.4837,-5.5006,-5.5446,-5.619,-5.6055,-5.6325,-5.7036,-5.707,-5.7442,-5.8152,-5.8152,-5.8254,-5.8389,-5.8389,-5.8727,-5.9235,-5.8863,-5.9336,-6.0385,-6.0554,-6.0994,-6.1603,-6.2178,-6.2753,-6.3362,-6.4275,-6.4952,-6.5561,-4.3499,-4.4934,-4.6112,-4.5484,-4.6411,-4.7249,-4.7249,-4.7249,-4.7249,-4.7249,-4.7279,-4.7309,-4.7309,-4.7309,-4.677,-4.5484,-4.5334,-4.4766,-4.3439,-4.3988,-4.4287,-4.4257,-4.4257,-4.3958,-4.329,-4.329,-4.329,-4.329,-4.3917,-4.4257,-4.4287,-4.5603,-4.6262,-4.6249,-4.698,-4.7309,-4.7309,-4.7309,-4.7309,-4.7309,-4.7309,-4.7309,-4.7309,-4.7309,-4.7309,-4.7309,-4.7309,-4.7309,-4.7309,-4.7309,-4.7309,-4.7309,-4.7309,-4.7309,-4.7309,-4.7309,-4.7309,-4.7309,-4.7309,-4.7309,-4.7538,-4.846,-4.8759,-4.88,-4.88,-4.8882,-4.8636,-4.7593,-4.8252,-4.9013,-4.8932,-4.9852,-5.0139,-4.8652,0.0,0.0,-4.8891,-5.0727,-5.2503,-5.3247,-5.4025,-5.4803,-5.548,-5.5547,-5.5547,-5.5547,-5.5547,-5.5546,-5.5649,-5.6292,-5.6968,-5.7712,-5.707,-5.707,-5.7814,-5.7814,-5.8186,-5.893,-5.893,-5.9302,-5.9945,-5.9945,-5.9979,-6.0047,-6.0757,-6.1129,-6.1264,-6.1941,-6.2245,-6.2313,-6.2381,-6.2415,-6.2651,-6.4072,-6.4647,-6.4884,-4.3349,-4.4246,-4.5125,-4.5274,-4.5723,-4.6202,-4.6621,-4.6681,-4.6681,-4.6681,-4.704,-4.7309,-4.7309,-4.7309,-4.695,-4.6022,-4.5544,-4.5095,-4.4586,-4.4407,-4.4317,-4.4317,-4.3888,-4.3559,-4.329,-4.329,-4.329,-4.329,-4.3559,-4.3858,-4.4347,-4.5244,-4.5903,-4.6309,-4.701,-4.7309,-4.7309,-4.7309,-4.7309,-4.7309,-4.7309,-4.7309,-4.7309,-4.7309,-4.7309,-4.7309,-4.7309,-4.7309,-4.7309,-4.7309,-4.7309,-4.7309,-4.7309,-4.7309,-4.7309,-4.7309,-4.7309,-4.7309,-4.7309,-4.7309,-4.7366,-4.7764,-4.7861,-4.7861,-4.7861,-4.7861,-4.7764,-4.7366,-4.8115,-4.88,-4.88,-4.9694,-5.0396,-5.0444,0.0,-5.1671,-5.2266,-5.3146,-5.4025,-5.4769,-5.5108,-5.5412,-5.5683,-5.5681,-5.5681,-5.5681,-5.5681,-5.5919,-5.6359,-5.707,-5.7611,-5.7881,-5.7611,-5.7611,-5.7881,-5.8355,-5.8727,-5.9032,-5.9471,-5.9844,-6.0114,-6.0114,-6.0385,-6.0825,-6.0655,-6.1095,-6.1975,-6.1772,-6.1975,-6.2381,-6.2381,-6.2685,-6.3226,-6.4241,-6.4884,-6.5425,-4.329,-4.3977,-4.4766,-4.5214,-4.5484,-4.5843,-4.6531,-4.6471,-4.6411,-4.6621,-4.701,-4.7309,-4.7309,-4.7309,-4.704,-4.6339,-4.5903,-4.5514,-4.5304,-4.4885,-4.4526,-4.4317,-4.3858,-4.3499,-4.329,-4.329,-4.329,-4.329,-4.3499,-4.3947,-4.4646,-4.5304,-4.5992,-4.6651,-4.71,-4.7309,-4.7309,-4.7309,-4.7309,-4.7309,-4.7309,-4.7309,-4.7309,-4.7309,-4.7309,-4.7309,-4.7309,-4.7309,-4.7309,-4.7309,-4.7309,-4.7309,-4.7309,-4.7309,-4.7309,-4.7309,-4.7309,-4.7309,-4.7309,-4.7309,-4.7309,-4.7309,-4.7309,-4.7309,-4.7309,-4.7459,-4.7608,-4.7608,-4.8304,-4.8948,-4.8948,-4.9831,-5.0763,-5.1462,-5.2174,-5.3033,-5.4278,-5.4731,-5.5209,-5.5987,-5.6055,-5.6156,-5.6393,-5.6393,-5.6393,-5.6393,-5.663,-5.707,-5.7814,-5.8321,-5.8592,-5.8592,-5.8592,-5.8592,-5.8592,-5.8626,-5.8896,-5.937,-5.9877,-6.0351,-6.0825,-6.0825,-6.1129,-6.1603,-6.1061,-6.14,-6.2347,-6.1839,-6.1941,-6.2381,-6.2381,-6.2854,-6.3599,-6.4343,-6.5053,-6.5797,-4.329,-4.4377,-4.5274,-4.5304,-4.5873,-4.6488,-4.7189,-4.6741,-4.6561,-4.7219,-4.7309,-4.7309,-4.7309,-4.7309,-4.704,-4.6381,-4.6279,-4.6022,-4.5334,-4.5304,-4.5005,-4.4347,-4.4317,-4.4018,-4.329,-4.329,-4.329,-4.329,-4.3947,-4.4646,-4.5304,-4.5992,-4.6681,-4.7309,-4.7309,-4.7309,-4.7309,-4.7309,-4.7309,-4.7309,-4.7309,-4.7309,-4.7309,-4.7309,-4.7309,-4.7309,-4.7309,-4.7309,-4.7309,-4.7309,-4.7309,-4.7309,-4.7309,-4.7309,-4.7309,-4.7309,-4.7309,-4.7309,-4.7309,-4.7309,-4.7309,-4.7309,-4.7309,-4.7309,-4.7309,-4.7818,-4.8297,-4.8297,-4.885,-4.9299,-4.9299,-5.0184,-5.0867,-5.0909,-5.2684,-5.4063,-5.4133,-5.5043,-5.6021,-5.6731,-5.6833,-5.7103,-5.7814,-5.7915,-5.7915,-5.7915,-5.8592,-5.9336,-6.0047,-6.0114,-6.0114,-6.0114,-6.0114,-6.0114,-6.0114,-5.866,-5.866,-6.0114,-6.0114,-6.0926,-6.2381,-6.2381,-6.2381,-6.2381,-6.2381,-6.2381,-6.2381,-6.2381,-6.2381,-6.2381,-6.2381,-6.2854,-6.3599,-6.4343,-6.5053,-6.5797,-4.3888,-4.4347,-4.4766,-4.5214,-4.5873,-4.6381,-4.6591,-4.683,-4.707,-4.7279,-4.7309,-4.7309,-4.7309,-4.7309,-4.7219,-4.704,-4.6142,-4.5514,-4.5304,-4.5753,-4.5933,-4.5681,-4.4825,-4.4018,-4.329,-4.329,-4.3529,-4.4018,-4.4227,-4.4885,-4.6022,-4.619,-4.6681,-4.7309,-4.7309,-4.7309,-4.7309,-4.7309,-4.7309,-4.7309,-4.7309,-4.7309,-4.7309,-4.7309,-4.7309,-4.7309,-4.7309,-4.7309,-4.7309,-4.7309,-4.7309,-4.7309,-4.7309,-4.7309,-4.7309,-4.7309,-4.7309,-4.7399,-4.7878,-4.7997,-4.7878,-4.7429,-4.7638,-4.7997,-4.7997,-4.8506,-4.903,-4.903,-4.9179,-4.9299,-4.9299,-4.9538,-5.0009,-5.0727,-5.2032,-5.3389,-5.464,-5.6215,-5.7509,-5.8254,-5.8355,-5.8457,-5.866,-5.8693,-5.8693,-5.8693,-5.937,-5.9877,-6.008,-6.0114,-6.0114,-6.0114,-6.0114,-6.0114,-6.0114,-6.0216,-6.052,-6.096,-6.1467,-6.1941,-6.2381,-6.2381,-6.2381,-6.2381,-6.2381,-6.2381,-6.2381,-6.2381,-6.2381,-6.2448,-6.2956,-6.3328,-6.3666,-6.4918,-6.5493,-6.5797,-4.3798,-4.4137,-4.4436,-4.4825,-4.5454,-4.5992,-4.6249,-4.6608,-4.701,-4.7279,-4.7309,-4.7309,-4.7309,-4.7309,-4.7309,-4.7309,-4.6561,-4.6082,-4.6082,-4.6471,-4.6471,-4.5933,-4.5394,-4.4796,-4.4137,-4.3559,-4.3738,-4.4706,-4.4706,-4.5274,-4.6322,-4.6591,-4.692,-4.7309,-4.7309,-4.7309,-4.7309,-4.7309,-4.7309,-4.7309,-4.7309,-4.7309,-4.7309,-4.7309,-4.7309,-4.7309,-4.7309,-4.7309,-4.7309,-4.7309,-4.7309,-4.7309,-4.7309,-4.7309,-4.7309,-4.7309,-4.7309,-4.7459,-4.8117,-4.8297,-4.8267,-4.8117,-4.8386,-4.8686,-4.8686,-4.9164,-4.9643,-4.9643,-4.9853,-5.0032,-5.0032,-5.0623,-5.1194,-5.1593,-5.3426,-5.51,-5.5889,-5.7586,-5.893,-5.9404,-5.9438,-5.9438,-5.9438,-5.9438,-5.9573,-5.9911,-6.0317,-6.0689,-6.0994,-6.0994,-6.0994,-6.0994,-6.0994,-6.0994,-6.0994,-6.1501,-6.1603,-6.1298,-6.1738,-6.211,-6.2381,-6.2381,-6.2381,-6.2381,-6.2381,-6.255,-6.2854,-6.2854,-6.299,-6.3294,-6.3768,-6.4106,-6.4478,-6.5358,-6.5865,-6.6162,-4.3379,-4.3898,-4.4347,-4.4377,-4.4945,-4.5603,-4.619,-4.6339,-4.6621,-4.7219,-4.7309,-4.7309,-4.7309,-4.7309,-4.7309,-4.7309,-4.7309,-4.7279,-4.7219,-4.7279,-4.677,-4.5514,-4.5963,-4.5992,-4.5484,-4.4167,-4.4137,-4.5394,-4.5394,-4.5753,-4.6369,-4.701,-4.7309,-4.7309,-4.7309,-4.7309,-4.7309,-4.7309,-4.7309,-4.7309,-4.7309,-4.7309,-4.7309,-4.7309,-4.7309,-4.7309,-4.7309,-4.7309,-4.7309,-4.7309,-4.7339,-4.7369,-4.7339,-4.7339,-4.7399,-4.7399,-4.7399,-4.7549,-4.8267,-4.8446,-4.8626,-4.9329,-4.9539,-4.9539,-4.9419,-4.9853,-5.0285,-5.0285,-5.0794,-5.1319,-5.1319,-5.2703,-5.3649,-5.3032,-5.5794,-5.7822,-5.7394,-5.8831,-5.9953,-6.0178,-6.0106,-6.0068,-6.0216,-6.0216,-6.0554,-6.1332,-6.14,-6.167,-6.2347,-6.2381,-6.2381,-6.2381,-6.2381,-6.2415,-6.2482,-6.2482,-6.2144,-6.1501,-6.1434,-6.1806,-6.2584,-6.2448,-6.2415,-6.2482,-6.2482,-6.2888,-6.3531,-6.3599,-6.4005,-6.4613,-6.4681,-6.5121,-6.5696,-6.5764,-6.6203,-6.661,-4.3988,-4.4227,-4.4466,-4.4975,-4.5633,-4.6142,-4.6249,-4.677,-4.716,-4.7279,-4.7309,-4.7309,-4.7309,-4.7309,-4.7309,-4.7309,-4.7309,-4.71,-4.6561,-4.701,-4.7189,-4.689,-4.5992,-4.5933,-4.686,-4.5544,-4.5274,-4.6082,-4.6082,-4.6441,-4.71,-4.7249,-4.7309,-4.7309,-4.7309,-4.7309,-4.7309,-4.7309,-4.7309,-4.7309,-4.7309,-4.7309,-4.7309,-4.7309,-4.7309,-4.7309,-4.7309,-4.7309,-4.7309,-4.7309,-4.7638,-4.7967,-4.7459,-4.7668,-4.8087,-4.8087,-4.8087,-4.8327,-4.9494,-4.9777,-4.9927,-5.0631,-5.1169,-5.1289,-5.0272,-5.0495,-5.0973,-5.0973,-5.1528,-5.1977,-5.1977,-5.2755,-5.3308,-5.3187,-5.453,-5.5923,-5.6766,-5.7646,-5.8903,-6.0835,-6.0184,-5.9991,-6.0951,-6.1028,-6.1366,-6.211,-6.2144,-6.2212,-6.2381,-6.2381,-6.2381,-6.2381,-6.2381,-6.2685,-6.326,-6.326,-6.3193,-6.3024,-6.2448,-6.2854,-6.4072,-6.2922,-6.2719,-6.326,-6.326,-6.3362,-6.3565,-6.414,-6.4478,-6.4647,-6.5222,-6.5561,-6.5764,-6.6339,-6.6677,-6.661,-4.4197,-4.4317,-4.4436,-4.4766,-4.5663,-4.6202,-4.5873,-4.6681,-4.7309,-4.7309,-4.7309,-4.7309,-4.7309,-4.7309,-4.7309,-4.7309,-4.7309,-4.716,-4.68,-4.713,-4.716,-4.686,-4.6471,-4.6441,-4.683,-4.6471,-4.6441,-4.68,-4.6429,-4.6651,-4.7309,-4.7309,-4.7309,-4.7309,-4.7309,-4.7309,-4.7309,-4.7309,-4.7309,-4.7309,-4.7309,-4.7309,-4.7309,-4.7309,-4.7309,-4.7309,-4.7309,-4.7309,-4.7309,-4.7309,-4.7758,-4.8237,-4.7878,-4.8237,-4.879,-4.879,-4.879,-4.8985,-4.9927,-5.0435,-5.0823,-5.1528,-5.2187,-5.2396,-5.1409,-5.1678,-5.2157,-5.2157,-5.2426,-5.2665,-5.2665,-5.3234,-5.3563,-5.3234,-5.4687,-5.6,-5.6311,-5.7465,-5.8928,-6.075,-6.0431,-6.0513,-6.1728,-6.1806,-6.1975,-6.2347,-6.2719,-6.2922,-6.2922,-6.326,-6.3429,-6.3429,-6.3429,-6.3632,-6.4038,-6.4038,-6.4208,-6.4546,-6.3802,-6.3835,-6.458,-6.3802,-6.3666,-6.4038,-6.4038,-6.4241,-6.458,-6.4952,-6.5324,-6.5696,-6.6068,-6.6203,-6.6271,-6.6677,-6.644,-6.5898,-4.4197,-4.4317,-4.4377,-4.4616,-4.5574,-4.6172,-4.5693,-4.6501,-4.713,-4.713,-4.713,-4.713,-4.713,-4.7249,-4.7309,-4.7309,-4.7309,-4.7309,-4.7309,-4.7309,-4.707,-4.6531,-4.689,-4.692,-4.6501,-4.692,-4.7189,-4.7309,-4.6741,-4.677,-4.7309,-4.7309,-4.7309,-4.7309,-4.7309,-4.7309,-4.7309,-4.7309,-4.7309,-4.7309,-4.7309,-4.7309,-4.7309,-4.7309,-4.7309,-4.7309,-4.7309,-4.7369,-4.7489,-4.7608,-4.8087,-4.8596,-4.8476,-4.8895,-4.9434,-4.9434,-4.9434,-4.9583,-5.0315,-5.0913,-5.1558,-5.2187,-5.2875,-5.3204,-5.2665,-5.2875,-5.3174,-5.3174,-5.3264,-5.3354,-5.3354,-5.3922,-5.4192,-5.3623,-5.5305,-5.6662,-5.6498,-5.7614,-5.9081,-6.0745,-6.0912,-6.135,-6.2471,-6.2584,-6.2618,-6.2753,-6.3328,-6.37,-6.37,-6.4275,-6.4613,-6.4613,-6.4613,-6.4647,-6.4783,-6.4783,-6.5155,-6.5865,-6.5256,-6.4986,-6.4986,-6.4715,-6.4681,-6.4783,-6.4783,-6.5121,-6.5696,-6.5831,-6.6237,-6.6812,-6.6812,-6.6812,-6.6812,-6.6812,-6.5985,-6.5081,-4.4197,-4.4317,-4.4676,-4.5801,-4.616,-4.6429,-4.695,-4.6711,-4.6471,-4.6471,-4.6471,-4.6471,-4.6471,-4.695,-4.7309,-4.7309,-4.7309,-4.7309,-4.7309,-4.7309,-4.7279,-4.7189,-4.6711,-4.6681,-4.716,-4.6711,-4.6741,-4.7309,-4.7219,-4.7219,-4.7309,-4.7309,-4.7309,-4.7309,-4.7309,-4.7309,-4.7309,-4.7309,-4.7309,-4.7309,-4.7309,-4.7309,-4.7309,-4.7309,-4.7309,-4.7309,-4.7309,-4.7668,-4.8237,-4.8805,-4.9434,-4.9837,-4.9314,-4.9583,-5.0076,-5.0076,-5.0076,-5.0315,-5.1588,-5.2007,-5.2217,-5.2875,-5.3563,-5.4042,-5.3952,-5.3533,-5.3174,-5.3174,-5.3653,-5.4072,-5.4072,-5.461,-5.5029,-5.494,-5.521,-5.6152,-5.8142,-5.7744,-5.8464,-6.1756,-6.215,-6.2459,-6.3254,-6.3362,-6.3632,-6.4241,-6.4377,-6.4444,-6.4444,-6.4546,-6.4613,-6.4613,-6.4613,-6.4918,-6.5527,-6.5527,-6.5933,-6.6643,-6.6576,-6.6508,-6.6474,-6.5189,-6.4952,-6.5527,-6.5527,-6.5595,-6.573,-6.6406,-6.6711,-6.6812,-6.6812,-6.6812,-6.6812,-6.6812,-6.5985,-6.5081,-4.4646,-4.4855,-4.5155,-4.6142,-4.6279,-4.6249,-4.6202,-4.5933,-4.5753,-4.5753,-4.5753,-4.5903,-4.6249,-4.692,-4.7309,-4.7309,-4.7309,-4.7309,-4.7309,-4.7309,-4.7309,-4.7309,-4.704,-4.701,-4.7309,-4.701,-4.701,-4.7309,-4.7309,-4.7309,-4.7309,-4.7309,-4.7309,-4.7309,-4.7309,-4.7309,-4.7309,-4.7309,-4.7309,-4.7309,-4.7309,-4.7309,-4.7309,-4.7309,-4.7309,-4.7369,-4.7728,-4.8027,-4.8386,-4.909,-4.9703,-5.0136,-4.9912,-5.0242,-5.0734,-5.0734,-5.1003,-5.1468,-5.2037,-5.2755,-5.3384,-5.3683,-5.4251,-5.485,-5.5209,-5.5059,-5.485,-5.485,-5.479,-5.497,-5.5688,-5.5478,-5.5418,-5.6137,-5.5658,-5.5671,-5.7161,-5.6543,-5.7211,-6.0598,-6.1592,-6.2546,-6.3958,-6.4106,-6.4241,-6.458,-6.4986,-6.5222,-6.5222,-6.5595,-6.5831,-6.5831,-6.5831,-6.6,-6.6305,-6.6305,-6.6474,-6.6812,-6.6812,-6.6812,-6.6779,-6.6136,-6.6,-6.6305,-6.6305,-6.6305,-6.6339,-6.6677,-6.6812,-6.6812,-6.6812,-6.6812,-6.6812,-6.6812,-6.644,-6.6029]},{"header":{"parameterUnit":"m.s-1","parameterCategory":1,"la1":30.6,"la2":28.766,"lo1":-90.7593,"lo2":-88.6598,"dy":0.0162,"dx":0.0183,"nx":116,"ny":114,"refTime":"2023-03-31T12:00:00:Z","depth":0,"parameterNumber":3,"parameterNumberName":"V-component_of_WINDS"},"data":[0.0,0.0,0.0,0.0,0.0,0.0,0.0,0.0,0.0,0.0,0.0,0.0,0.0,0.0,0.0,0.0,0.0,0.0,0.0,0.0,0.0,0.0,0.0,0.0,0.0,0.0,0.0,0.0,0.0,0.0,0.0,0.0,0.0,0.0,0.0,0.0,0.0,0.0,0.0,0.0,0.0,0.0,0.0,0.0,0.0,0.0,0.0,0.0,0.0,0.0,0.0,0.0,0.0,0.0,0.0,0.0,0.0,0.0,0.0,0.0,0.0,0.0,0.0,0.0,0.0,0.0,0.0,0.0,0.0,0.0,0.0,0.0,0.0,0.0,0.0,0.0,0.0,0.0,0.0,0.0,0.0,0.0,0.0,0.0,0.0,0.0,0.0,0.0,0.0,0.0,0.0,0.0,0.0,0.0,0.0,0.0,0.0,0.0,0.0,0.0,0.0,0.0,0.0,0.0,0.0,0.0,0.0,0.0,0.0,0.0,0.0,0.0,0.0,0.0,0.0,0.0,0.0,0.0,0.0,0.0,0.0,0.0,0.0,0.0,0.0,0.0,0.0,0.0,0.0,0.0,0.0,0.0,0.0,0.0,0.0,0.0,0.0,0.0,0.0,0.0,0.0,0.0,0.0,0.0,0.0,0.0,0.0,0.0,0.0,0.0,0.0,0.0,0.0,0.0,0.0,0.0,0.0,0.0,0.0,0.0,0.0,0.0,0.0,0.0,0.0,0.0,0.0,0.0,0.0,0.0,0.0,0.0,0.0,0.0,0.0,0.0,0.0,0.0,0.0,0.0,0.0,0.0,0.0,0.0,0.0,0.0,0.0,0.0,0.0,0.0,0.0,0.0,0.0,0.0,0.0,0.0,0.0,0.0,0.0,0.0,0.0,0.0,0.0,0.0,0.0,0.0,0.0,0.0,0.0,0.0,0.0,0.0,0.0,0.0,0.0,0.0,0.0,0.0,0.0,0.0,0.0,0.0,0.0,0.0,0.0,0.0,0.0,0.0,0.0,0.0,0.0,0.0,0.0,0.0,0.0,0.0,0.0,0.0,0.0,0.0,0.0,0.0,0.0,0.0,0.0,0.0,0.0,0.0,0.0,0.0,0.0,0.0,0.0,0.0,0.0,0.0,0.0,0.0,0.0,0.0,0.0,0.0,0.0,0.0,0.0,0.0,0.0,0.0,0.0,0.0,0.0,0.0,0.0,0.0,0.0,0.0,0.0,0.0,0.0,0.0,0.0,0.0,0.0,0.0,0.0,0.0,0.0,0.0,0.0,0.0,0.0,0.0,0.0,0.0,0.0,0.0,0.0,0.0,0.0,0.0,0.0,0.0,0.0,0.0,0.0,0.0,0.0,0.0,0.0,0.0,0.0,0.0,0.0,0.0,0.0,0.0,0.0,0.0,0.0,0.0,0.0,0.0,0.0,0.0,0.0,0.0,0.0,0.0,0.0,0.0,0.0,0.0,0.0,0.0,0.0,0.0,0.0,0.0,0.0,0.0,0.0,0.0,0.0,0.0,0.0,0.0,0.0,0.0,0.0,0.0,0.0,0.0,0.0,0.0,0.0,0.0,0.0,0.0,0.0,0.0,0.0,0.0,0.0,0.0,0.0,0.0,0.0,0.0,0.0,0.0,0.0,0.0,0.0,0.0,0.0,0.0,0.0,0.0,0.0,0.0,0.0,0.0,0.0,0.0,0.0,0.0,0.0,0.0,0.0,0.0,0.0,0.0,0.0,0.0,0.0,0.0,0.0,0.0,0.0,0.0,0.0,0.0,0.0,0.0,0.0,0.0,0.0,0.0,0.0,0.0,0.0,0.0,0.0,0.0,0.0,0.0,0.0,0.0,0.0,0.0,0.0,0.0,0.0,0.0,0.0,0.0,0.0,0.0,0.0,0.0,0.0,0.0,0.0,0.0,0.0,0.0,0.0,0.0,0.0,0.0,0.0,0.0,0.0,0.0,0.0,0.0,0.0,0.0,0.0,0.0,0.0,0.0,0.0,0.0,0.0,0.0,0.0,0.0,0.0,0.0,0.0,0.0,0.0,0.0,0.0,0.0,0.0,0.0,0.0,0.0,0.0,0.0,0.0,0.0,0.0,0.0,0.0,0.0,0.0,0.0,0.0,0.0,0.0,0.0,0.0,0.0,0.0,0.0,0.0,0.0,0.0,0.0,0.0,0.0,0.0,0.0,0.0,0.0,0.0,0.0,0.0,0.0,0.0,0.0,0.0,0.0,0.0,0.0,0.0,0.0,0.0,0.0,0.0,0.0,0.0,0.0,0.0,0.0,0.0,0.0,0.0,0.0,0.0,0.0,0.0,0.0,0.0,0.0,0.0,0.0,0.0,0.0,0.0,0.0,0.0,0.0,0.0,0.0,0.0,0.0,0.0,0.0,0.0,0.0,0.0,0.0,0.0,0.0,0.0,0.0,0.0,0.0,0.0,0.0,0.0,0.0,0.0,0.0,0.0,0.0,0.0,0.0,0.0,0.0,0.0,0.0,0.0,0.0,0.0,0.0,0.0,0.0,0.0,0.0,0.0,0.0,0.0,0.0,0.0,0.0,0.0,0.0,0.0,0.0,0.0,0.0,0.0,0.0,0.0,0.0,0.0,0.0,0.0,0.0,0.0,0.0,0.0,0.0,0.0,0.0,0.0,0.0,0.0,0.0,0.0,0.0,0.0,0.0,0.0,0.0,0.0,0.0,0.0,0.0,0.0,0.0,0.0,0.0,0.0,0.0,0.0,0.0,0.0,0.0,0.0,0.0,0.0,0.0,0.0,0.0,0.0,0.0,0.0,0.0,0.0,0.0,0.0,0.0,0.0,0.0,0.0,0.0,0.0,0.0,0.0,0.0,0.0,0.0,0.0,0.0,0.0,0.0,0.0,0.0,0.0,0.0,0.0,0.0,0.0,0.0,0.0,0.0,0.0,0.0,0.0,0.0,0.0,0.0,0.0,0.0,0.0,0.0,0.0,0.0,0.0,0.0,0.0,0.0,0.0,0.0,0.0,0.0,0.0,0.0,0.0,0.0,0.0,0.0,0.0,0.0,0.0,0.0,0.0,0.0,0.0,0.0,0.0,0.0,0.0,0.0,0.0,0.0,0.0,0.0,0.0,0.0,0.0,0.0,0.0,0.0,0.0,0.0,0.0,0.0,0.0,0.0,0.0,0.0,0.0,0.0,0.0,0.0,0.0,0.0,0.0,0.0,0.0,0.0,0.0,0.0,0.0,0.0,0.0,0.0,0.0,0.0,0.0,0.0,0.0,0.0,0.0,0.0,0.0,0.0,0.0,0.0,0.0,0.0,0.0,0.0,0.0,0.0,0.0,0.0,0.0,0.0,0.0,0.0,0.0,0.0,0.0,0.0,0.0,0.0,0.0,0.0,0.0,0.0,0.0,0.0,0.0,0.0,0.0,0.0,0.0,0.0,0.0,0.0,0.0,0.0,0.0,0.0,0.0,0.0,0.0,0.0,0.0,0.0,0.0,0.0,0.0,0.0,0.0,0.0,0.0,0.0,0.0,0.0,0.0,0.0,0.0,0.0,0.0,0.0,0.0,0.0,0.0,0.0,0.0,0.0,0.0,0.0,0.0,0.0,0.0,0.0,0.0,0.0,0.0,0.0,0.0,0.0,0.0,0.0,0.0,0.0,0.0,0.0,0.0,0.0,0.0,0.0,0.0,0.0,0.0,0.0,0.0,0.0,0.0,0.0,0.0,0.0,0.0,0.0,0.0,0.0,0.0,0.0,0.0,0.0,0.0,0.0,0.0,0.0,0.0,0.0,0.0,0.0,0.0,0.0,0.0,0.0,0.0,0.0,0.0,0.0,0.0,0.0,0.0,0.0,0.0,0.0,0.0,0.0,0.0,0.0,0.0,0.0,0.0,0.0,0.0,0.0,0.0,0.0,0.0,0.0,0.0,0.0,0.0,0.0,0.0,0.0,0.0,0.0,0.0,0.0,0.0,0.0,0.0,0.0,0.0,0.0,0.0,0.0,0.0,0.0,0.0,0.0,0.0,0.0,0.0,0.0,0.0,0.0,0.0,0.0,0.0,0.0,0.0,0.0,0.0,0.0,0.0,0.0,0.0,0.0,0.0,0.0,0.0,0.0,0.0,0.0,0.0,0.0,0.0,0.0,0.0,0.0,0.0,0.0,0.0,0.0,0.0,0.0,0.0,0.0,0.0,0.0,0.0,0.0,0.0,0.0,0.0,0.0,0.0,0.0,0.0,0.0,0.0,0.0,0.0,0.0,0.0,0.0,0.0,0.0,0.0,0.0,0.0,0.0,0.0,0.0,0.0,0.0,0.0,0.0,0.0,0.0,0.0,0.0,0.0,0.0,0.0,0.0,0.0,0.0,0.0,0.0,0.0,0.0,0.0,0.0,0.0,0.0,0.0,0.0,0.0,0.0,0.0,0.0,0.0,0.0,0.0,0.0,0.0,0.0,0.0,0.0,0.0,0.0,0.0,0.0,0.0,0.0,0.0,0.0,0.0,0.0,0.0,0.0,0.0,0.0,0.0,0.0,0.0,0.0,0.0,0.0,0.0,0.0,0.0,0.0,0.0,0.0,0.0,0.0,0.0,0.0,0.0,0.0,0.0,0.0,0.0,0.0,0.0,0.0,0.0,0.0,0.0,0.0,0.0,0.0,0.0,0.0,0.0,0.0,0.0,0.0,0.0,0.0,0.0,0.0,0.0,0.0,0.0,0.0,0.0,0.0,0.0,0.0,0.0,0.0,0.0,0.0,0.0,0.0,0.0,0.0,0.0,0.0,0.0,0.0,0.0,0.0,0.0,0.0,0.0,0.0,0.0,0.0,0.0,0.0,0.0,0.0,0.0,0.0,0.0,0.0,0.0,0.0,0.0,0.0,0.0,0.0,0.0,0.0,0.0,0.0,0.0,0.0,0.0,0.0,0.0,0.0,0.0,0.0,0.0,0.0,0.0,0.0,0.0,0.0,0.0,0.0,0.0,0.0,0.0,0.0,0.0,0.0,0.0,0.0,0.0,0.0,0.0,0.0,0.0,0.0,0.0,0.0,0.0,0.0,0.0,0.0,0.0,0.0,0.0,0.0,0.0,0.0,0.0,0.0,0.0,0.0,0.0,0.0,0.0,0.0,0.0,0.0,0.0,0.0,0.0,0.0,0.0,0.0,0.0,0.0,0.0,0.0,0.0,0.0,0.0,0.0,0.0,0.0,0.0,0.0,0.0,0.0,0.0,0.0,0.0,0.0,0.0,0.0,0.0,0.0,0.0,0.0,0.0,0.0,0.0,0.0,0.0,0.0,0.0,0.0,0.0,0.0,0.0,0.0,0.0,0.0,0.0,0.0,0.0,0.0,0.0,0.0,0.0,0.0,0.0,0.0,0.0,0.0,0.0,0.0,0.0,0.0,0.0,0.0,0.0,0.0,0.0,0.0,0.0,0.0,0.0,0.0,0.0,0.0,0.0,0.0,0.0,0.0,0.0,0.0,0.0,0.0,0.0,0.0,0.0,0.0,0.0,0.0,0.0,0.0,0.0,0.0,0.0,0.0,0.0,0.0,0.0,0.0,0.0,0.0,0.0,0.0,0.0,0.0,0.0,0.0,0.0,0.0,0.0,0.0,0.0,0.0,0.0,0.0,0.0,0.0,0.0,0.0,0.0,0.0,0.0,0.0,0.0,0.0,0.0,0.0,0.0,0.0,0.0,0.0,0.0,0.0,0.0,0.0,0.0,0.0,0.0,0.0,0.0,0.0,0.0,0.0,0.0,0.0,0.0,0.0,0.0,0.0,0.0,0.0,0.0,0.0,0.0,0.0,0.0,0.0,0.0,0.0,0.0,0.0,0.0,0.0,0.0,0.0,0.0,0.0,0.0,0.0,0.0,0.0,0.0,0.0,0.0,0.0,0.0,0.0,0.0,0.0,0.0,0.0,0.0,0.0,0.0,0.0,0.0,0.0,0.0,0.0,0.0,0.0,0.0,0.0,0.0,0.0,0.0,0.0,0.0,0.0,0.0,0.0,0.0,0.0,0.0,0.0,0.0,0.0,0.0,0.0,0.0,0.0,0.0,0.0,0.0,0.0,0.0,0.0,0.0,0.0,0.0,0.0,0.0,0.0,2.2652,0.0,0.0,0.0,0.0,0.0,0.0,0.0,0.0,0.0,0.0,0.0,0.0,0.0,0.0,0.0,0.0,0.0,0.0,0.0,0.0,0.0,0.0,0.0,0.0,0.0,0.0,0.0,0.0,0.0,0.0,0.0,0.0,0.0,0.0,0.0,0.0,0.0,0.0,0.0,2.5946,2.6474,2.7268,2.6177,2.4871,2.3328,0.0,0.0,0.0,0.0,0.0,0.0,0.0,0.0,0.0,0.0,0.0,0.0,0.0,0.0,0.0,0.0,0.0,0.0,0.0,0.0,0.0,0.0,0.0,0.0,0.0,0.0,0.0,0.0,0.0,0.0,0.0,0.0,0.0,0.0,0.0,0.0,0.0,0.0,0.0,0.0,0.0,0.0,0.0,0.0,0.0,0.0,0.0,0.0,0.0,0.0,0.0,0.0,0.0,0.0,0.0,0.0,0.0,0.0,0.0,0.0,0.0,0.0,0.0,0.0,0.0,0.0,0.0,0.0,0.0,0.0,0.0,2.2832,0.0,0.0,0.0,0.0,0.0,0.0,0.0,0.0,0.0,0.0,0.0,0.0,0.0,0.0,0.0,0.0,0.0,0.0,0.0,0.0,0.0,0.0,0.0,0.0,2.1669,2.0767,2.0591,2.0792,0.0,0.0,0.0,0.0,0.0,0.0,0.0,2.5084,2.5209,2.4926,2.6364,2.7253,2.757,2.777,2.6986,2.5309,2.3505,0.0,0.0,0.0,0.0,0.0,0.0,0.0,0.0,0.0,0.0,0.0,0.0,0.0,0.0,0.0,0.0,0.0,0.0,0.0,0.0,0.0,0.0,0.0,0.0,0.0,0.0,0.0,0.0,0.0,0.0,0.0,0.0,0.0,0.0,0.0,0.0,0.0,0.0,0.0,0.0,0.0,0.0,0.0,0.0,0.0,0.0,0.0,0.0,0.0,0.0,0.0,0.0,0.0,0.0,0.0,0.0,0.0,0.0,0.0,0.0,0.0,0.0,0.0,2.4199,2.4434,2.4766,2.5215,2.5254,2.4961,2.4609,2.3848,2.291,0.0,0.0,0.0,0.0,0.0,0.0,0.0,0.0,0.0,0.0,0.0,0.0,0.0,0.0,0.0,0.0,0.0,0.0,0.0,0.0,0.0,0.0,2.1026,2.0842,2.0717,2.0239,2.0162,0.0,0.0,0.0,0.0,0.0,0.0,2.4104,2.418,2.4632,2.5485,2.8072,2.9126,2.8687,2.9729,3.0002,2.9674,2.7051,2.5877,2.5827,0.0,0.0,0.0,0.0,0.0,0.0,0.0,0.0,0.0,0.0,0.0,0.0,0.0,0.0,0.0,0.0,0.0,0.0,0.0,0.0,0.0,0.0,0.0,0.0,0.0,0.0,0.0,0.0,0.0,0.0,0.0,0.0,0.0,0.0,0.0,0.0,0.0,0.0,0.0,0.0,0.0,1.8773,1.9316,0.0,0.0,0.0,0.0,0.0,0.0,0.0,0.0,0.0,0.0,0.0,0.0,0.0,2.2812,2.3984,2.4492,2.498,2.544,2.5859,2.6074,2.6152,2.6562,2.6934,2.7226,2.7239,0.0,2.4199,2.4707,0.0,0.0,0.0,0.0,0.0,0.0,0.0,0.0,0.0,0.0,0.0,0.0,0.0,0.0,0.0,0.0,0.0,0.0,0.0,0.0,0.0,2.1571,2.192,2.1619,2.3075,2.3326,2.1694,2.2975,0.0,0.0,0.0,2.3346,2.305,2.4255,2.5887,2.7946,2.9503,3.0608,3.126,3.1763,3.1989,3.1964,3.106,2.9428,2.7344,2.6866,0.0,0.0,0.0,0.0,0.0,0.0,0.0,0.0,0.0,0.0,0.0,0.0,0.0,0.0,0.0,0.0,0.0,0.0,0.0,0.0,0.0,0.0,0.0,0.0,0.0,0.0,0.0,0.0,0.0,0.0,0.0,0.0,0.0,0.0,0.0,0.0,0.0,0.0,0.0,1.9492,2.0449,2.0391,2.1094,2.1269,0.0,0.0,0.0,0.0,0.0,0.0,0.0,0.0,0.0,2.293,2.3848,2.4473,2.4785,2.5703,2.6387,2.6816,2.7246,2.7715,2.8184,2.8359,2.8691,2.9082,2.9082,2.8418,2.7246,2.6484,2.5508,2.4473,0.0,0.0,0.0,0.0,2.4219,2.4707,0.0,0.0,0.0,0.0,0.0,0.0,0.0,0.0,0.0,0.0,0.0,0.0,2.1265,2.273,2.3622,2.3401,2.5636,2.5787,2.2723,2.3929,0.0,0.0,2.2146,2.2343,2.2096,2.4531,2.7042,2.9578,3.0834,3.2089,3.3294,3.3571,3.3696,3.3746,3.4424,3.2742,2.9352,2.8925,2.7333,2.504,0.0,0.0,0.0,0.0,0.0,0.0,0.0,0.0,0.0,0.0,0.0,0.0,0.0,0.0,0.0,0.0,0.0,0.0,0.0,0.0,0.0,0.0,0.0,0.0,0.0,0.0,0.0,0.0,0.0,0.0,0.0,0.0,0.0,0.0,0.0,0.0,0.0,2.082,2.1602,2.1229,2.2012,2.2227,0.0,0.0,0.0,0.0,0.0,0.0,2.2695,2.3809,2.4551,2.4766,2.582,2.6289,2.6055,2.7129,2.7832,2.8217,2.8574,2.9121,2.9726,2.9844,3.0078,3.0371,3.0371,3.0137,2.9609,2.8125,2.6875,2.5928,2.5644,2.543,2.5273,2.5488,2.584,2.6328,0.0,0.0,0.0,0.0,0.0,0.0,0.0,0.0,0.0,0.0,0.0,2.2352,2.2559,2.4329,2.5686,2.6248,2.6449,2.5569,2.3221,2.2669,2.2171,2.1546,2.1069,2.1043,2.1518,2.4764,2.7243,2.8938,3.2164,3.3771,3.3872,3.4881,3.5382,3.5433,3.6533,3.5454,3.2717,3.116,3.0091,2.9138,2.5113,0.0,0.0,0.0,0.0,0.0,0.0,0.0,0.0,0.0,0.0,0.0,0.0,0.0,0.0,0.0,0.0,0.0,0.0,0.0,0.0,0.0,0.0,0.0,0.0,0.0,0.0,0.0,0.0,0.0,0.0,0.0,0.0,0.0,0.0,0.0,0.0,0.0,0.0,2.119,2.3047,0.0,0.0,0.0,0.0,2.2422,2.3574,2.4473,2.493,2.5762,2.6641,2.7493,2.793,2.834,2.873,2.9199,2.9453,2.9528,2.9902,3.0117,3.0176,3.0625,3.084,3.0859,3.0859,3.0586,3.0098,2.9199,2.8555,2.8047,2.7246,2.7148,2.7461,2.7051,2.7187,2.763,0.0,0.0,0.0,0.0,0.0,0.0,0.0,0.0,1.856,1.9075,2.0974,2.2605,2.3448,2.6392,2.8524,2.9076,3.0432,3.0156,2.7595,2.6214,2.4958,2.3678,2.1747,2.1948,2.4664,2.7304,2.9754,3.2139,3.4022,3.5152,3.555,3.5881,3.6257,3.6634,3.7387,3.7161,3.6132,3.443,3.224,2.964,2.8139,2.6237,0.0,0.0,0.0,0.0,0.0,0.0,0.0,0.0,0.0,0.0,0.0,0.0,0.0,0.0,0.0,0.0,0.0,0.0,0.0,0.0,0.0,0.0,0.0,0.0,0.0,0.0,0.0,0.0,0.0,0.0,0.0,0.0,0.0,0.0,0.0,0.0,0.0,2.3672,2.4883,0.0,2.4453,2.4375,2.4453,2.4524,2.5527,2.6406,2.7109,2.7695,2.8281,2.8922,2.9297,2.9453,2.9336,3.0059,3.0273,2.998,3.043,3.0644,3.0644,3.082,3.0898,3.0898,3.0898,3.0801,3.0625,3.0312,2.959,2.8633,2.8066,2.793,2.8086,2.8203,2.8516,2.898,0.0,0.0,0.0,0.0,0.0,0.0,0.0,0.0,1.8329,1.9434,2.1518,2.3577,2.546,2.88,3.1135,3.1687,3.2893,3.2215,2.8875,2.7268,2.5536,2.3502,2.2401,2.3558,2.7218,2.9302,3.1687,3.4449,3.5378,3.6207,3.6958,3.6782,3.6935,3.7487,3.804,3.8191,3.7939,3.6787,3.4575,3.1612,3.0306,2.8473,2.6289,0.0,0.0,0.0,0.0,0.0,0.0,0.0,0.0,0.0,0.0,0.0,0.0,0.0,0.0,0.0,0.0,0.0,0.0,0.0,0.0,0.0,0.0,0.0,0.0,0.0,0.0,0.0,0.0,0.0,0.0,0.0,0.0,0.0,0.0,0.0,2.4961,2.5254,2.6328,2.6797,2.6181,2.6035,2.6133,2.6562,2.7383,2.8184,2.8906,2.9336,2.9726,3.0,3.0293,3.0293,3.0019,3.0605,3.0742,3.043,3.0742,3.0898,3.0898,3.0898,3.0898,3.0898,3.0898,3.0898,3.0898,3.0898,3.0371,2.9551,2.9277,2.918,2.9199,2.9492,2.9766,3.0059,0.0,0.0,0.0,0.0,0.0,0.0,0.0,1.6938,1.8152,2.0365,2.2623,2.5285,2.8537,3.1436,3.3319,3.3847,3.337,3.1226,2.6851,2.5435,2.3577,2.0893,2.2949,2.5686,2.8863,3.0633,3.2817,3.5508,3.6081,3.6958,3.7939,3.7437,3.7487,3.804,3.8617,3.8567,3.8065,3.804,3.7111,3.5282,3.1486,2.9905,2.9453,0.0,0.0,0.0,0.0,0.0,0.0,0.0,0.0,0.0,0.0,0.0,0.0,0.0,0.0,0.0,0.0,0.0,0.0,0.0,0.0,0.0,0.0,0.0,0.0,0.0,0.0,0.0,0.0,0.0,0.0,0.0,0.0,0.0,2.3247,2.4727,2.5771,2.581,2.7324,2.8027,2.7187,2.75,2.7963,2.832,2.9141,2.9785,3.0195,3.0644,3.0898,3.0898,3.0898,3.0898,3.0898,3.0898,3.0898,3.0898,3.0898,3.0898,3.0898,3.0898,3.0898,3.0898,3.0898,3.0898,3.0898,3.0898,3.0898,3.0898,3.0898,3.0898,3.0898,3.0898,3.0898,3.0898,0.0,0.0,0.0,0.0,0.0,0.0,0.0,1.6289,1.7099,1.971,2.2698,2.5678,2.8562,3.1763,3.3746,3.3897,3.2641,3.0834,2.8398,2.5711,2.3703,2.2468,2.6138,2.8825,3.0091,3.2566,3.4329,3.5508,3.6081,3.6556,3.6883,3.7061,3.7487,3.804,3.8617,3.8994,3.9195,3.8793,3.8366,3.7688,3.46,3.2164,3.0281,0.0,0.0,0.0,0.0,0.0,0.0,0.0,0.0,0.0,0.0,0.0,0.0,0.0,0.0,0.0,0.0,0.0,0.0,0.0,0.0,0.0,0.0,0.0,0.0,0.0,0.0,0.0,0.0,0.0,0.0,0.0,0.0,2.4629,2.5391,2.6445,2.748,2.8398,2.9199,2.957,2.9336,2.9434,2.9551,2.9668,3.0195,3.0586,3.0703,3.082,3.0898,3.0898,3.0898,3.0898,3.0898,3.0898,3.0898,3.0898,3.0898,3.0898,3.0898,3.0898,3.0898,3.0898,3.0898,3.0898,3.0898,3.0898,3.0898,3.0898,3.0898,3.0898,3.0898,3.0898,3.0898,3.0898,0.0,0.0,0.0,0.0,0.0,0.0,0.0,1.5894,1.6773,1.9761,2.2673,2.5711,2.895,3.1637,3.3093,3.2867,3.0909,2.8875,2.6992,2.4406,2.3728,2.5452,2.8273,3.0583,3.229,3.4079,3.5508,3.6536,3.6659,3.7109,3.7764,3.7839,3.8191,3.8718,3.9069,3.9396,3.9647,3.9145,3.8919,3.8768,3.686,3.468,3.2524,3.1637,3.0331,2.895,2.8499,2.8599,2.8612,2.6816,0.0,0.0,0.0,0.0,0.0,0.0,0.0,0.0,0.0,0.0,0.0,0.0,0.0,0.0,0.0,0.0,0.0,0.0,0.0,0.0,0.0,0.0,0.0,0.0,2.5019,2.6113,2.7519,2.7988,2.8594,2.9707,3.0215,3.0488,3.0488,3.0488,3.0488,3.0488,3.0742,3.0898,3.0898,3.0898,3.0976,3.1152,3.0976,3.0976,3.1152,3.0976,3.0898,3.0898,3.0898,3.0898,3.0898,3.0898,3.0898,0.0,3.0898,3.0898,3.0898,3.0898,3.0898,0.0,0.0,0.0,0.0,0.0,3.0898,3.0898,0.0,0.0,0.0,0.0,0.0,0.0,0.0,1.5702,1.681,2.0182,2.2589,2.5402,2.9024,3.0904,3.1738,3.126,2.8574,2.6063,2.4029,2.2849,2.428,2.8888,2.9905,3.1763,3.4751,3.5382,3.6411,3.7914,3.7487,3.804,3.9496,3.9069,3.912,3.9597,3.9672,3.9697,3.9672,3.917,3.902,3.8919,3.8417,3.7211,3.5458,3.352,3.239,3.1738,3.0783,3.0181,2.969,2.8925,0.0,0.0,0.0,0.0,0.0,0.0,0.0,0.0,0.0,0.0,0.0,0.0,0.0,0.0,0.0,0.0,0.0,0.0,0.0,0.0,0.0,0.0,0.0,0.0,2.6328,2.7363,2.9411,2.9355,2.9414,3.0176,3.0644,3.0898,3.0898,3.0898,3.0898,3.0898,3.0898,3.0898,3.0898,0.0,0.0,0.0,0.0,3.1074,3.1445,3.1074,3.0898,3.0898,3.0898,3.0898,3.0898,3.0898,3.0898,3.0898,3.0898,3.0898,3.0898,3.0898,3.0898,3.0898,3.0898,3.0898,3.0898,3.0898,3.0898,3.0898,0.0,0.0,0.0,0.0,0.0,0.0,0.0,1.555,1.6214,1.9694,2.24,2.4814,2.6989,2.9015,3.0206,3.0105,2.6741,2.4255,2.3321,2.5511,2.7871,3.0181,3.2516,3.4229,3.5307,3.6358,3.7036,3.7337,3.7688,3.8015,3.8341,3.8693,3.8969,3.9044,3.9496,3.9697,3.9697,3.9572,3.9546,3.9521,3.9421,3.8366,3.681,3.6383,3.5604,3.468,3.4455,3.4926,3.5228,3.2893,3.2943,3.3427,3.0683,2.8087,0.0,0.0,0.0,0.0,0.0,0.0,0.0,0.0,0.0,0.0,0.0,0.0,0.0,0.0,0.0,0.0,0.0,0.0,0.0,2.6582,2.7695,2.8809,2.9922,3.0332,3.0566,3.0742,3.084,3.0898,3.0898,3.0898,3.0898,3.0898,3.0898,3.0898,3.0898,3.0898,0.0,3.1016,3.0937,3.0937,3.1016,3.0937,3.0898,3.0898,0.0,0.0,3.0898,3.0898,3.0898,3.0898,3.0898,3.0898,3.0898,3.0898,3.0898,3.0898,3.0898,3.0898,3.0898,3.0898,3.0898,3.0898,0.0,0.0,0.0,0.0,0.0,0.0,0.0,1.4621,1.5362,1.7952,2.0677,2.287,2.4279,2.5915,2.6666,2.6088,2.428,2.315,2.3095,2.6264,2.9352,3.2139,3.3803,3.5102,3.5931,3.6759,3.7312,3.7588,3.8165,3.8592,3.8868,3.9145,3.927,3.9295,3.9572,3.9697,3.9697,3.9697,3.9697,3.9697,3.9697,3.9195,3.8417,3.814,3.7513,3.6686,3.6458,3.6533,3.6508,3.4876,3.4675,3.4806,3.3151,3.1135,2.9227,0.0,0.0,0.0,0.0,0.0,0.0,0.0,0.0,0.0,0.0,0.0,0.0,0.0,0.0,2.5234,0.0,0.0,2.6973,2.7832,2.8867,2.9785,3.0449,3.0742,3.0898,3.0898,3.0898,3.0898,3.0898,3.0898,3.0898,3.0898,3.0898,3.0976,3.1191,3.0996,3.1094,3.1523,3.1113,3.0996,3.1211,3.0996,3.0898,3.0898,3.0898,3.0898,3.0898,3.0898,3.0898,3.0898,3.1113,3.1211,3.123,3.1445,3.1406,3.1211,3.1211,3.1074,3.0898,3.0898,3.0898,3.0898,0.0,0.0,0.0,0.0,0.0,0.0,0.0,1.3755,1.4652,1.6385,1.8778,2.0725,2.1737,2.283,2.2924,2.1468,2.2422,2.3175,2.3271,2.6917,3.0557,3.3922,3.47,3.5454,3.638,3.7059,3.7563,3.8015,3.8693,3.927,3.9697,3.9697,3.9697,3.9697,3.9697,3.9697,3.9697,3.9697,3.9697,3.9697,3.9697,3.9697,3.9647,3.9195,3.8743,3.8241,3.7588,3.6784,3.6078,3.5859,3.5307,3.4776,3.5102,3.3972,3.224,3.0708,2.9524,0.0,0.0,0.0,0.0,0.0,0.0,0.0,0.0,0.0,2.726,2.579,2.6103,2.6587,2.6241,2.7285,2.8418,2.918,3.0019,3.0684,3.0976,3.1016,3.0976,3.0898,3.0898,3.0898,3.0898,3.0898,3.0918,3.0996,3.0937,3.1074,3.1504,3.1113,3.125,3.2012,3.1367,3.1211,3.1641,3.1309,3.1133,3.1133,3.1055,3.1016,3.1016,3.1016,3.1016,3.1035,3.1465,3.1641,3.168,3.2012,3.1914,3.1523,3.1523,3.1269,3.0898,3.0898,3.0898,3.0898,0.0,0.0,0.0,0.0,0.0,0.0,0.0,0.0,1.4512,1.6358,1.8067,1.9405,2.0179,2.1162,2.0767,1.8177,2.2904,2.5443,2.4004,2.9302,3.3144,3.4575,3.5629,3.6279,3.6405,3.7387,3.7939,3.8015,3.9069,3.9647,3.9697,3.9697,3.9697,3.9697,3.9697,3.9697,3.9697,3.9697,3.9697,3.9697,3.9697,3.9697,3.9697,3.9622,3.9572,3.9371,3.8291,3.6609,3.5127,3.6533,3.5981,3.4977,3.6433,3.5429,3.347,3.229,0.0,2.66,2.459,2.3671,2.346,2.3926,2.5656,2.7455,0.0,0.0,2.8195,2.7926,2.8003,2.8048,2.8041,2.9062,3.0078,3.0586,3.1387,3.1836,3.1504,3.1445,3.1309,3.0937,3.0898,3.0898,3.0898,3.0898,3.1055,3.1426,3.1094,3.1074,3.1504,3.1113,3.1113,3.1582,3.1504,3.166,3.209,3.2051,3.2031,3.2031,3.1641,3.1445,3.1445,3.1445,3.1445,3.1465,3.1914,3.209,3.215,3.2148,3.1914,3.1523,3.1523,3.1269,3.0898,3.0898,3.0898,3.0898,0.0,0.0,0.0,0.0,0.0,0.0,0.0,0.0,0.0,1.4099,1.6096,1.7456,1.7426,1.8118,1.8129,1.6974,2.1568,2.4506,2.4481,2.988,3.3571,3.4675,3.578,3.6405,3.6405,3.7437,3.8015,3.8015,3.9145,3.9697,3.9697,3.9697,3.9697,3.9697,3.9697,3.9697,3.9697,3.9697,3.9697,3.9697,3.9697,3.9697,3.9622,3.8969,3.8517,3.804,3.6609,3.5303,0.0,3.4274,3.4048,3.4048,3.5705,3.4583,3.2537,3.1939,2.9488,0.0,2.6573,2.5897,2.5896,0.0,2.9127,2.9511,3.1064,3.0953,3.0249,2.9422,2.9708,3.0017,2.9875,3.0449,3.1113,0.0,3.1934,3.2012,3.1582,3.1523,3.1269,3.0566,3.0723,3.0898,3.0898,3.0898,3.1074,3.1484,3.1133,3.1191,3.1855,3.1484,3.1445,3.1875,3.1894,3.1992,3.2229,3.2229,3.2229,3.2229,3.1992,3.1894,3.1894,3.1894,3.2031,3.2266,3.2461,3.2539,3.2559,3.2793,3.25,3.1894,3.1894,3.1641,3.123,3.0976,3.0898,3.0898,0.0,0.0,0.0,0.0,0.0,0.0,0.0,0.0,0.0,0.0,1.4295,1.552,1.5577,1.6151,1.65,1.65,1.986,2.2719,2.4449,2.9051,3.2541,3.4424,3.5554,3.6207,3.6405,3.7437,3.8015,3.8015,3.9145,3.9697,3.9697,3.9697,3.9697,3.9697,3.9697,3.9697,3.9697,3.9697,3.9697,3.9697,3.9697,3.9597,3.9346,3.8216,3.7161,3.6081,3.4575,3.3194,3.1947,3.1174,3.0835,3.0993,3.2857,3.22,3.0673,3.0367,2.8099,2.6001,2.7514,2.7375,0.0,3.1761,3.2005,3.1682,3.3059,3.2679,3.1684,3.0475,3.0758,3.1207,3.0936,3.1328,3.1797,3.2109,3.2363,3.2324,3.1777,3.1601,3.1191,3.0293,3.0391,3.0566,3.0684,3.082,3.1074,3.1484,3.123,3.1387,3.219,3.1758,3.1777,3.2324,3.2226,3.2285,3.2519,3.2519,3.2519,3.2519,3.2402,3.2344,3.2344,3.2344,3.2578,3.2969,3.2969,3.2969,3.2988,3.3301,3.2988,3.2324,3.2207,3.1894,3.1465,3.1055,3.0898,3.0898,0.0,0.0,0.0,0.0,0.0,0.0,0.0,0.0,0.0,0.0,0.0,0.0,0.0,1.6151,1.65,1.65,1.8105,2.0512,2.3803,2.6691,2.9955,3.3746,3.4931,3.5805,3.6405,3.7437,3.8015,3.8015,3.9145,3.9697,3.9697,3.9697,3.9697,3.9697,3.9697,3.9697,3.9697,3.9697,3.9697,3.9697,3.9697,3.9371,3.8818,3.7638,3.5881,3.3847,3.2692,3.0206,2.7512,2.7683,2.6321,2.4992,2.7435,2.8156,0.0,2.7487,2.478,0.0,0.0,0.0,2.7284,3.0951,3.2978,3.4009,3.3675,3.2868,3.1946,3.105,3.0878,3.0918,3.0879,3.1582,3.2148,3.2229,3.2851,3.3105,3.2266,3.1777,3.1191,3.0293,2.9844,2.9766,0.0,3.0625,3.1074,3.1484,3.1504,3.1699,3.2148,3.1758,3.1914,3.2754,3.2383,3.2559,3.3379,3.3379,3.3379,3.3379,3.2969,3.2773,3.2773,3.2773,3.3008,3.3398,3.3398,3.3398,3.3398,3.3418,3.3164,3.2734,3.2324,3.1894,3.1465,3.1055,3.0898,3.0898,0.0,0.0,0.0,0.0,0.0,0.0,0.0,0.0,0.0,0.0,0.0,0.0,0.0,0.0,0.0,0.0,1.7776,1.9592,2.1114,2.4875,2.7935,2.9966,3.2154,3.3777,3.4726,3.6157,3.6958,3.6958,3.804,3.8768,3.9145,3.9145,3.9346,3.9697,3.9697,3.9697,3.9697,3.9697,3.9697,3.9622,3.8868,3.7588,3.5906,3.4048,3.1964,2.9829,0.0,2.6816,2.6011,2.4764,0.0,0.0,2.5385,0.0,0.0,2.32,0.0,0.0,0.0,0.0,3.1502,3.3434,3.442,3.4659,3.3506,3.2235,3.1162,3.0564,2.9531,2.8804,2.8804,2.875,2.9121,3.0254,3.1406,3.2168,3.2168,3.2285,3.1719,2.998,3.043,0.0,0.0,0.0,0.0,3.1465,3.1523,3.1699,3.2148,3.2285,3.25,3.2793,3.293,3.3144,3.3418,3.3418,3.3418,3.3418,3.3281,3.3203,3.3203,3.3203,3.3281,3.3418,3.3418,3.3418,3.3418,3.3418,3.3184,3.2793,3.2637,3.2148,3.1504,3.1367,3.1133,3.0898,0.0,0.0,0.0,0.0,0.0,0.0,0.0,0.0,0.0,0.0,0.0,0.0,0.0,0.0,0.0,0.0,0.0,1.8091,1.971,2.2488,2.4954,2.6857,2.8993,3.0589,3.1537,3.2968,3.3621,3.342,3.5102,3.6031,3.6254,3.701,3.7688,3.8216,3.8216,3.8442,3.8793,3.8592,3.8165,3.7563,3.6835,3.5102,3.2792,3.1135,2.9126,0.0,2.4901,2.3991,2.3469,2.2139,0.0,0.0,0.0,0.0,0.0,0.0,0.0,0.0,0.0,3.1639,3.3691,3.4737,3.4868,3.4454,3.3325,3.1856,3.043,2.9668,2.8535,2.7519,2.707,2.6738,2.7129,2.8828,2.9824,3.0723,3.1797,3.1894,3.1406,3.0195,3.0644,3.0723,0.0,0.0,0.0,3.125,3.1582,3.1875,3.2148,3.2559,3.2871,3.3008,3.3144,3.3262,3.3418,3.3418,3.3418,3.3418,3.3418,3.3418,3.3418,3.3418,3.3418,3.3418,3.3418,3.334,3.3203,3.3359,3.3184,3.2773,3.2637,3.2226,3.1719,3.1406,3.1133,3.0898,0.0,0.0,0.0,0.0,0.0,0.0,0.0,0.0,0.0,0.0,0.0,0.0,0.0,0.0,0.0,0.0,0.0,0.0,1.9409,1.9734,2.1212,2.4349,2.5703,2.6606,2.7143,2.8273,2.8562,2.8072,3.0708,3.1696,3.127,3.3383,3.466,3.514,3.5119,3.5765,3.6739,3.6238,3.5111,3.3727,3.3652,3.2022,2.9553,2.8913,2.7308,2.5209,2.3597,2.1923,2.0352,0.0,0.0,0.0,0.0,0.0,0.0,0.0,0.0,2.5615,2.9954,3.2379,3.3899,3.4811,3.4402,3.3586,3.3105,3.1475,2.9726,2.8476,2.7754,2.6953,0.0,0.0,2.6133,2.7851,2.8281,2.9121,3.125,3.0859,3.0508,0.0,0.0,0.0,0.0,0.0,0.0,3.0957,0.0,3.2187,3.2268,3.2598,3.3008,3.3418,3.3027,3.3008,3.3418,3.3418,3.3418,3.3418,3.3418,3.3418,3.3418,3.3418,3.3418,3.3418,3.3418,3.3184,3.2832,3.3242,3.3164,3.2734,3.2344,3.2168,3.2031,3.123,3.0918,3.0898,0.0,0.0,0.0,0.0,0.0,0.0,0.0,0.0,0.0,0.0,0.0,0.0,0.0,0.0,0.0,0.0,0.0,0.0,1.726,1.8885,1.9989,2.0461,2.315,2.491,2.5427,2.6917,2.7645,2.7494,2.8599,2.901,2.8714,2.965,3.0067,3.0081,3.0375,3.064,3.092,3.0802,3.0865,3.1009,3.0211,2.8839,2.7228,2.6239,2.4732,2.3025,2.2196,2.265,0.0,0.0,0.0,0.0,0.0,2.2029,2.3594,0.0,0.0,2.9907,3.2568,3.4521,3.5524,3.4361,3.4207,3.3726,3.1428,2.9553,2.8125,2.748,2.4961,2.273,0.0,0.0,0.0,2.5605,2.8047,0.0,3.1797,3.2344,0.0,3.1914,0.0,3.2012,3.1699,3.1777,0.0,0.0,3.2051,3.2305,3.2617,3.3027,3.332,3.3418,3.332,3.332,3.3418,3.3418,3.3418,3.3418,3.3418,3.3418,3.3418,3.3418,3.3418,3.3418,3.3418,3.3184,3.2832,3.3242,3.2988,3.2344,3.2559,3.2246,3.166,3.1445,3.1152,3.0937,0.0,0.0,0.0,0.0,0.0,0.0,0.0,0.0,0.0,0.0,0.0,0.0,0.0,0.0,0.0,0.0,0.0,0.0,0.0,1.8409,1.8941,1.8657,2.0685,2.1926,2.2268,2.3401,2.4004,2.4004,2.5059,2.551,2.5399,2.6251,2.6733,2.6909,2.6966,2.729,2.7722,2.7883,2.7632,0.0,0.0,2.606,2.4287,2.413,2.3321,2.2272,2.197,2.2889,0.0,0.0,0.0,2.1888,2.2965,2.4087,2.5747,2.9311,0.0,3.209,3.5035,3.6172,3.6037,3.3834,3.3374,3.2747,2.9774,2.8413,2.7109,2.5176,2.3027,0.0,2.1016,0.0,0.0,0.0,0.0,0.0,3.1582,3.2461,3.2773,0.0,3.2812,0.0,3.2287,3.2344,3.2441,0.0,3.2441,3.2539,3.2793,3.3184,3.3418,3.3418,3.3418,3.3418,3.3418,3.3613,3.3613,3.3418,3.3613,3.3613,3.3418,3.3418,3.3418,3.3418,0.0,3.3184,3.2832,3.3242,3.3027,3.2441,3.25,3.2226,3.1777,3.1582,3.1367,3.123,0.0,0.0,0.0,0.0,0.0,0.0,0.0,0.0,0.0,0.0,0.0,0.0,0.0,0.0,0.0,0.0,0.0,0.0,0.0,0.0,1.8355,1.8204,1.8782,1.9083,1.9008,1.9535,1.9836,1.9911,2.1292,2.1988,2.2048,2.3216,2.4014,2.4493,2.4131,2.4544,2.5454,2.5587,2.4661,2.3223,2.4434,2.3642,2.182,0.0,2.2819,2.2447,2.2598,0.0,0.0,0.0,2.4745,2.5242,2.5543,2.6065,2.7533,3.2528,3.3291,3.3197,3.66,3.6972,3.5808,3.3401,3.248,3.1426,2.8335,2.7415,2.6182,2.2539,0.0,2.1191,2.0625,2.084,2.2107,2.5187,0.0,2.8164,3.1172,3.2031,3.25,3.291,3.3281,3.3223,3.25,3.2695,3.291,3.2949,3.2969,3.2949,3.2871,3.3223,3.3418,3.3418,3.3476,3.3516,3.3516,3.3945,3.3965,3.3594,3.3926,3.3867,3.3496,3.3437,3.3418,3.3418,0.0,0.0,3.2832,3.3242,3.3144,3.2676,3.2383,3.2226,3.2129,3.1738,3.1601,3.166,0.0,0.0,0.0,0.0,0.0,0.0,0.0,0.0,0.0,0.0,1.4075,1.4082,0.0,0.0,0.0,0.0,0.0,0.0,0.0,0.0,0.0,1.8254,1.9133,1.9434,1.9008,1.9535,2.0037,2.0541,0.0,2.0392,2.0711,2.0866,2.0871,2.0787,2.0401,2.0356,2.0505,1.9824,2.0139,2.1118,2.1348,2.2027,2.2844,2.302,0.0,0.0,0.0,0.0,0.0,2.653,2.7222,2.7338,2.8014,2.9561,3.134,3.2651,3.3901,3.4921,3.5211,3.544,3.5159,3.3246,3.248,3.1289,2.7891,2.5742,0.0,0.0,1.9922,1.8965,1.9863,2.0391,2.1797,2.5148,0.0,0.0,0.0,0.0,3.3359,0.0,0.0,0.0,0.0,0.0,0.0,0.0,0.0,3.3691,3.334,3.3379,3.3418,3.3418,3.3769,3.3965,3.3965,3.4375,3.4551,3.4473,3.4199,3.4023,3.3945,3.3594,3.3418,3.3418,3.3418,0.0,3.2832,3.3242,3.2969,3.2305,3.2578,3.248,3.2209,3.209,3.2051,3.2109,0.0,0.0,0.0,0.0,0.0,0.0,0.0,1.3887,1.4394,1.5019,1.5303,1.5439,1.5478,1.5478,1.6148,0.0,0.0,0.0,0.0,0.0,0.0,0.0,0.0,0.0,0.0,0.0,0.0,0.0,0.0,0.0,0.0,0.0,0.0,0.0,0.0,0.0,1.863,1.8664,1.8998,1.9597,2.0796,2.1587,0.0,0.0,0.0,0.0,0.0,0.0,0.0,2.5534,2.639,2.7364,2.9025,3.0472,3.1701,3.2784,3.3903,3.4889,3.5547,3.5725,3.5351,3.3828,3.2637,3.0742,2.6602,0.0,0.0,0.0,1.887,1.8559,1.9434,2.0117,0.0,0.0,0.0,0.0,0.0,0.0,0.0,0.0,0.0,0.0,0.0,0.0,0.0,0.0,0.0,3.375,3.375,3.375,3.375,3.375,3.418,3.4394,3.4394,3.4844,3.4941,3.4707,3.4746,3.4512,3.4062,3.3848,3.3633,3.3418,3.3418,0.0,3.3144,3.334,3.3184,3.2812,3.2793,3.2676,3.25,3.25,3.25,3.2559,0.0,0.0,0.0,0.0,0.0,0.0,0.0,1.4219,1.4863,1.5469,1.6152,1.6523,1.6398,1.63,1.6769,0.0,0.0,0.0,0.0,0.0,0.0,0.0,0.0,0.0,0.0,0.0,0.0,0.0,0.0,0.0,0.0,0.0,0.0,0.0,0.0,0.0,0.0,1.9077,1.9165,0.0,0.0,0.0,0.0,0.0,0.0,0.0,0.0,0.0,0.0,0.0,2.4729,2.6271,2.8311,2.9473,3.0401,3.2081,3.3155,3.4206,3.6031,3.6314,3.582,3.4414,3.2793,3.0273,2.5508,2.3945,0.0,0.0,1.8247,1.8637,1.918,1.9725,2.0566,0.0,2.3867,0.0,0.0,0.0,0.0,0.0,0.0,0.0,0.0,0.0,0.0,0.0,0.0,0.0,3.4062,3.4082,3.4121,3.4199,3.4629,3.4844,3.4844,3.5293,3.5351,3.498,3.5156,3.4883,3.4199,3.4023,3.375,3.3418,3.3418,0.0,0.0,3.3418,3.3418,3.3379,3.3066,3.293,3.293,3.293,3.293,3.2969,0.0,0.0,0.0,0.0,0.0,0.0,0.0,1.4114,1.4601,1.587,1.6105,1.6457,1.722,1.6914,1.6974,0.0,0.0,0.0,0.0,0.0,0.0,0.0,0.0,0.0,0.0,0.0,0.0,0.0,0.0,0.0,0.0,0.0,0.0,0.0,0.0,0.0,0.0,0.0,0.0,0.0,0.0,0.0,0.0,0.0,0.0,0.0,0.0,0.0,0.0,0.0,0.0,2.4154,2.473,2.6055,2.7676,2.9439,0.0,0.0,3.5493,3.6348,3.6211,3.4492,3.2793,3.0273,2.5508,0.0,0.0,1.8652,1.8047,1.832,1.9141,1.8711,1.918,2.2051,0.0,2.3672,0.0,0.0,0.0,0.0,0.0,0.0,0.0,0.0,0.0,0.0,0.0,0.0,3.4082,3.4082,3.4258,3.4629,3.5078,3.5332,3.5332,3.5742,3.5937,3.5879,3.5117,3.4726,3.4609,3.3828,3.3457,3.3418,3.3418,0.0,0.0,3.3418,3.3418,3.3418,3.3379,3.3359,3.3359,3.3359,3.3359,3.3379,0.0,0.0,0.0,0.0,0.0,0.0,1.3977,1.4328,1.5,1.6289,1.6699,1.7122,1.7695,1.7383,1.7432,1.8155,0.0,0.0,0.0,0.0,0.0,0.0,0.0,0.0,0.0,0.0,0.0,0.0,0.0,0.0,0.0,0.0,0.0,0.0,0.0,0.0,0.0,0.0,0.0,0.0,0.0,0.0,0.0,0.0,0.0,0.0,0.0,0.0,0.0,0.0,0.0,0.0,2.0401,2.1191,0.0,0.0,2.8926,3.1894,3.3008,3.4961,3.6309,3.4824,3.2578,2.9609,2.5391,0.0,2.0995,1.8535,1.8008,1.8125,1.8457,1.8242,1.8398,1.9609,2.0312,0.0,0.0,0.0,0.0,0.0,0.0,0.0,0.0,0.0,0.0,0.0,0.0,0.0,3.4863,3.4863,3.4941,3.5117,3.5547,3.5762,3.5762,3.5937,3.6016,3.6016,3.541,3.4961,3.4687,3.4082,3.3672,3.3418,3.3418,0.0,0.0,3.3418,3.3418,3.3418,3.3418,3.3418,3.3418,3.3418,3.3418,3.3418,0.0,0.0,0.0,0.0,0.0,1.3164,1.3977,1.4367,1.5019,1.6161,1.6719,1.7148,1.7578,1.7363,1.7513,1.8287,1.8476,0.0,0.0,0.0,0.0,0.0,0.0,0.0,0.0,0.0,0.0,0.0,0.0,0.0,0.0,0.0,0.0,0.0,0.0,0.0,0.0,0.0,0.0,0.0,0.0,0.0,0.0,0.0,0.0,0.0,0.0,0.0,0.0,0.0,0.0,0.0,0.0,1.8424,1.9492,0.0,2.6074,2.9453,3.0781,3.3203,3.5176,3.4492,3.1953,2.8711,0.0,0.0,2.0274,1.8398,1.8008,1.8008,1.8008,1.8008,1.8008,1.8008,1.8867,2.0352,2.2656,0.0,0.0,0.0,0.0,0.0,0.0,0.0,0.0,0.0,0.0,0.0,0.0,3.5312,3.5449,3.5566,3.5742,3.5898,3.6016,3.5898,3.584,3.584,3.5391,3.4941,3.4492,3.4082,3.3711,3.3418,0.0,0.0,0.0,3.3418,3.3418,3.3418,3.3418,3.3418,3.3418,3.3418,3.3418,3.3437,0.0,0.0,0.0,0.0,0.0,0.0,1.3977,1.4114,1.4426,1.5312,1.5801,1.6281,1.6668,1.6707,1.7058,1.793,1.8369,0.0,0.0,0.0,0.0,0.0,0.0,0.0,0.0,0.0,2.231,2.3095,2.1447,2.1479,0.0,0.0,0.0,0.0,0.0,0.0,0.0,0.0,0.0,0.0,0.0,0.0,0.0,0.0,0.0,0.0,0.0,0.0,0.0,0.0,0.0,0.0,0.0,1.8697,1.8359,2.0136,2.2797,2.5879,2.9261,3.1211,3.2422,3.3223,3.0859,2.7637,0.0,0.0,1.957,1.8281,1.8008,1.8008,1.8008,1.8008,1.8008,1.8008,1.8344,0.0,2.2148,0.0,0.0,0.0,0.0,0.0,0.0,0.0,0.0,0.0,0.0,0.0,0.0,3.5137,3.5586,3.5996,3.5605,3.5605,3.6016,3.5605,3.541,3.5391,3.4922,3.4492,3.4062,3.3633,3.3418,0.0,0.0,0.0,0.0,3.3418,3.3418,3.3418,3.3418,3.3418,3.3418,3.3418,3.3418,3.3476,0.0,0.0,0.0,0.0,0.0,0.0,0.0,1.386,1.4219,1.5694,1.5723,1.5898,1.6629,1.6465,1.6504,1.7058,1.7526,0.0,0.0,0.0,0.0,0.0,0.0,0.0,0.0,0.0,2.1865,2.1807,2.0665,2.0696,2.1777,2.0044,0.0,0.0,0.0,0.0,0.0,0.0,0.0,0.0,0.0,0.0,0.0,0.0,0.0,0.0,0.0,0.0,0.0,0.0,0.0,0.0,0.0,0.0,0.0,1.8634,2.0693,0.0,2.5644,2.7226,2.8281,2.8555,2.6894,2.4687,2.2652,0.0,1.9199,1.8223,1.8008,1.8008,1.8008,1.8008,1.8105,1.8364,1.8809,0.0,0.0,0.0,0.0,0.0,0.0,0.0,0.0,0.0,0.0,0.0,0.0,0.0,0.0,3.5312,3.5586,3.6016,3.5312,3.5137,3.5586,3.5137,3.4922,3.4922,3.4473,3.4199,3.4062,3.3613,0.0,0.0,0.0,0.0,0.0,3.3418,3.3418,3.3418,3.3418,3.3418,3.3418,3.3418,3.3418,3.3496,0.0,0.0,0.0,0.0,0.0,0.0,0.0,1.3646,1.4004,1.542,1.5381,1.5508,1.6387,1.6074,1.6055,1.6648,1.6973,0.0,0.0,0.0,0.0,0.0,0.0,0.0,2.2321,2.1727,2.1338,2.1099,1.9944,1.9915,2.0842,1.91,1.9206,2.0794,0.0,0.0,0.0,0.0,0.0,0.0,0.0,0.0,2.3095,0.0,0.0,0.0,0.0,0.0,0.0,0.0,0.0,0.0,0.0,0.0,0.0,0.0,1.9322,0.0,0.0,2.416,2.5273,2.5762,2.4473,0.0,0.0,1.998,1.8652,1.8125,1.8008,1.8008,1.8008,1.8008,1.8086,1.8325,1.8769,0.0,0.0,0.0,0.0,0.0,0.0,0.0,0.0,0.0,0.0,0.0,0.0,0.0,0.0,3.4902,3.5078,3.5508,3.4824,3.4687,3.5137,3.4687,3.4453,3.4453,3.4199,3.3984,3.3828,3.3535,0.0,0.0,0.0,0.0,0.0,3.3418,3.3418,3.3418,3.3418,3.3418,3.3437,3.3613,3.3672,3.375,0.0,0.0,0.0,0.0,0.0,0.0,0.0,1.3547,1.3887,1.4751,1.4841,1.5126,1.6038,1.5733,1.5802,1.6625,0.0,0.0,0.0,0.0,0.0,0.0,0.0,0.0,2.108,2.0731,2.0646,2.0788,1.9184,1.9008,2.0192,1.8512,1.8916,2.102,2.0251,2.0822,2.2372,2.2372,2.2372,2.2393,2.2895,2.3095,0.0,0.0,0.0,0.0,0.0,0.0,0.0,0.0,0.0,0.0,0.0,0.0,0.0,0.0,0.0,0.0,0.0,2.1855,2.2984,0.0,0.0,0.0,0.0,1.9416,0.0,1.8008,1.8008,1.8027,1.8047,1.8027,1.8027,1.8086,0.0,0.0,0.0,0.0,0.0,0.0,0.0,0.0,0.0,0.0,0.0,0.0,0.0,0.0,0.0,3.4082,3.4258,3.4648,3.4238,3.4238,3.4648,3.4238,3.4023,3.4023,3.4023,3.3809,3.3418,3.3418,0.0,0.0,0.0,0.0,0.0,3.3418,3.3418,3.3418,3.3418,3.3418,3.3476,3.3887,3.4043,3.4199,0.0,0.0,0.0,0.0,0.0,0.0,0.0,0.0,0.0,0.0,1.5091,1.5206,1.6272,1.6308,1.6329,0.0,0.0,0.0,0.0,0.0,0.0,0.0,0.0,0.0,2.1687,2.0633,1.9629,1.8716,1.7645,1.7615,1.8533,1.7451,1.7954,1.977,1.9852,2.1009,2.292,2.292,2.292,2.292,2.3045,2.3095,0.0,0.0,0.0,0.0,2.3095,2.3095,0.0,0.0,0.0,0.0,0.0,0.0,0.0,0.0,1.9201,1.8459,1.9479,0.0,1.8887,1.9512,1.9297,1.8887,0.0,1.8379,1.8008,1.8008,1.8008,0.0,0.0,1.8223,1.8223,0.0,0.0,0.0,0.0,0.0,0.0,0.0,0.0,0.0,0.0,0.0,0.0,0.0,0.0,0.0,0.0,3.4082,3.4121,3.4219,3.3789,3.3789,3.4219,3.3789,3.3574,3.3574,3.3574,3.3516,3.3418,3.3418,0.0,0.0,0.0,0.0,3.3418,3.3418,3.3418,3.3418,3.3418,3.3418,3.3437,3.3535,3.3789,3.4141,0.0,0.0,0.0,0.0,0.0,0.0,0.0,0.0,0.0,0.0,0.0,1.6117,1.6925,1.6996,0.0,0.0,0.0,0.0,0.0,0.0,0.0,0.0,0.0,2.0878,2.129,2.0195,1.9071,1.7893,1.7451,1.7226,1.7294,1.6838,1.7369,1.8775,2.0191,2.1469,2.2555,2.2944,2.3095,2.3095,2.3095,0.0,0.0,0.0,0.0,0.0,2.3095,2.3095,0.0,2.2769,2.2322,2.1769,0.0,0.0,0.0,0.0,1.9501,1.8333,1.9576,1.8812,1.7734,1.7949,1.8008,1.8008,1.8008,1.8008,1.8008,1.8008,1.8008,0.0,0.0,0.0,0.0,0.0,0.0,0.0,0.0,0.0,0.0,0.0,0.0,0.0,0.0,0.0,0.0,0.0,0.0,0.0,0.0,3.3769,3.3769,3.3769,3.3535,3.3535,3.3769,3.3535,3.3418,3.3418,3.3418,3.3418,3.3418,3.3418,3.3418,0.0,0.0,0.0,3.3418,3.3418,3.3418,3.3418,3.3418,3.3418,3.3437,3.3652,3.3984,3.4414,0.0,0.0,0.0,0.0,0.0,0.0,0.0,0.0,0.0,0.0,0.0,0.0,0.0,0.0,0.0,0.0,0.0,0.0,0.0,0.0,0.0,0.0,1.9683,1.9694,2.0478,1.9641,1.8688,1.7616,1.7678,1.7358,1.6643,1.656,1.7071,1.8119,2.0511,2.1713,2.1939,2.2763,2.3095,2.3095,2.3095,0.0,0.0,0.0,0.0,0.0,0.0,0.0,0.0,2.302,2.2669,2.2221,2.1669,0.0,0.0,0.0,0.0,0.0,2.0258,1.9547,1.8164,1.8047,1.8008,1.8008,1.8008,1.8008,1.8008,0.0,0.0,0.0,0.0,1.8617,0.0,0.0,0.0,0.0,0.0,0.0,0.0,0.0,0.0,0.0,0.0,0.0,0.0,0.0,0.0,0.0,0.0,3.3379,3.3418,3.3418,3.3359,3.3359,3.3418,3.3418,3.3418,3.3418,3.3418,3.3418,3.3418,3.3418,3.3418,0.0,0.0,0.0,3.3418,3.3418,3.3418,3.3418,3.3418,3.3418,3.3476,3.3828,3.4238,3.4668,0.0,0.0,0.0,0.0,0.0,0.0,0.0,0.0,0.0,0.0,0.0,0.0,0.0,0.0,0.0,0.0,0.0,0.0,0.0,0.0,0.0,1.9465,1.9375,1.9522,1.9994,1.9147,1.812,1.6876,1.7283,1.7402,1.7263,1.6857,1.7143,1.8068,1.9563,2.0834,2.1939,2.2763,2.3095,2.3095,2.3095,0.0,0.0,0.0,0.0,0.0,0.0,0.0,0.0,2.2569,2.2368,2.2221,2.1669,0.0,0.0,0.0,0.0,0.0,2.1136,2.0429,1.8906,1.8184,1.8008,1.8008,1.8008,1.8008,1.8008,0.0,0.0,0.0,0.0,1.998,2.0625,0.0,0.0,0.0,0.0,0.0,0.0,0.0,0.0,0.0,0.0,0.0,0.0,0.0,0.0,0.0,0.0,0.0,3.3418,3.3418,3.3066,3.3066,3.3418,3.3418,3.3418,3.3418,3.3418,3.3418,3.3418,3.3418,3.3418,0.0,0.0,3.3418,3.3418,3.3418,3.3418,3.3418,3.3418,3.3418,3.3437,3.3496,3.3789,3.4277,0.0,0.0,0.0,0.0,0.0,0.0,0.0,0.0,0.0,0.0,0.0,0.0,0.0,0.0,0.0,0.0,0.0,0.0,0.0,0.0,1.9368,1.9617,1.8769,1.8556,1.9165,1.8589,1.7636,1.6367,1.6816,1.6914,1.6711,1.6953,1.7177,1.7367,1.8882,1.992,2.059,2.1908,2.2457,2.2488,0.0,0.0,0.0,0.0,0.0,0.0,0.0,0.0,0.0,0.0,2.2468,2.2569,2.1769,0.0,0.0,0.0,0.0,0.0,2.032,1.9679,1.8672,1.8965,1.8867,1.8633,1.8364,1.8184,1.8066,1.8266,0.0,0.0,0.0,0.0,0.0,0.0,0.0,0.0,0.0,0.0,0.0,0.0,0.0,0.0,0.0,0.0,0.0,0.0,0.0,0.0,0.0,0.0,3.2988,3.2754,3.2559,3.2559,3.2734,3.2734,3.2969,3.3418,3.3418,3.3418,3.3418,3.3418,3.3418,3.3418,0.0,3.3418,3.3418,3.3418,3.3418,3.3418,3.3418,3.3418,3.3457,3.3691,3.3906,3.416,0.0,0.0,0.0,0.0,0.0,0.0,0.0,0.0,0.0,0.0,0.0,0.0,0.0,0.0,0.0,0.0,0.0,0.0,0.0,0.0,2.0104,1.9672,1.8554,1.8095,1.8449,1.8081,1.7324,1.6242,1.666,1.6602,1.6105,1.7005,1.7148,1.6758,1.8397,1.9204,1.9387,2.1164,2.1908,2.197,0.0,0.0,0.0,0.0,0.0,0.0,0.0,0.0,0.0,0.0,0.0,0.0,0.0,0.0,0.0,2.1069,1.9713,1.8503,1.987,1.9113,1.8296,1.9627,1.98,1.9684,1.9666,1.9538,1.9545,1.9901,0.0,0.0,0.0,0.0,0.0,0.0,0.0,0.0,0.0,0.0,0.0,0.0,0.0,0.0,0.0,0.0,0.0,0.0,0.0,0.0,0.0,0.0,3.25,3.2187,3.207,3.207,3.2229,3.207,3.2383,3.3125,3.3223,3.3281,3.3281,3.3379,3.3418,3.3418,3.3418,3.3418,3.3418,3.3418,3.3418,3.3418,3.3418,3.3418,3.3457,3.3789,3.3926,3.3984,0.0,0.0,0.0,0.0,0.0,0.0,0.0,0.0,0.0,0.0,0.0,0.0,0.0,0.0,0.0,0.0,0.0,0.0,0.0,0.0,2.0919,1.9059,1.9337,1.9073,1.8048,1.764,1.7187,1.6648,1.7129,1.6926,1.6105,1.7005,1.7148,1.6758,1.8068,1.8889,1.9387,2.1164,2.1908,2.197,2.2793,0.0,0.0,0.0,0.0,0.0,0.0,0.0,0.0,0.0,0.0,0.0,0.0,0.0,2.2196,2.2196,2.0428,1.8941,2.1158,1.9922,1.8364,1.9754,2.0449,2.1125,2.2476,2.3284,2.3826,2.3954,2.3672,0.0,0.0,0.0,0.0,0.0,0.0,0.0,0.0,0.0,0.0,0.0,0.0,0.0,0.0,0.0,0.0,0.0,0.0,0.0,0.0,0.0,0.0,3.2229,3.1777,3.1758,3.2229,3.1758,3.1797,3.2266,3.2656,3.2832,3.2851,3.3242,3.3418,3.3418,3.3418,3.3418,3.3418,3.3418,3.3418,3.3418,3.3418,3.3418,3.3418,3.3457,3.3476,3.3535,0.0,0.0,0.0,0.0,0.0,0.0,0.0,0.0,0.0,0.0,0.0,0.0,0.0,0.0,0.0,0.0,0.0,0.0,0.0,2.1308,2.1096,1.9216,1.8807,1.8089,1.686,1.7378,1.721,1.6309,1.6515,1.6281,1.5684,1.6868,1.7148,1.6726,1.777,1.8194,1.8213,1.9673,2.0124,1.9985,2.1673,2.2341,0.0,0.0,0.0,0.0,0.0,0.0,0.0,0.0,2.2819,2.297,2.2322,2.2196,2.2171,2.1493,2.0313,1.9433,2.0304,2.0067,1.9819,2.0591,2.1642,2.2473,2.2379,2.2978,2.3731,2.4291,2.4512,0.0,0.0,0.0,0.0,0.0,0.0,0.0,0.0,0.0,0.0,0.0,0.0,0.0,0.0,0.0,0.0,0.0,0.0,0.0,0.0,0.0,0.0,3.1387,3.1211,3.1211,3.1367,3.1211,3.1211,3.1387,3.2344,3.2793,3.2812,3.3223,3.3418,3.3418,3.3418,3.3281,3.3027,3.3027,3.3027,3.3066,3.332,3.3418,3.3418,3.3418,3.3418,3.3437,0.0,0.0,0.0,0.0,0.0,0.0,0.0,0.0,0.0,0.0,0.0,0.0,0.0,0.0,0.0,0.0,0.0,0.0,2.127,2.1898,2.1463,1.9661,1.9178,1.8208,1.6667,1.7297,1.7032,1.5889,1.6026,1.587,1.5449,1.6758,1.7227,1.6921,1.7369,1.7598,1.7664,1.8656,1.8889,1.8765,2.0705,2.1659,0.0,0.0,0.0,0.0,0.0,0.0,0.0,0.0,2.2447,2.2468,2.1719,2.187,2.2113,2.1085,2.0116,1.9365,1.9337,1.9445,1.9764,2.0449,2.203,2.3369,2.3319,2.3846,2.4675,2.5947,2.6269,2.6348,2.6543,0.0,0.0,0.0,0.0,0.0,0.0,0.0,0.0,0.0,0.0,0.0,0.0,0.0,0.0,0.0,0.0,0.0,0.0,0.0,0.0,0.0,3.0898,3.0898,3.0898,3.0898,3.0898,3.0898,3.1914,3.2402,3.2402,3.2969,3.3223,3.3223,3.3223,3.3066,3.2793,3.2656,3.2676,3.2832,3.3262,3.3418,3.3418,3.3418,3.3418,3.3418,0.0,0.0,0.0,0.0,0.0,0.0,0.0,0.0,0.0,0.0,0.0,0.0,0.0,0.0,0.0,0.0,0.0,0.0,2.0742,2.2221,2.2238,2.0274,2.0695,2.0,1.7863,1.7423,1.6611,1.541,1.587,1.587,1.5449,1.6758,1.7383,1.7363,1.6902,1.7174,1.8003,1.8417,1.8596,1.8701,2.0038,2.1101,2.1877,0.0,0.0,0.0,0.0,0.0,0.0,0.0,2.1945,2.1493,2.1468,2.187,2.2122,2.1248,1.9843,1.8603,1.8616,1.8068,1.7768,1.9004,2.131,2.3795,2.5898,2.6552,2.738,2.9695,2.9512,2.8535,2.7266,0.0,0.0,0.0,0.0,0.0,0.0,0.0,0.0,0.0,0.0,0.0,0.0,0.0,0.0,0.0,0.0,0.0,0.0,0.0,0.0,0.0,3.0898,3.0898,3.0898,3.0898,3.0898,3.0898,3.1309,3.1504,3.1543,3.2402,3.2793,3.2793,3.2793,3.2793,3.2754,3.2344,3.2402,3.2832,3.3242,3.3418,3.3418,3.3418,3.3418,3.3418,0.0,0.0,0.0,0.0,0.0,0.0,0.0,0.0,0.0,0.0,0.0,0.0,0.0,0.0,0.0,0.0,0.0,0.0,2.182,2.2619,2.2441,2.0967,2.0463,1.981,1.8895,1.7879,1.6708,1.541,1.587,1.587,1.5449,1.6758,1.7227,1.6934,1.7109,1.7168,1.7129,1.7578,1.7576,1.7379,1.8648,1.9896,2.1046,0.0,0.0,0.0,0.0,0.0,0.0,0.0,0.0,0.0,2.1069,2.0934,2.0894,2.0551,1.9983,1.9596,1.9931,2.0696,0.0,2.1955,0.0,0.0,0.0,2.6872,2.7379,0.0,2.9336,2.916,2.8476,0.0,0.0,0.0,0.0,0.0,0.0,0.0,0.0,0.0,0.0,0.0,0.0,0.0,0.0,0.0,0.0,0.0,0.0,0.0,0.0,0.0,3.0898,3.0898,3.0898,3.0898,3.0898,3.0898,3.1016,3.123,3.1543,3.209,3.2363,3.2363,3.2363,3.2187,3.1894,3.1758,3.1973,3.2402,3.2812,3.3164,3.3418,3.3418,3.3418,3.3418,0.0,0.0,0.0,0.0,0.0,0.0,0.0,0.0,0.0,0.0,1.9535,1.9434,0.0,0.0,0.0,0.0,0.0,0.0,0.0,2.2794,2.2515,2.1182,2.0617,1.9818,1.8745,1.779,1.6864,1.5907,1.6191,1.6191,1.5927,1.6934,1.7324,1.7213,1.7519,1.748,1.7233,1.7695,1.7539,1.7063,1.7978,1.8931,1.981,0.0,0.0,0.0,0.0,0.0,0.0,0.0,0.0,0.0,2.044,2.0324,2.0203,1.9622,1.9642,1.9865,1.9622,2.1173,0.0,2.332,2.4812,2.6397,2.7305,0.0,0.0,0.0,0.0,2.9746,0.0,0.0,0.0,0.0,0.0,0.0,0.0,0.0,0.0,0.0,0.0,0.0,0.0,0.0,0.0,0.0,0.0,0.0,0.0,0.0,0.0,0.0,3.0898,3.0898,3.0898,3.0898,3.0898,3.0898,3.0898,3.1016,3.1289,3.1719,3.1914,3.1914,3.1914,3.166,3.1289,3.1445,3.168,3.1973,3.2559,3.2949,3.3184,3.3359,3.3418,3.3418,0.0,0.0,0.0,0.0,0.0,0.0,0.0,0.0,0.0,0.0,1.9811,1.9811,0.0,0.0,0.0,0.0,0.0,0.0,0.0,0.0,2.2515,2.1182,2.1081,2.0044,1.7955,1.7576,1.7256,1.6841,1.6797,1.6746,1.6707,1.7266,1.7676,1.8008,1.8008,1.8008,1.8027,1.8344,1.8086,1.7455,1.7832,1.8288,1.8659,1.8659,0.0,0.0,0.0,0.0,0.0,0.0,0.0,0.0,1.9936,2.0049,1.9912,1.8764,1.909,1.9603,1.8582,2.0391,2.2812,2.3828,2.6016,0.0,2.8437,2.9434,3.0215,3.0059,0.0,0.0,0.0,0.0,0.0,0.0,0.0,0.0,0.0,0.0,0.0,0.0,0.0,0.0,0.0,0.0,0.0,0.0,0.0,0.0,0.0,0.0,0.0,0.0,3.0898,3.0898,3.0898,3.0898,3.0898,0.0,3.0898,3.0898,3.0898,3.1289,3.1465,3.1465,3.1465,3.125,3.0918,3.1309,3.1484,3.1601,3.2383,3.2734,3.2832,3.3223,3.3379,3.3418,0.0,0.0,0.0,0.0,0.0,0.0,0.0,0.0,0.0,0.0,0.0,0.0,0.0,0.0,0.0,0.0,0.0,0.0,0.0,0.0,2.2755,2.206,2.1613,2.0519,1.8701,1.8986,1.8812,1.8089,1.7519,1.707,1.6726,1.7818,1.8208,1.8008,1.8008,1.8008,1.7988,1.7754,1.7559,1.7455,1.7832,1.8469,1.9141,1.9141,1.9727,0.0,0.0,0.0,0.0,0.0,0.0,0.0,2.0991,2.0499,1.9691,1.9516,1.9371,1.9438,2.0287,2.1697,0.0,0.0,2.8008,2.9766,3.0234,3.0547,3.0351,0.0,0.0,0.0,0.0,0.0,0.0,0.0,0.0,0.0,0.0,0.0,0.0,0.0,0.0,0.0,0.0,0.0,0.0,0.0,0.0,0.0,0.0,0.0,0.0,3.0898,3.0898,3.0898,3.0898,3.0898,3.0898,0.0,3.0898,3.0898,3.0898,3.0976,3.1035,3.1035,3.1035,3.0976,3.0898,3.0996,3.123,3.1543,3.1719,3.2207,3.2812,3.2891,3.3144,3.3418,0.0,0.0,0.0,0.0,0.0,0.0,0.0,0.0,0.0,0.0,0.0,0.0,0.0,0.0,0.0,0.0,0.0,0.0,0.0,0.0,2.2744,2.1945,2.1117,2.0315,1.9533,1.9396,1.9269,1.9168,1.8375,1.7969,1.7969,1.8383,1.8695,1.8926,1.9141,1.8887,1.834,1.873,1.8555,1.7988,1.8008,1.8398,1.8947,1.8745,1.9064,1.9564,1.9435,0.0,0.0,0.0,0.0,0.0,0.0,0.0,1.9241,1.9186,1.9143,1.9294,2.0051,0.0,0.0,2.7168,0.0,2.9961,3.0195,3.0254,3.0,0.0,0.0,0.0,0.0,0.0,0.0,0.0,0.0,0.0,0.0,0.0,0.0,0.0,0.0,0.0,0.0,0.0,0.0,0.0,0.0,0.0,0.0,3.0371,3.0254,3.0254,3.0254,3.0254,3.0254,3.0449,3.0566,3.0566,3.0781,3.0898,3.0898,3.0898,3.0898,3.0898,3.0898,3.0898,3.0898,3.0898,3.1016,3.123,3.1445,3.1914,3.2519,3.2715,3.3066,3.3418,0.0,0.0,0.0,0.0,0.0,0.0,0.0,0.0,0.0,0.0,0.0,0.0,0.0,0.0,0.0,0.0,0.0,0.0,0.0,0.0,0.0,2.1669,2.0639,2.0192,2.0428,1.9506,1.9375,1.9991,1.9143,1.9082,1.9727,1.9219,1.9355,2.0039,2.0449,1.9961,1.9007,2.0039,1.9883,1.8909,1.8672,1.8695,1.889,1.8574,1.8574,1.875,1.8716,0.0,0.0,0.0,0.0,0.0,0.0,0.0,1.8955,1.8607,1.8683,1.8924,1.9219,0.0,2.4766,2.791,2.9082,0.0,2.9551,2.9626,0.0,0.0,0.0,0.0,0.0,0.0,0.0,0.0,0.0,0.0,0.0,0.0,0.0,0.0,0.0,0.0,0.0,0.0,0.0,0.0,0.0,0.0,3.0078,2.9766,2.9626,2.9626,2.9626,2.9626,2.9626,2.9922,3.0098,3.0098,3.0469,3.0703,3.0762,3.0762,3.082,3.0898,3.0898,3.0898,3.0898,3.0898,3.0898,3.0918,3.1269,3.168,3.2109,3.2539,3.2949,3.332,0.0,0.0,0.0,0.0,0.0,0.0,0.0,0.0,0.0,0.0,2.0591,2.0591,0.0,0.0,0.0,0.0,0.0,0.0,0.0,0.0,0.0,2.2196,2.1594,2.129,2.1328,2.0178,1.9843,2.0335,1.9585,2.0,2.1523,2.0742,2.041,2.0527,2.0586,2.0507,2.0331,2.0078,2.0117,2.037,2.0664,2.0605,2.0351,2.0292,2.0017,1.973,1.9657,1.9758,0.0,0.0,2.0411,0.0,0.0,0.0,0.0,1.8773,1.8291,1.8173,1.9061,0.0,2.5419,0.0,2.8418,2.9101,0.0,0.0,0.0,0.0,0.0,0.0,0.0,0.0,0.0,0.0,0.0,0.0,0.0,0.0,0.0,0.0,0.0,0.0,0.0,0.0,0.0,0.0,0.0,0.0,2.9704,2.9646,2.9626,2.9626,2.9626,2.9626,2.9626,2.9629,2.9648,2.9648,2.9726,2.9941,3.0293,3.0293,3.0508,3.0898,3.0898,3.0898,3.0898,3.0898,3.0898,3.0898,3.0957,3.123,3.166,3.209,3.2519,3.293,0.0,0.0,0.0,0.0,0.0,0.0,0.0,0.0,0.0,0.0,0.0,2.0817,0.0,0.0,0.0,0.0,0.0,0.0,0.0,0.0,0.0,2.187,2.1619,2.1493,2.1493,2.1123,2.1019,2.123,2.0736,2.1086,2.2227,2.209,2.2012,2.1992,2.1758,2.1387,2.0937,2.0996,2.0996,2.0937,2.0879,2.0742,2.0625,2.084,2.0508,1.9959,2.0416,2.0961,0.0,0.0,0.0,2.1237,2.1008,0.0,0.0,0.0,1.8218,1.8008,1.9021,2.1582,2.4277,0.0,2.6855,2.791,2.8086,0.0,0.0,0.0,0.0,0.0,0.0,0.0,0.0,0.0,0.0,0.0,0.0,0.0,0.0,0.0,0.0,0.0,0.0,0.0,0.0,0.0,0.0,2.8965,2.9199,2.8984,2.8848,2.8848,2.8848,2.8848,2.8848,2.9082,2.9336,2.9626,2.9626,2.9668,2.9844,2.9844,3.0234,3.0898,3.0898,3.0898,3.0898,3.0898,3.0898,3.0898,3.0898,3.1152,3.1562,3.2012,3.2441,3.2851,0.0,0.0,0.0,0.0,0.0,0.0,0.0,0.0,0.0,0.0,0.0,0.0,0.0,0.0,0.0,0.0,0.0,0.0,0.0,0.0,0.0,2.1719,2.1694,2.1694,2.1694,2.1849,2.1827,2.1731,2.141,2.163,2.2363,2.2676,2.3003,2.3393,2.3027,2.2363,2.1541,2.1914,2.1914,2.1619,2.1113,2.0997,2.1055,2.1074,2.0723,2.0294,2.0956,0.0,0.0,0.0,0.0,0.0,0.0,0.0,0.0,0.0,0.0,0.0,0.0,0.0,2.2734,2.3828,2.5156,2.6309,0.0,0.0,0.0,0.0,0.0,0.0,0.0,0.0,0.0,0.0,0.0,0.0,0.0,0.0,0.0,0.0,0.0,0.0,0.0,0.0,0.0,0.0,0.0,2.8437,2.875,2.8457,2.8301,2.8301,2.8301,2.8301,2.8301,2.8613,2.8926,2.9238,2.9238,2.9297,2.9394,2.9394,2.9883,3.0723,3.0723,3.0781,3.0898,3.0898,3.0898,3.0898,3.0898,3.1074,3.1406,3.1836,3.2207,3.2539,0.0,0.0,0.0,0.0,0.0,0.0,0.0,0.0,0.0,0.0,0.0,0.0,2.2196,2.2744,2.2844,2.2318,0.0,0.0,0.0,0.0,0.0,2.2297,2.2272,0.0,2.2272,2.2019,2.1696,2.1252,2.0973,2.1196,2.1914,2.1934,2.2812,2.4336,2.3906,2.3242,2.2441,2.248,2.2652,2.2925,2.2148,2.2051,2.2285,2.1055,2.084,2.1132,0.0,0.0,0.0,0.0,0.0,0.0,0.0,0.0,0.0,0.0,0.0,0.0,0.0,2.0018,0.0,2.275,2.3594,0.0,0.0,0.0,0.0,0.0,0.0,0.0,0.0,0.0,0.0,0.0,0.0,0.0,0.0,0.0,0.0,0.0,0.0,0.0,0.0,0.0,0.0,0.0,0.0,2.8301,2.832,2.8301,2.8301,2.8301,2.8301,2.8301,2.8301,2.832,2.834,2.8359,2.8359,2.8574,2.8945,2.8945,2.9414,3.0234,3.0234,3.0488,3.0898,3.0898,3.0898,3.0898,3.0898,3.0898,3.0976,3.1406,3.1562,3.1641,0.0,0.0,0.0,0.0,0.0,0.0,0.0,0.0,0.0,0.0,0.0,0.0,0.0,2.2995,2.302,2.2819,2.2995,0.0,0.0,0.0,0.0,2.182,2.2121,2.2322,2.2322,2.2551,2.2345,2.1642,2.1579,2.1655,2.1894,2.1894,2.2363,2.3203,2.3613,2.3613,2.332,2.2984,2.2964,2.3042,2.2519,2.2051,2.1639,2.1484,0.0,0.0,0.0,0.0,0.0,0.0,0.0,0.0,0.0,0.0,0.0,0.0,0.0,0.0,0.0,0.0,0.0,2.0644,2.1621,0.0,0.0,0.0,0.0,0.0,0.0,0.0,0.0,0.0,0.0,0.0,0.0,0.0,0.0,0.0,0.0,0.0,0.0,0.0,0.0,0.0,0.0,0.0,0.0,0.0,2.8281,2.8301,2.8301,2.8301,2.8301,2.8301,2.8301,2.8301,2.8301,2.8301,2.8301,2.8379,2.8516,2.8516,2.8828,2.9375,2.9375,2.9961,3.0898,3.0898,3.0898,3.0898,3.0898,3.0898,3.0937,3.1367,3.1523,3.1582,0.0,0.0,0.0,0.0,0.0,0.0,0.0,0.0,0.0,2.1694,0.0,0.0,0.0,0.0,2.2744,2.2569,2.2543,2.2393,2.2046,2.2372,2.2171,2.127,2.1568,2.1769,2.1769,2.2297,2.2194,2.1386,2.1487,2.1517,2.1486,2.1289,2.168,2.2539,2.3105,2.3359,2.334,2.3003,2.2964,2.3042,2.2321,2.2012,2.1914,0.0,0.0,0.0,0.0,0.0,0.0,0.0,0.0,0.0,0.0,0.0,0.0,0.0,0.0,0.0,1.9748,0.0,0.0,0.0,0.0,0.0,0.0,0.0,0.0,0.0,0.0,0.0,0.0,0.0,0.0,0.0,0.0,0.0,0.0,0.0,0.0,0.0,0.0,0.0,0.0,0.0,0.0,0.0,0.0,0.0,2.7851,2.7871,2.7871,2.7871,2.8144,2.8223,2.8086,2.8223,2.8301,2.8301,2.8301,2.8301,2.8301,2.8301,2.8516,2.8926,2.8926,2.957,3.0664,3.0664,3.0762,3.0898,3.0898,3.0898,3.0918,3.1211,3.1309,3.1367,0.0,0.0,0.0,0.0,0.0,0.0,0.0,0.0,2.1694,2.2246,0.0,0.0,0.0,0.0,0.0,2.1543,2.1493,2.1493,2.1496,2.1468,2.127,2.0717,0.0,0.0,2.0717,2.1217,2.1102,2.0408,2.0526,2.0578,2.0566,2.0117,2.082,2.2461,2.248,2.25,2.25,2.2519,2.273,2.2984,0.0,2.207,2.3227,0.0,0.0,0.0,2.4812,2.4805,0.0,2.4492,0.0,0.0,0.0,0.0,0.0,0.0,0.0,0.0,0.0,0.0,0.0,0.0,0.0,0.0,0.0,0.0,0.0,0.0,0.0,0.0,0.0,0.0,0.0,0.0,0.0,0.0,0.0,0.0,0.0,0.0,0.0,0.0,0.0,0.0,0.0,0.0,0.0,2.7012,2.7012,2.7012,2.7012,2.7012,2.7812,2.8066,2.7708,2.8066,2.8281,2.8281,2.8281,2.8301,2.8301,2.8301,2.8516,2.8906,2.8906,2.9375,3.0156,3.0176,3.0469,3.0879,3.0879,3.0898,3.0898,3.0898,3.0898,3.0957,0.0,0.0,0.0,0.0,0.0,0.0,2.1737,2.1956,2.2146,0.0,0.0,0.0,2.2493,2.2397,2.2096,2.1543,2.1845,2.1744,2.0968,2.1295,2.127,2.0717,2.0691,2.0893,2.127,2.0807,2.051,2.0408,2.017,2.0085,2.0098,1.998,2.0332,2.1133,2.1777,2.2051,2.209,2.2715,2.2984,2.3081,2.3105,2.3301,0.0,0.0,0.0,0.0,0.0,2.541,2.6025,0.0,2.6315,2.4609,0.0,0.0,0.0,0.0,0.0,0.0,2.1992,0.0,0.0,0.0,0.0,0.0,0.0,0.0,0.0,0.0,0.0,0.0,0.0,0.0,0.0,0.0,0.0,0.0,0.0,0.0,0.0,0.0,0.0,0.0,0.0,0.0,0.0,0.0,2.6562,2.6699,2.6992,2.7012,2.7012,2.7012,2.7246,2.7305,2.7187,2.7617,2.7885,2.7904,2.8144,2.8301,2.8301,2.8301,2.8359,2.8457,2.8457,2.8769,2.9316,2.9941,3.0273,3.043,3.0762,3.0898,3.0898,3.0898,3.0898,3.0918,0.0,0.0,0.0,0.0,0.0,2.202,2.2543,2.2619,2.2543,0.0,0.0,0.0,2.1669,2.202,2.1895,2.0865,2.1091,2.0991,2.0365,2.0614,2.0639,2.0339,2.0339,2.0464,2.079,2.0551,2.0474,2.0623,2.0063,2.003,2.0444,1.9913,2.0078,2.0879,2.1582,2.1973,2.2187,2.2808,0.0,0.0,2.3574,0.0,0.0,2.5,2.5449,0.0,0.0,0.0,2.727,2.7875,2.7082,0.0,0.0,0.0,0.0,0.0,0.0,0.0,0.0,0.0,0.0,0.0,0.0,0.0,0.0,1.9863,0.0,0.0,0.0,0.0,0.0,0.0,0.0,0.0,0.0,0.0,0.0,0.0,0.0,0.0,0.0,0.0,0.0,0.0,0.0,2.5781,2.584,2.6016,2.6465,2.666,2.668,2.6434,2.6836,2.6934,2.6758,2.7187,2.748,2.7728,2.791,2.8125,2.8301,2.8301,2.8301,2.8301,2.8301,2.8535,2.8965,2.9648,3.0039,3.0234,3.0703,3.0898,3.0898,3.0898,3.0898,3.0918,0.0,0.0,0.0,2.197,2.2272,2.2518,2.2945,2.302,2.2869,0.0,2.231,2.1877,2.0932,2.1652,2.1631,2.0137,2.0112,2.0062,1.9811,1.9987,2.0037,1.9911,1.9962,1.9987,1.9987,2.0486,2.079,2.0919,2.0096,2.016,2.1053,1.9952,2.0059,2.1151,2.1719,0.0,2.2539,0.0,0.0,2.4355,2.3711,2.4434,0.0,0.0,2.7109,2.7246,2.7969,2.8262,2.8144,2.7246,2.6973,0.0,0.0,0.0,0.0,0.0,2.4492,0.0,0.0,0.0,0.0,0.0,0.0,0.0,1.9102,1.957,2.0351,0.0,0.0,0.0,0.0,0.0,0.0,0.0,0.0,0.0,0.0,0.0,0.0,0.0,0.0,0.0,0.0,2.4316,2.4512,2.4902,2.5067,2.5234,2.5596,2.6074,2.6133,2.5693,2.6484,2.6699,2.6328,2.6738,2.7168,2.7598,2.7689,2.7891,2.8301,2.8301,2.8301,2.8301,2.8301,2.8535,2.8945,2.9394,2.9824,3.0234,3.0703,3.0898,3.0898,3.0898,3.0898,3.0937,0.0,0.0,0.0,2.1144,2.2096,2.2819,2.2493,2.2443,2.2569,2.2895,2.2287,2.1732,2.1517,2.1684,2.165,2.1212,2.1942,2.1691,1.9911,2.1066,2.1418,2.0566,2.0943,2.1167,2.1167,2.1014,2.0967,2.0979,2.0248,1.9944,2.017,2.0292,2.0488,2.0781,2.1875,2.2441,2.2539,0.0,0.0,2.4473,2.4972,0.0,2.6816,2.7344,2.7754,2.8027,2.7851,2.8008,2.8105,0.0,2.6738,2.6816,0.0,0.0,0.0,0.0,0.0,0.0,0.0,0.0,0.0,0.0,0.0,0.0,2.2146,2.1055,2.0293,0.0,0.0,0.0,0.0,0.0,0.0,0.0,0.0,0.0,0.0,0.0,0.0,0.0,0.0,0.0,0.0,2.3711,2.3945,2.4043,2.4668,2.5145,2.5195,2.5625,2.5771,2.5693,2.5849,2.5908,2.581,2.6289,2.6719,2.7148,2.75,2.7891,2.8301,2.8301,2.8301,2.8301,2.8301,2.8535,2.8945,2.9394,2.9824,3.0234,3.0703,3.0898,3.0898,3.0898,3.0898,3.0898,0.0,0.0,2.182,2.1543,2.2397,2.302,2.2744,2.2694,2.2895,2.3471,2.3215,2.2441,2.1106,2.1243,2.1273,2.0875,2.1155,2.1176,2.0787,2.152,2.1977,2.1892,2.1895,2.1895,2.1895,2.174,2.1658,2.1658,2.0719,2.0559,2.118,2.0538,2.0586,2.129,2.2129,2.2519,0.0,0.0,2.4231,2.505,2.5312,0.0,2.7772,2.8462,2.8848,2.8978,2.8978,2.872,2.8164,2.7305,2.7168,0.0,0.0,2.6055,2.6055,0.0,2.5586,2.4972,0.0,0.0,0.0,2.3945,0.0,0.0,0.0,2.1307,2.0644,0.0,0.0,0.0,0.0,0.0,0.0,0.0,0.0,0.0,0.0,0.0,0.0,0.0,0.0,0.0,0.0,2.3296,2.3555,2.3769,2.4636,2.5106,2.5106,2.5488,2.5693,2.5693,2.5693,2.5693,2.5693,2.5908,2.6269,2.6699,2.7129,2.7559,2.7988,2.8203,2.8301,2.8301,2.8516,2.8848,2.9277,2.9707,3.0137,3.0566,3.0801,3.0898,3.0898,3.0898,3.0898,3.0898,0.0,0.0,2.187,2.2121,2.2569,2.292,2.2794,2.2794,2.2975,2.3501,2.3738,2.319,2.1397,2.1266,2.1347,2.1379,2.0588,2.0587,0.0,2.2004,2.2241,2.2672,2.2839,2.271,2.2238,2.2585,2.2669,2.2443,2.1479,2.1474,2.2346,2.1049,2.0957,2.1894,2.2324,2.2656,2.2949,0.0,0.0,2.5605,0.0,2.658,2.8354,2.9113,2.9383,2.9362,2.9746,2.9157,2.8125,2.7826,0.0,2.7883,2.6859,2.6645,0.0,0.0,0.0,0.0,0.0,0.0,0.0,0.0,0.0,2.3633,0.0,0.0,0.0,0.0,0.0,0.0,0.0,0.0,0.0,0.0,0.0,0.0,0.0,0.0,0.0,0.0,0.0,0.0,0.0,2.2945,2.3237,2.3633,2.4375,2.4863,2.4941,2.5371,2.5557,2.5557,2.5635,2.5654,2.5605,2.5635,2.5947,2.6523,2.6777,2.7207,2.7793,2.8047,2.8223,2.832,2.873,2.916,2.9609,3.0019,3.0469,3.0898,3.0898,3.0898,3.0898,3.0898,3.0937,3.1016,2.1421,2.2221,0.0,2.1744,2.2046,2.2246,2.1744,2.1669,2.1755,2.1947,2.2393,2.3185,2.4556,2.2985,2.2875,2.5476,0.0,0.0,2.2615,0.0,2.2657,2.1284,2.3805,2.4211,2.1985,2.3628,2.4023,2.302,2.2621,2.2286,2.1986,2.2259,2.2208,2.1894,2.2324,0.0,0.0,0.0,2.4355,0.0,2.6348,2.7192,0.0,2.8292,2.8252,2.7976,2.839,2.8206,2.7787,0.0,2.852,2.9166,0.0,2.7512,0.0,0.0,0.0,0.0,0.0,0.0,0.0,0.0,2.4969,0.0,0.0,0.0,2.2227,0.0,0.0,0.0,0.0,0.0,0.0,0.0,0.0,0.0,0.0,0.0,0.0,0.0,0.0,0.0,0.0,0.0,2.312,2.3159,2.3672,2.4102,2.4473,2.4902,2.5184,2.5184,2.5527,2.5547,2.5184,2.5527,2.6103,2.6934,2.6621,2.709,2.8203,2.7943,2.793,2.832,2.873,2.916,2.9609,3.0019,3.0469,3.0898,3.0898,3.0898,3.0898,3.0898,3.1133,3.1445,2.1543,2.2121,0.0,0.0,2.2422,0.0,0.0,2.3552,2.4107,2.3258,2.3704,2.4865,0.0,0.0,0.0,0.0,0.0,2.4886,0.0,0.0,0.0,2.6537,2.537,2.4802,2.5034,2.422,2.3741,2.3627,2.2698,2.2695,2.3559,2.266,2.2602,2.3268,2.3963,0.0,2.375,0.0,2.5979,0.0,0.0,0.0,0.0,2.9797,3.049,3.0209,2.8787,2.8184,2.8027,0.0,2.8271,0.0,0.0,0.0,0.0,0.0,0.0,0.0,0.0,0.0,0.0,0.0,0.0,0.0,0.0,0.0,2.3359,0.0,0.0,0.0,0.0,0.0,0.0,0.0,0.0,0.0,0.0,0.0,0.0,0.0,0.0,0.0,0.0,0.0,0.0,0.0,0.0,2.3711,2.4375,2.4824,2.5243,2.5449,2.5596,2.5596,2.5449,2.5644,2.6005,2.6641,2.6719,2.7168,2.793,2.7988,2.8262,2.8672,2.9101,2.9531,2.9961,3.041,3.0723,3.0898,3.0898,3.0898,3.0898,3.0898,3.1152,3.1523,2.202,0.0,0.0,0.0,0.0,0.0,0.0,0.0,0.0,0.0,0.0,0.0,2.8455,2.5506,0.0,0.0,2.8991,2.8051,0.0,0.0,2.7522,0.0,0.0,0.0,0.0,2.4991,2.415,2.3825,2.2927,2.3309,2.4779,2.3348,2.3221,2.4157,0.0,2.4635,2.4286,0.0,0.0,2.6645,2.7518,2.8085,2.8645,3.0368,3.1309,3.1418,2.9164,2.8548,2.8814,2.8525,2.843,0.0,2.829,0.0,0.0,0.0,0.0,0.0,2.6484,0.0,0.0,0.0,0.0,0.0,0.0,0.0,0.0,0.0,0.0,0.0,0.0,0.0,0.0,0.0,0.0,0.0,0.0,0.0,0.0,0.0,0.0,0.0,0.0,0.0,0.0,0.0,2.2789,2.334,2.4199,2.4648,2.5098,2.5547,2.5635,2.5635,2.5547,2.5635,2.6016,2.6562,2.6758,2.7187,2.7904,2.8027,2.8418,2.8945,2.9375,2.9805,3.0234,3.0703,3.0898,3.0898,3.0898,3.0898,3.0898,3.0898,3.123,3.1699,2.3045,2.307,0.0,0.0,0.0,0.0,0.0,0.0,0.0,0.0,0.0,0.0,0.0,0.0,0.0,0.0,0.0,3.118,3.1825,0.0,2.6808,0.0,0.0,2.7191,0.0,0.0,2.6041,2.3333,2.3865,2.4376,2.4779,2.4755,2.4476,2.3971,2.3424,2.4545,2.6727,2.6056,2.693,2.8686,2.8363,2.9838,3.1838,0.0,2.8886,3.0172,2.8794,0.0,0.0,2.9183,2.9487,0.0,0.0,0.0,0.0,0.0,0.0,0.0,0.0,0.0,0.0,2.6875,0.0,0.0,0.0,0.0,2.4969,0.0,0.0,0.0,0.0,0.0,0.0,0.0,0.0,0.0,0.0,0.0,0.0,0.0,0.0,0.0,0.0,0.0,0.0,2.1288,2.2029,2.291,2.3769,2.4199,2.4629,2.5078,2.5508,2.5527,2.5145,2.5527,2.6103,2.6992,2.6602,2.707,2.8262,2.7871,2.8144,2.8945,2.9375,2.9805,3.0234,3.0703,3.0898,3.0898,3.0898,3.0898,3.0898,3.0898,3.1426,3.2209,0.0,0.0,0.0,0.0,0.0,0.0,0.0,2.3502,0.0,0.0,0.0,0.0,0.0,3.5713,3.5994,0.0,0.0,3.6904,3.7545,3.4413,0.0,0.0,0.0,2.8955,0.0,0.0,0.0,0.0,0.0,2.4354,2.4909,2.4498,2.4547,2.5039,0.0,2.5425,0.0,0.0,0.0,0.0,0.0,2.8249,2.8829,0.0,0.0,3.1418,3.012,2.9355,0.0,2.8618,2.872,2.89,2.8441,2.8358,2.8293,2.7636,2.7246,0.0,0.0,0.0,2.7266,2.7422,0.0,0.0,0.0,0.0,0.0,0.0,0.0,0.0,0.0,0.0,0.0,0.0,0.0,0.0,0.0,0.0,0.0,0.0,0.0,0.0,0.0,0.0,0.0,2.1602,2.166,2.2285,0.0,2.3926,2.4473,2.5488,2.5615,2.5615,2.5508,2.5957,2.6445,2.7012,2.7168,2.7598,2.8301,2.8437,2.8809,2.9375,2.9805,3.0234,3.0664,3.082,3.0898,3.0898,3.0898,3.0898,3.0898,3.0898,3.1426,3.2307,2.1925,0.0,0.0,0.0,0.0,0.0,0.0,0.0,0.0,0.0,3.1621,0.0,3.9922,0.0,4.0042,0.0,4.2411,4.0819,4.0247,3.7629,0.0,3.606,3.3146,0.0,0.0,0.0,0.0,0.0,0.0,2.3862,2.4456,2.3971,2.4146,2.4777,0.0,2.5505,2.6159,0.0,2.8145,0.0,0.0,2.7653,0.0,0.0,3.0469,3.12,0.0,2.9355,2.8953,2.8441,2.8301,2.8301,2.8301,2.8105,2.7891,2.7891,2.8041,2.8121,2.797,2.8192,0.0,2.8009,2.7656,0.0,2.6934,0.0,0.0,0.0,0.0,0.0,0.0,0.0,0.0,0.0,0.0,0.0,0.0,0.0,0.0,0.0,0.0,0.0,0.0,0.0,2.043,2.1133,2.1211,2.1873,0.0,0.0,2.4394,2.5654,2.5693,2.5693,2.5693,2.6172,2.6602,2.7031,2.7461,2.7891,2.8301,2.873,2.916,2.959,3.0019,3.0469,3.0898,3.0898,3.0898,3.0898,3.0898,3.0898,3.0898,3.0898,3.1426,3.2285,0.0,0.0,0.0,0.0,2.3087,0.0,0.0,0.0,2.8491,0.0,3.2202,3.6814,3.626,3.9874,4.2925,4.4552,4.4242,0.0,4.0074,3.8393,0.0,0.0,3.5233,3.3909,3.1745,0.0,0.0,0.0,0.0,0.0,2.3438,2.3392,2.3362,2.3325,2.4038,0.0,2.5737,2.7872,2.8558,2.8168,2.7361,2.8137,2.9644,2.9174,2.9228,2.9515,2.8687,2.9164,3.0016,2.8741,2.8301,2.8301,2.8301,2.8301,2.8301,2.8301,2.9197,2.9964,2.8741,2.9051,2.9548,2.8589,0.0,0.0,0.0,0.0,2.7012,0.0,0.0,0.0,0.0,0.0,0.0,0.0,0.0,0.0,0.0,0.0,0.0,0.0,0.0,0.0,0.0,2.0332,2.0429,1.998,2.0683,2.1717,0.0,0.0,2.4355,2.5615,2.5674,2.5693,2.5713,2.6211,2.6621,2.7051,2.748,2.791,2.834,2.8769,2.9199,2.9629,3.0059,3.0488,3.0898,3.0898,3.0898,3.0898,3.0898,3.0898,3.0918,3.0957,3.1484,3.2324,2.1901,2.2923,2.3778,0.0,2.2897,2.2457,0.0,0.0,0.0,0.0,3.4045,3.8181,4.1603,4.461,4.6273,4.5864,4.6125,0.0,0.0,0.0,0.0,3.9269,3.8316,3.6407,3.338,3.1576,0.0,2.52,0.0,0.0,2.2414,2.3781,2.4039,2.3304,0.0,0.0,2.5586,2.5594,2.6628,2.8327,2.8089,2.8649,0.0,0.0,2.8388,2.8373,2.9402,2.9355,2.8741,2.8388,2.8301,2.8301,2.8301,2.8301,2.8301,2.8301,2.8548,2.8953,2.9618,2.9985,3.0078,2.9838,2.9394,2.8768,0.0,0.0,0.0,0.0,0.0,0.0,0.0,0.0,0.0,0.0,0.0,0.0,0.0,0.0,0.0,0.0,0.0,0.0,0.0,2.0546,2.0566,2.0449,2.0644,2.1309,0.0,0.0,0.0,2.5195,2.5566,2.5898,2.6211,2.6641,2.707,2.75,2.793,2.8359,2.8769,2.9199,2.9629,3.0059,3.0508,3.0781,3.0898,3.0898,3.0898,3.0898,3.0898,3.1074,3.1387,3.1719,3.2168,3.2754,2.2147,0.0,0.0,2.4356,0.0,0.0,2.583,0.0,0.0,3.2662,3.7504,0.0,4.2138,4.5206,4.6778,4.5673,4.5648,0.0,4.3187,0.0,0.0,4.0224,3.9572,3.8017,3.5402,3.3173,0.0,2.7237,0.0,0.0,2.3037,2.3989,2.4162,0.0,0.0,2.4629,0.0,2.5817,2.7473,2.9505,2.8869,0.0,0.0,2.8217,2.793,2.8455,3.0066,2.9623,2.832,2.8496,2.8437,2.832,2.8516,2.8437,2.8301,2.8301,2.8708,2.9197,2.9355,3.0255,3.103,3.0463,3.0118,2.9745,2.899,2.8205,2.7578,0.0,0.0,0.0,0.0,0.0,0.0,0.0,0.0,0.0,0.0,0.0,0.0,0.0,0.0,0.0,0.0,2.0605,2.0605,2.0605,2.0605,0.0,0.0,0.0,0.0,2.5312,2.5801,2.6055,2.6094,2.6894,2.7324,2.7383,2.8008,2.8516,2.8945,2.9375,2.9805,3.0215,3.0684,3.0898,3.0898,3.0898,3.0898,3.0918,3.1094,3.1426,3.1855,3.2285,3.2598,3.291,2.279,0.0,0.0,0.0,0.0,0.0,0.0,3.16,0.0,3.46,0.0,4.3613,4.0287,4.3619,4.5673,4.4618,0.0,4.3463,4.2489,4.2414,4.171,4.0074,3.9948,3.9094,3.7337,3.477,0.0,0.0,0.0,0.0,2.4084,2.4143,0.0,0.0,0.0,0.0,0.0,2.7392,2.9541,0.0,2.9827,2.9598,2.9935,2.8267,2.8344,2.9476,3.0945,3.0323,2.8818,2.908,2.8942,2.8686,2.8785,2.8594,2.8301,2.8301,2.925,3.0068,2.89,3.0514,3.223,3.0927,3.0721,3.0773,3.0618,2.9513,2.8548,2.8548,2.7858,2.7216,0.0,0.0,0.0,0.0,0.0,0.0,0.0,0.0,0.0,0.0,0.0,0.0,0.0,0.0,0.0,0.0,0.0,0.0,0.0,0.0,0.0,2.546,2.6094,0.0,2.5947,0.0,2.7617,2.7363,2.8105,2.8672,2.9101,2.9473,2.9883,3.0312,3.0723,3.0898,3.0898,3.0898,3.0918,3.1016,3.1504,3.1914,3.2305,3.2715,3.2871,3.3008,0.0,0.0,0.0,0.0,0.0,2.6346,3.4656,3.3192,3.2112,3.4774,3.9045,4.1456,4.0693,4.3176,4.4644,4.3991,4.4267,0.0,0.0,0.0,0.0,4.1835,4.1304,4.0049,3.7914,3.6015,3.3291,0.0,0.0,0.0,2.2852,0.0,0.0,0.0,0.0,0.0,2.7207,2.8046,0.0,3.2606,3.1207,3.1365,3.2303,3.1317,3.1108,3.1479,3.299,3.2521,3.115,3.0838,3.0692,3.0376,2.8852,2.8359,2.8301,2.8301,2.925,3.0276,3.0016,3.1949,3.3723,3.228,3.2805,3.3353,3.218,3.0927,2.9964,2.9964,2.9187,2.8166,2.7165,0.0,0.0,0.0,0.0,0.0,0.0,0.0,0.0,0.0,0.0,0.0,0.0,0.0,0.0,0.0,0.0,0.0,0.0,0.0,0.0,0.0,2.5781,0.0,0.0,0.0,2.8496,2.9121,2.9277,2.957,2.998,3.0059,3.0332,3.0781,3.0859,3.0898,3.0898,3.0898,3.1094,3.1484,3.2266,3.2617,3.2734,3.3164,3.332,3.3437,0.0,0.0,0.0,0.0,0.0,0.0,0.0,3.6038,0.0,3.8563,4.0452,4.1496,4.1114,4.2942,4.3966,4.3413,4.3363,4.3237,4.2961,4.2409,4.1856,4.1329,4.0777,0.0,3.804,3.6899,3.4582,3.0994,0.0,0.0,0.0,0.0,0.0,0.0,0.0,2.7043,0.0,0.0,0.0,3.341,3.3234,3.3583,3.406,3.324,3.3061,3.3441,3.4909,3.5145,3.4558,3.3319,3.2603,3.1949,3.0562,2.9794,2.9197,2.8495,2.925,3.0172,2.946,3.1235,3.3155,3.2482,3.2805,3.3304,3.3353,3.1796,3.0514,3.1162,2.968,2.7964,2.7153,2.6133,0.0,0.0,0.0,0.0,0.0,0.0,0.0,0.0,0.0,0.0,0.0,0.0,0.0,0.0,0.0,0.0,0.0,0.0,0.0,0.0,0.0,0.0,0.0,0.0,0.0,2.8648,2.9313,2.9785,3.0195,3.0195,3.0449,3.0898,3.0898,3.0898,3.0918,3.1133,3.1328,3.1601,3.2461,3.2793,3.2871,3.3516,3.375,3.3848,0.0,2.7854,0.0,0.0,2.9829,0.0,3.5456,3.8072,4.0328,4.2298,4.2464,4.2133,4.158,4.2559,4.3112,4.266,4.2233,4.2037,4.2037,4.1178,4.0651,4.0526,4.0099,3.9295,3.804,3.7588,3.5738,0.0,0.0,0.0,0.0,0.0,0.0,0.0,0.0,0.0,0.0,0.0,3.4102,3.451,3.525,3.5506,3.5453,3.4918,3.4933,3.5405,3.6911,3.767,3.7724,3.6184,3.4916,3.374,3.25,3.1518,3.0662,2.9185,2.965,3.0401,2.886,3.0339,3.2252,3.2059,3.2167,3.2682,3.4068,3.2252,3.0669,3.2028,2.9868,2.7604,2.7309,2.6536,0.0,0.0,0.0,0.0,0.0,0.0,0.0,0.0,0.0,0.0,0.0,0.0,0.0,0.0,0.0,0.0,0.0,0.0,0.0,0.0,0.0,2.7207,2.6797,0.0,2.9062,0.0,2.9375,3.0019,3.0351,3.0351,3.0547,3.0898,3.0898,3.0937,3.1055,3.1484,3.1719,3.1855,3.2637,3.2988,3.3144,3.3828,3.4121,3.4258,0.0,0.0,0.0,0.0,0.0,0.0,0.0,3.714,3.9388,4.3144,4.3212,4.274,4.2187,4.1781,4.1501,4.1451,4.1401,4.1351,4.1351,4.125,4.1,4.0551,4.0475,3.9672,3.804,3.7965,3.6479,0.0,0.0,0.0,0.0,0.0,0.0,0.0,0.0,0.0,0.0,3.4077,3.5381,3.6869,3.6657,3.6549,3.6597,3.7014,3.7175,3.7435,3.8899,3.9467,3.9465,3.9312,3.799,3.6072,3.3792,3.2989,3.2576,3.0641,3.1081,3.1629,2.9433,3.0517,3.2088,3.1305,3.1693,3.2682,3.4068,3.2252,3.0669,3.2028,2.9868,2.7764,2.8061,2.7392,2.666,0.0,0.0,0.0,0.0,0.0,0.0,0.0,0.0,0.0,0.0,0.0,0.0,0.0,0.0,0.0,0.0,0.0,0.0,2.5165,0.0,2.7031,2.8105,2.8691,0.0,3.0586,3.0703,3.0781,3.082,3.082,3.0859,3.0898,3.0898,3.1113,3.1484,3.1934,3.2324,3.2715,3.3184,3.3613,3.3965,3.4043,3.4316,3.4707,0.0,0.0,0.0,0.0,0.0,0.0,0.0,3.8693,4.0492,4.2073,4.2133,4.1907,4.1681,4.1455,4.1275,4.1275,4.0974,4.0852,4.0852,4.0526,4.0249,4.0023,4.0023,3.9546,3.8542,3.8191,3.6726,0.0,0.0,0.0,0.0,0.0,0.0,0.0,0.0,3.2365,3.3792,3.5429,3.655,3.7238,3.7815,3.8005,3.8105,3.8595,3.8792,3.8921,3.9465,3.9697,3.9697,3.9697,3.8988,3.7753,3.5935,3.5119,3.436,3.1589,3.1915,3.2581,2.9667,3.0335,3.1741,3.1148,3.1243,3.2046,3.3941,3.2252,3.0927,3.3105,3.1723,3.0199,3.0591,2.9295,2.8196,0.0,0.0,0.0,0.0,0.0,0.0,0.0,0.0,0.0,0.0,0.0,0.0,0.0,0.0,0.0,0.0,0.0,0.0,2.623,0.0,2.7773,2.8281,2.9219,2.9824,3.0098,3.0644,3.0898,3.0898,3.0898,3.0898,3.0898,3.0898,3.1133,3.1562,3.1992,3.2422,3.2832,3.3262,3.3691,3.4101,3.4355,3.4726,3.5176,3.5705,0.0,3.4691,0.0,3.6477,3.7365,3.7436,3.948,4.1,4.0824,4.0852,4.0874,4.1025,4.0899,4.0852,4.0852,4.0501,4.0275,4.0275,3.9898,3.9697,3.9697,3.9697,0.0,3.8919,3.8291,3.7121,3.5308,3.2652,0.0,0.0,0.0,0.0,0.0,3.3195,3.403,3.4628,3.6598,3.7437,3.7513,3.8668,3.917,3.917,3.9546,3.9697,3.9697,3.9697,3.9697,3.9697,3.9697,3.9446,3.8917,3.7773,3.7176,3.6156,3.2752,3.2696,3.3215,3.0506,3.0704,3.1704,3.1998,3.1529,3.1548,3.3577,3.1805,3.038,3.2705,3.1884,3.0853,3.1431,3.0032,2.8828,2.889,0.0,0.0,0.0,0.0,0.0,0.0,0.0,2.582,2.4902,0.0,0.0,0.0,0.0,0.0,0.0,0.0,0.0,0.0,0.0,0.0,0.0,2.9434,3.0,2.9961,3.0586,3.0898,3.0898,3.1016,3.1074,3.1074,3.1074,3.1309,3.1738,3.2051,3.248,3.3027,3.3457,3.3867,3.4316,3.4746,3.5195,3.5644,3.8542,3.7286,3.6347,3.7474,3.7666,3.7498,3.692,3.8915,4.0325,3.9798,3.9722,3.9923,4.0475,4.0049,3.9722,3.9722,3.9697,3.9697,3.9697,3.9697,3.9697,0.0,0.0,3.9446,3.8919,3.8291,3.7739,3.7161,0.0,0.0,3.3625,0.0,3.2167,3.4338,3.3887,3.4699,3.6433,3.7538,3.799,3.809,3.922,3.9697,3.9697,3.9697,3.9697,3.9697,3.9697,3.9697,3.9697,3.9697,3.9697,3.9597,3.9044,3.8868,3.8113,3.4262,3.3481,3.3493,3.2125,3.1801,3.2231,3.4092,3.278,3.1476,3.2886,3.0664,2.8688,3.0068,2.9303,2.8622,2.9536,2.8946,2.8061,2.7148,0.0,0.0,0.0,0.0,0.0,0.0,2.5693,2.5693,2.5674,0.0,0.0,0.0,0.0,0.0,0.0,0.0,0.0,2.5713,2.6582,0.0,2.8281,2.9141,3.0019,3.0879,3.0879,3.0898,3.0898,3.1328,3.1504,3.1504,3.1504,3.1758,3.2168,3.2229,3.2656,3.3457,3.3887,3.4316,3.4746,3.5215,3.5644,3.6074,3.917,3.8963,3.8656,3.9028,3.9077,3.9028,3.8778,3.9438,3.9898,3.9722,3.9697,3.9772,3.9948,3.9798,3.9697,0.0,3.9697,3.9697,0.0,3.9697,3.9521,3.9145,3.912,3.8868,3.8291,3.7739,3.7362,3.7186,0.0,0.0,0.0,3.4727,3.5427,3.5763,3.5637,3.6051,3.696,3.7688,3.8241,3.8668,3.9396,3.9697,3.9697,3.9697,3.9697,3.9697,3.9697,3.9697,3.9697,3.9697,3.9697,3.9672,3.9496,3.9421,3.8733,3.5182,3.5184,3.5695,3.2952,3.3157,3.4229,3.454,3.4035,3.3511,3.36,3.2529,3.1521,3.1637,3.1316,3.1425,3.2651,3.1127,2.9465,2.8921,2.8421,0.0,0.0,0.0,0.0,0.0,2.6699,2.6934,0.0,2.6738,0.0,0.0,0.0,0.0,0.0,0.0,0.0,0.0,2.8613,0.0,2.959,2.9863,3.0293,3.0898,3.1191,3.1465,3.1758,3.1601,3.168,3.1953,3.1641,3.1934,3.2598,3.2598,3.293,3.3457,3.3906,3.4336,3.4766,3.5215,3.584,3.6484,3.9546,3.9697,3.9697,3.9697,3.9697,3.9697,3.9697,3.9697,3.9697,3.9697,3.9697,3.9697,3.9697,3.9697,0.0,3.9697,3.9697,3.9697,3.9697,3.9496,3.922,3.8894,3.8668,3.8391,3.8015,0.0,0.0,3.7186,3.5545,3.4723,3.4748,3.62,3.6857,3.6732,3.6732,3.6985,3.7538,3.809,3.8542,3.8969,3.9471,3.9697,3.9697,3.9697,3.9697,3.9697,3.9697,3.9697,3.9697,3.9697,3.9697,3.9697,3.9697,3.9697,3.9134,3.6256,3.6414,3.7015,3.4661,3.507,3.6202,3.6414,3.5543,3.42,3.261,3.1817,3.1653,3.2412,3.2009,3.1977,3.3353,3.1796,3.0068,2.9301,2.8668,2.8047,2.7363,0.0,0.0,0.0,0.0,0.0,0.0,2.7988,0.0,0.0,0.0,0.0,0.0,0.0,0.0,2.9082,2.945,0.0,2.9961,3.0293,3.0605,3.0898,3.1152,3.1601,3.2209,3.1894,3.1992,3.2383,3.2109,3.2305,3.2793,3.2793,3.3047,3.3476,3.4082,3.4473,3.4766,3.5391,3.6074,3.6699,3.9697,3.9697,0.0,0.0,3.9697,0.0,3.9697,3.9697,3.9697,3.9697,3.9697,3.9697,3.9697,3.9697,3.9697,3.9697,0.0,0.0,0.0,3.917,3.8894,3.8869,3.8266,3.7939,3.7889,3.7387,3.7136,3.7136,3.6656,3.643,3.6455,3.6455,3.6757,3.7236,3.7236,3.7538,3.809,3.8642,3.8944,3.902,3.9496,3.9697,3.9697,3.9697,3.9697,3.9697,3.9697,3.9697,3.9697,3.9697,3.9697,3.9697,3.9697,3.9697,3.9314,3.7404,3.723,3.7517,3.7016,3.7254,3.7954,3.9362,3.7173,3.3812,3.0525,2.9463,2.989,3.2515,3.1603,3.0764,3.2224,3.1235,2.9755,2.8654,2.8335,2.8144,2.7787,0.0,0.0,0.0,0.0,0.0,0.0,2.9043,2.9023,0.0,0.0,0.0,0.0,0.0,2.8867,2.8476,2.9238,2.9668,2.9668,3.0469,3.0898,3.0937,3.0957,3.1406,3.2207,3.2207,3.2441,3.2832,3.2812,3.2812,3.2832,3.2832,3.3066,3.3516,3.4355,3.4707,3.4805,3.5684,3.6309,3.6777,0.0,0.0,3.9697,3.9697,3.9697,3.9697,3.9697,3.9697,3.9697,3.9697,3.9697,3.9697,3.9697,3.9697,3.9697,3.9697,3.9697,3.9697,3.9697,3.917,3.8668,3.8241,3.7663,3.7186,3.6807,3.6681,3.6606,3.6606,3.648,3.6631,3.6985,3.6985,3.7287,3.7814,3.7814,3.814,3.8668,3.8869,3.912,3.9521,3.9647,3.9697,3.9697,3.9697,3.9697,3.9697,3.9697,3.9697,3.9697,3.9697,3.9697,3.9697,3.9697,3.9697,3.9389,3.781,3.8198,3.8923,3.7652,3.8251,3.9258,3.9645,3.7405,3.4537,3.2266,3.1581,3.1835,3.3298,3.21,3.1567,3.4059,3.137,2.9006,2.9702,2.8953,2.8144,2.7787,2.8027,0.0,0.0,2.8809,2.9434,2.9863,3.0215,3.0137,0.0,0.0,0.0,0.0,3.0117,3.0371,3.0273,3.0469,3.0586,3.0586,3.0781,3.1055,3.1367,3.1699,3.2148,3.2656,3.2656,3.2871,3.3262,3.293,3.2969,3.3281,3.3281,3.332,3.3516,3.4355,3.4707,3.4805,3.5684,3.6504,3.7168,3.9371,3.9521,3.9697,3.9697,3.9697,3.9697,3.9697,3.9697,3.9697,3.9697,3.9697,3.9697,3.9697,3.9697,3.9697,3.9697,3.9697,3.9597,3.932,3.8793,3.8216,3.7663,3.7111,3.6707,3.6405,3.6405,3.6405,3.6405,3.6405,3.6556,3.6857,3.7061,3.7487,3.8015,3.8291,3.8718,3.9245,3.9245,3.9421,3.9697,3.9697,3.9697,3.9697,3.9697,3.9697,3.9697,3.9697,3.9697,3.9697,3.9697,3.9697,3.9697,3.9697,3.9697,3.9517,3.8739,3.9077,3.9517,3.8739,3.9077,3.9517,3.8844,3.6996,3.4836,3.3133,3.1973,3.1802,3.3709,3.2598,3.1955,3.4131,3.1952,2.9796,2.968,2.888,2.8144,2.7787,2.8027,0.0,2.8555,2.9336,3.0019,3.0469,3.0742,3.0684,3.0215,0.0,0.0,3.0195,3.043,3.0664,3.0879,3.0898,3.0898,3.0898,3.1074,3.1387,3.1816,3.2051,3.2383,3.2793,3.2793,3.3027,3.3418,3.3184,3.3203,3.3437,3.3633,3.3711,3.3809,3.4668,3.5019,3.5117,3.5996,3.6738,3.7324,3.8843,3.9245,3.9672,3.9597,3.9647,3.9697,3.9697,3.9697,3.9697,3.9697,3.9697,3.9697,3.9697,3.9697,3.9672,3.9572,3.9572,3.9371,3.8944,3.8241,3.7688,3.7211,3.6707,3.6405,3.6405,3.6405,3.6405,3.6405,3.648,3.6531,3.6556,3.7136,3.7688,3.8165,3.8743,3.9245,3.9697,3.9697,3.9697,3.9697,3.9697,3.9697,3.9697,3.9697,3.9697,3.9697,3.9697,3.9697,3.9697,3.9697,3.9697,3.9697,3.9697,3.9697,3.9697,3.9697,3.9697,3.9697,3.9697,3.9697,3.931,3.7583,3.6217,3.4902,3.3473,3.1824,3.1446,3.426,3.3182,3.221,3.3922,3.2631,3.084,2.9376,2.8736,2.8203,2.7637,0.0,2.8594,2.8887,2.9746,3.0449,3.0859,3.0898,3.0898,3.0898,3.0527,3.0469,0.0,3.0586,3.0586,3.0976,3.0996,3.1016,3.1094,3.1445,3.1797,3.2229,3.2226,3.2441,3.2793,3.2871,3.3086,3.3418,3.3496,3.3516,3.3555,3.3984,3.416,3.4258,3.5078,3.5391,3.5508,3.6367,3.6934,3.7363,3.8266,3.8969,3.9546,3.9069,3.9371,3.9697,3.9697,3.9697,3.9697,3.9697,3.9697,3.9697,3.9697,3.9697,3.9496,3.9044,3.8994,3.902,3.8919,3.7889,3.7287,3.7186,3.6707,3.6405,3.6405,3.6405,3.6405,3.6405,3.6835,3.7109,3.7086,3.8165,3.8668,3.8768,3.932,3.9622,3.9697,3.9697,3.9697,3.9697,3.9697,3.9697,3.9697,3.9697,3.9697,3.9697,3.9697,3.9697,3.9697,3.9697,3.9697,3.9697,3.9697,3.9697,3.9697,3.9697,3.9697,3.9697,3.9697,3.9697,3.9025,3.6325,3.5453,3.4902,3.3473,3.2845,3.3458,3.6402,3.4479,3.3083,3.5765,3.2814,2.9939,3.0054,2.9347,2.8418,2.7285,0.0,2.9258,2.8945,3.0019,3.082,3.0879,3.0898,3.0898,3.0898,3.082,3.082,3.0879,3.1152,3.1348,3.1426,3.1426,3.1601,3.1973,3.2031,3.2109,3.2168,3.2519,3.2734,3.2812,3.3164,3.3359,3.3437,3.3809,3.3965,3.4004,3.4434,3.4609,3.4648,3.5176,3.5391,3.5508,3.6367,3.6934,3.7363,3.7663,3.8467,3.917,3.8969,3.9069,3.9245,3.9245,3.9245,3.9245,3.9245,3.9521,3.9697,3.9697,3.9697,3.9471,3.8969,3.8592,3.8291,3.799,3.7462,3.7061,3.6807,3.6556,3.6405,3.6405,3.6405,3.6405,3.6405,3.6656,3.6782,3.6807,3.7889,3.8417,3.8442,3.932,3.9697,3.9697,3.9697,3.9697,3.9697,3.9697,3.9697,3.9697,3.9697,3.9697,3.9697,3.9697,3.9697,3.9697,3.9697,3.9697,3.9697,3.9697,3.9697,3.9697,3.9697,3.9697,3.9697,3.9697,3.9697,3.9362,3.7979,3.7049,3.6325,3.5649,3.4847,3.4902,3.7079,3.4977,3.3412,3.5549,3.2852,3.0285,3.0258,2.9719,0.0,0.0,2.8926,2.9492,2.9297,3.0234,3.0898,3.0898,3.0898,3.0898,3.0898,3.0898,3.0996,3.1211,3.1406,3.1621,3.1855,3.1875,3.207,3.25,3.25,3.2617,3.2851,3.3047,3.3125,3.3144,3.334,3.3555,3.3769,3.373,3.3984,3.4434,3.4609,3.4844,3.5117,3.5566,3.5879,3.6152,3.6777,3.7266,3.7695,3.7111,3.8064,3.8869,3.8743,3.8894,3.912,3.912,3.912,3.912,3.912,3.9421,3.9697,3.9697,3.9697,3.9421,3.8718,3.8266,3.7713,3.7036,3.7111,3.6985,3.6606,3.6606,3.6531,3.6405,3.6405,3.6405,3.6405,3.6531,3.6606,3.6631,3.7688,3.8216,3.8241,3.9245,3.9697,3.9697,3.9697,3.9697,3.9697,3.9697,3.9697,3.9697,3.9697,3.9697,3.9697,3.9697,3.9697,3.9697,3.9697,3.9697,3.9697,3.9697,3.9697,3.9697,3.9697,3.9697,3.9697,3.9697,3.9697,3.9645,3.9258,3.8348,3.753,3.753,3.6595,3.6217,3.769,3.5922,3.4459,3.5617,3.3698,3.1758,3.1171,0.0,0.0,0.0,2.9597,2.9766,2.9863,3.0566,3.1074,3.1172,3.1191,3.1191,3.1191,3.1191,3.1328,3.166,3.1758,3.2012,3.2441,3.2363,3.2519,3.293,3.2949,3.3164,3.3574,3.3574,3.3633,3.3711,3.3711,3.3906,3.4199,3.3984,3.4258,3.4863,3.4961,3.5215,3.5566,3.5898,3.623,3.6582,3.7109,3.75,3.7851,3.6581,3.7788,3.8693,3.8165,3.8944,3.9647,3.9647,3.9647,3.9647,3.9647,3.9672,3.9697,3.9697,3.9697,3.9245,3.8165,3.804,3.7563,3.6531,3.691,3.7161,3.7136,3.7136,3.6885,3.6405,3.6405,3.6405,3.6405,3.6933,3.7136,3.7161,3.8266,3.8818,3.8894,3.9421,3.9697,3.9697,3.9697,3.9697,3.9697,3.9697,3.9697,3.9697,3.9697,3.9697,3.9697,3.9697,3.9697,3.9697,3.9697,3.9697,3.9697,3.9697,3.9697,3.9697,3.9697,3.9697,3.9697,3.9697,3.9697,3.9362,3.8031,3.7583,3.753,3.753,3.7423,3.7743,3.9233,3.8295,3.7186,3.7293,3.6054,3.4702,3.383,0.0,0.0,3.1072,3.048,3.0312,3.0742,3.1191,3.1641,3.2031,3.207,3.207,3.207,3.207,3.215,3.2129,3.25,3.2891,3.332,3.2949,3.2949,3.3379,3.3379,3.3594,3.4023,3.4023,3.4238,3.4609,3.4609,3.4629,3.4668,3.5078,3.5293,3.5371,3.5762,3.5937,3.5976,3.6016,3.6035,3.6172,3.6992,3.7324,3.7461,3.6455,3.7209,3.7864,3.799,3.8366,3.8768,3.912,3.917,3.917,3.917,3.9471,3.9697,3.9697,3.9697,3.9396,3.8617,3.8216,3.7839,3.7412,3.7262,3.7186,3.7186,3.6908,3.6631,3.6405,3.6405,3.6405,3.6405,3.6631,3.6883,3.7211,3.7965,3.8517,3.8944,3.9446,3.9697,3.9697,3.9697,3.9697,3.9697,3.9697,3.9697,3.9697,3.9697,3.9697,3.9697,3.9697,3.9697,3.9697,3.9697,3.9697,3.9697,3.9697,3.9697,3.9697,3.9697,3.9697,3.9697,3.9697,3.9697,3.9569,3.9025,3.8844,3.8844,3.8844,3.8844,3.9025,3.9569,3.853,3.753,3.753,3.6271,3.488,3.3626,0.0,3.2523,3.1482,3.1149,3.1191,3.1621,3.1816,3.1992,3.2148,3.2229,3.2229,3.2229,3.2229,3.2285,3.2539,3.2949,3.3262,3.3418,3.3262,3.3262,3.3418,3.3691,3.3906,3.4082,3.4336,3.4551,3.4707,3.4707,3.4863,3.5117,3.5019,3.5273,3.5781,3.5664,3.5781,3.6016,3.6016,3.6191,3.6504,3.709,3.7461,3.7773,3.6405,3.6983,3.7563,3.7939,3.8165,3.8467,3.9044,3.8994,3.8944,3.912,3.9446,3.9697,3.9697,3.9697,3.9471,3.8969,3.8517,3.8191,3.8015,3.7663,3.7362,3.7186,3.6883,3.6581,3.6405,3.6405,3.6405,3.6405,3.6581,3.6958,3.7462,3.8015,3.8592,3.9145,3.9521,3.9697,3.9697,3.9697,3.9697,3.9697,3.9697,3.9697,3.9697,3.9697,3.9697,3.9697,3.9697,3.9697,3.9697,3.9697,3.9697,3.9697,3.9697,3.9697,3.9697,3.9697,3.9697,3.9697,3.9697,3.9697,3.9697,3.9697,3.9697,3.9697,3.9697,3.9823,3.9948,3.9948,3.929,3.8674,3.8674,3.7465,3.6125,3.5121,3.4126,3.3219,3.2533,3.1998,3.1875,3.2324,3.2363,3.2422,3.2559,3.2559,3.2559,3.2559,3.2695,3.2949,3.3379,3.3672,3.3828,3.3828,3.3828,3.3828,3.3828,3.3848,3.4004,3.4277,3.457,3.4844,3.5117,3.5117,3.5293,3.5566,3.5254,3.5449,3.5996,3.5703,3.5762,3.6016,3.6016,3.6289,3.6719,3.7148,3.7559,3.7988,3.6405,3.7236,3.799,3.8015,3.8492,3.9095,3.9597,3.922,3.9069,3.9622,3.9697,3.9697,3.9697,3.9697,3.9471,3.8919,3.8919,3.8617,3.804,3.8015,3.7764,3.7211,3.7186,3.6935,3.6405,3.6405,3.6405,3.6405,3.6958,3.7462,3.8015,3.8592,3.917,3.9697,3.9697,3.9697,3.9697,3.9697,3.9697,3.9697,3.9697,3.9697,3.9697,3.9697,3.9697,3.9697,3.9697,3.9697,3.9697,3.9697,3.9697,3.9697,3.9697,3.9697,3.9697,3.9697,3.9697,3.9697,3.9697,3.9697,3.9697,3.9697,3.9697,3.9697,3.9697,4.0124,4.0526,4.0526,4.0899,4.1275,4.1275,4.0007,3.8943,3.8888,3.6378,3.4442,3.4404,3.3155,3.2344,3.2754,3.2812,3.2969,3.3379,3.3437,3.3437,3.3437,3.3828,3.4258,3.4668,3.4707,3.4707,3.4707,3.4707,3.4707,3.4707,3.3867,3.3867,3.4707,3.4707,3.5176,3.6016,3.6016,3.6016,3.6016,3.6016,3.6016,3.6016,3.6016,3.6016,3.6016,3.6016,3.6289,3.6719,3.7148,3.7559,3.7988,3.6908,3.7211,3.7563,3.7939,3.8492,3.8919,3.9094,3.9295,3.9496,3.9672,3.9697,3.9697,3.9697,3.9697,3.9622,3.9471,3.8718,3.8191,3.8015,3.8391,3.8542,3.8416,3.7613,3.6935,3.6405,3.6405,3.6606,3.6935,3.7111,3.7663,3.8617,3.8844,3.917,3.9697,3.9697,3.9697,3.9697,3.9697,3.9697,3.9697,3.9697,3.9697,3.9697,3.9697,3.9697,3.9697,3.9697,3.9697,3.9697,3.9697,3.9697,3.9697,3.9697,3.9697,3.9697,3.9697,3.9697,3.9772,4.0174,4.0275,4.0174,3.9798,3.9973,4.0275,4.0275,4.0701,4.105,4.105,4.1175,4.1275,4.1275,4.0927,4.0226,3.9189,3.7372,3.5758,3.5061,3.3861,3.3203,3.3633,3.3691,3.375,3.3867,3.3887,3.3887,3.3887,3.4277,3.457,3.4687,3.4707,3.4707,3.4707,3.4707,3.4707,3.4707,3.4766,3.4941,3.5195,3.5488,3.5762,3.6016,3.6016,3.6016,3.6016,3.6016,3.6016,3.6016,3.6016,3.6016,3.6055,3.6348,3.6562,3.6758,3.748,3.7812,3.7988,3.6832,3.7036,3.7287,3.7613,3.814,3.8592,3.8894,3.9196,3.9446,3.9672,3.9697,3.9697,3.9697,3.9697,3.9697,3.9697,3.9069,3.8668,3.8668,3.8994,3.8994,3.8542,3.809,3.7588,3.7036,3.6631,3.6782,3.7513,3.7513,3.799,3.8868,3.9094,3.9371,3.9697,3.9697,3.9697,3.9697,3.9697,3.9697,3.9697,3.9697,3.9697,3.9697,3.9697,3.9697,3.9697,3.9697,3.9697,3.9697,3.9697,3.9697,3.9697,3.9697,3.9697,3.9697,3.9697,3.9697,3.9823,4.0375,4.0526,4.0501,4.0375,4.0601,4.0852,4.0852,4.1254,4.1656,4.1656,4.1831,4.1982,4.1982,4.1638,4.0996,3.9857,3.8109,3.6643,3.5863,3.4687,3.4023,3.4297,3.4316,3.4316,3.4316,3.4316,3.4394,3.459,3.4824,3.5039,3.5215,3.5215,3.5215,3.5215,3.5215,3.5215,3.5215,3.5508,3.5566,3.5391,3.5644,3.5859,3.6016,3.6016,3.6016,3.6016,3.6016,3.6113,3.6289,3.6289,3.6367,3.6543,3.6816,3.7012,3.7226,3.7734,3.8027,3.8295,3.648,3.6835,3.7211,3.7236,3.7713,3.8266,3.8844,3.8969,3.912,3.9622,3.9697,3.9697,3.9697,3.9697,3.9697,3.9697,3.9697,3.9672,3.9622,3.9672,3.9245,3.8191,3.8567,3.8592,3.8165,3.7061,3.7036,3.809,3.809,3.8391,3.8994,3.9446,3.9697,3.9697,3.9697,3.9697,3.9697,3.9697,3.9697,3.9697,3.9697,3.9697,3.9697,3.9697,3.9697,3.9697,3.9697,3.9697,3.9697,3.9697,3.9722,3.9747,3.9722,3.9722,3.9772,3.9772,3.9772,3.9898,4.0501,4.0651,4.0802,4.13,4.1476,4.1476,4.1376,4.1831,4.2288,4.2288,4.2715,4.3062,4.3062,4.2299,4.154,4.1062,3.9158,3.755,3.6917,3.5875,3.5139,3.4831,3.4877,3.4943,3.4766,3.4766,3.4961,3.541,3.5449,3.5605,3.5996,3.6016,3.6016,3.6016,3.6016,3.6035,3.6074,3.6074,3.5879,3.5508,3.5469,3.5684,3.6133,3.6055,3.6035,3.6074,3.6074,3.6309,3.668,3.6719,3.6953,3.7305,3.7344,3.7598,3.793,3.7969,3.8223,3.8846,3.691,3.7111,3.7312,3.7739,3.8291,3.8718,3.8894,3.9245,3.9572,3.9672,3.9697,3.9697,3.9697,3.9697,3.9697,3.9697,3.9697,3.9521,3.9069,3.9446,3.9597,3.9346,3.8592,3.8542,3.932,3.8216,3.799,3.8668,3.8668,3.8969,3.9521,3.9647,3.9697,3.9697,3.9697,3.9697,3.9697,3.9697,3.9697,3.9697,3.9697,3.9697,3.9697,3.9697,3.9697,3.9697,3.9697,3.9697,3.9697,3.9697,3.9973,4.0249,3.9823,3.9998,4.035,4.035,4.035,4.0551,4.153,4.1861,4.1986,4.2484,4.2936,4.3037,4.2183,4.2464,4.2866,4.2866,4.3237,4.3614,4.3614,4.3779,4.3846,4.3747,4.2317,4.0724,3.9197,3.9158,3.8252,3.5567,3.6431,3.6673,3.5367,3.5234,3.543,3.5859,3.5879,3.5918,3.6016,3.6016,3.6016,3.6016,3.6016,3.6191,3.6523,3.6523,3.6484,3.6387,3.6055,3.6289,3.6992,3.6328,3.6211,3.6523,3.6523,3.6582,3.6699,3.7031,3.7226,3.7324,3.7656,3.7851,3.7969,3.8301,3.8496,3.8846,3.7086,3.7186,3.7287,3.7563,3.8316,3.8768,3.8492,3.917,3.9697,3.9697,3.9697,3.9697,3.9697,3.9697,3.9697,3.9697,3.9697,3.9572,3.927,3.9546,3.9572,3.932,3.8994,3.8969,3.9295,3.8994,3.8969,3.927,3.9045,3.9145,3.9697,3.9697,3.9697,3.9697,3.9697,3.9697,3.9697,3.9697,3.9697,3.9697,3.9697,3.9697,3.9697,3.9697,3.9697,3.9697,3.9697,3.9697,3.9697,3.9697,4.0074,4.0475,4.0174,4.0475,4.0849,4.0849,4.0849,4.1103,4.1986,4.2414,4.274,4.3237,4.379,4.3966,4.3137,4.3363,4.3765,4.3765,4.3991,4.4192,4.4192,4.4669,4.4945,4.4669,4.3695,4.2583,4.1384,4.0989,3.9841,3.7228,3.767,3.7538,3.5818,3.5684,3.5781,3.5996,3.6211,3.6328,3.6328,3.6523,3.6621,3.6621,3.6621,3.6738,3.6973,3.6973,3.707,3.7266,3.6836,3.6855,3.7285,3.6836,3.6758,3.6973,3.6973,3.709,3.7285,3.75,3.7715,3.793,3.8144,3.8223,3.8262,3.8496,3.9136,3.989,3.7086,3.7186,3.7236,3.7437,3.8241,3.8743,3.8341,3.9019,3.9546,3.9546,3.9546,3.9546,3.9546,3.9647,3.9697,3.9697,3.9697,3.9697,3.9697,3.9697,3.9496,3.9044,3.9346,3.9371,3.9019,3.9371,3.9597,3.9697,3.922,3.9245,3.9697,3.9697,3.9697,3.9697,3.9697,3.9697,3.9697,3.9697,3.9697,3.9697,3.9697,3.9697,3.9697,3.9697,3.9697,3.9697,3.9697,3.9747,3.9848,3.9948,4.035,4.0777,4.0676,4.1028,4.148,4.148,4.148,4.1605,4.2313,4.2816,4.3263,4.379,4.4367,4.4644,4.4192,4.4367,4.4618,4.4618,4.4694,4.4769,4.4769,4.5246,4.5472,4.4995,4.4486,4.3774,4.2767,4.2051,4.0795,3.842,3.8154,3.7595,3.625,3.6133,3.6152,3.623,3.6562,3.6777,3.6777,3.7109,3.7305,3.7305,3.7305,3.7324,3.7402,3.7402,3.7617,3.8027,3.7676,3.7519,3.7519,3.7363,3.7344,3.7402,3.7402,3.7598,3.793,3.8008,3.8242,3.8574,3.8574,3.8574,3.8574,3.8574,3.9746,4.1063,3.7086,3.7186,3.7487,3.8517,3.8818,3.9045,3.9396,3.9195,3.8994,3.8994,3.8994,3.8994,3.8994,3.9396,3.9697,3.9697,3.9697,3.9697,3.9697,3.9697,3.9672,3.9597,3.9195,3.917,3.9572,3.9195,3.922,3.9697,3.9622,3.9622,3.9697,3.9697,3.9697,3.9697,3.9697,3.9697,3.9697,3.9697,3.9697,3.9697,3.9697,3.9697,3.9697,3.9697,3.9697,3.9697,3.9697,3.9998,4.0475,4.0953,4.148,4.1911,4.1379,4.1605,4.2112,4.2112,4.2112,4.2313,4.3288,4.3639,4.3815,4.4367,4.4945,4.5347,4.5271,4.492,4.4618,4.4618,4.502,4.5372,4.5372,4.5824,4.6175,4.61,4.602,4.4866,4.1856,4.2534,4.1606,3.6924,3.6336,3.6425,3.6612,3.6582,3.6738,3.709,3.7168,3.7207,3.7207,3.7266,3.7305,3.7305,3.7305,3.748,3.7832,3.7832,3.8066,3.8476,3.8437,3.8398,3.8379,3.7637,3.75,3.7832,3.7832,3.7871,3.7949,3.834,3.8516,3.8574,3.8574,3.8574,3.8574,3.8574,3.9746,4.1063,3.7462,3.7638,3.7889,3.8718,3.8919,3.8894,3.8768,3.8542,3.8391,3.8391,3.8391,3.8517,3.8894,3.9371,3.9697,3.9697,3.9697,3.9697,3.9697,3.9697,3.9697,3.9697,3.9471,3.9446,3.9697,3.9446,3.9446,3.9697,3.9697,3.9697,3.9697,3.9697,3.9697,3.9697,3.9697,3.9697,3.9697,3.9697,3.9697,3.9697,3.9697,3.9697,3.9697,3.9697,3.9697,3.9747,4.0049,4.03,4.0601,4.11,4.1706,4.2162,4.1882,4.2158,4.2665,4.2665,4.2891,4.3187,4.3664,4.4267,4.4794,4.5045,4.5522,4.6024,4.6326,4.62,4.6024,4.6024,4.5974,4.6125,4.6728,4.6552,4.6502,4.7104,4.6702,4.5892,4.4659,4.4876,4.3701,3.973,3.8393,3.7582,3.7112,3.7012,3.709,3.7285,3.7519,3.7656,3.7656,3.7871,3.8008,3.8008,3.8008,3.8105,3.8281,3.8281,3.8379,3.8574,3.8574,3.8574,3.8555,3.8184,3.8105,3.8281,3.8281,3.8281,3.8301,3.8496,3.8574,3.8574,3.8574,3.8574,3.8574,3.8574,3.9136,3.9674]}]]